     2.11           OBSERVATION DATA    G (GPS)             RINEX VERSION / TYPE
teqc 2010Oct21 OPUS Account 20111026 16:19:26UTC            PGM / RUN BY / DATE
H 1523                                                      MARKER NAME
1188                                                        MARKER NUMBER
CSMIDDLETON NGS                                             OBSERVER / AGENCY
0220287165 TRIMBLE 5700 NP 2.32 / SP 2.32                   REC # / TYPE / VERS
11909788 TRM41249.00 NONE                                   ANT # / TYPE
  -749610.0361 -5510530.1491  3112664.5651                  APPROX POSITION XYZ
        1.9990        0.0000        0.0000                  ANTENNA: DELTA H/E/N
     1     1                                                WAVELENGTH FACT L1/2
     5    L1    L2    C1    P1    P2                        # / TYPES OF OBSERV
    15                                                      LEAP SECONDS
  2011     8     1    16    58    0.0000000     GPS         TIME OF FIRST OBS
                                                            END OF HEADER
 11  8  1 16 58  0.0000000  0  7G03G10G07G13G19G06G23
   -143327.43047    -98255.73445  20802928.8524                   20802926.6134
   -105717.08256    -51299.22753  23851631.7274                   23851631.0234
   -219037.25857   -136018.37154  22742448.1884                   22742445.6844
   -223001.64547   -151441.20746  20262575.3754                   20262571.9694
   -276251.16447   -185365.23845  21665397.2504                   21665393.3554
    -73470.41857    -44645.98055  22201793.1254                   22201790.8014
   -107156.80548    -74576.79746  20045129.2894                   20045123.7074
 11  8  1 16 58 30.0000000  0  9G03G10G07G20G13G19G06G23G16
   -217748.94547   -156246.52345  20788766.2194                   20788764.4614
   -196153.35546   -121769.03543  23834422.5634                   23834421.3634
   -355787.62947   -242577.09045  22716425.4144                   22716423.1454
     15333.39546      9938.90243  24097896.4614                   24097896.0594
   -338017.86347   -241064.24246  20240688.2424                   20240684.7544
   -418361.68047   -296100.87945  21638354.7974                   21638351.0594
   -118039.44547    -79375.10944  22193311.5084                   22193309.3244
   -162800.30948   -117935.40646  20034540.3364                   20034535.3244
     14968.16847     10017.51644  22337300.0554                   22337296.6994
 11  8  1 16 59  0.0000000  0  9G03G10G07G20G13G19G06G23G16
   -291911.38747   -214035.44945  20774653.6724                   20774651.4964
   -286455.82046   -192134.61743  23817238.6254                   23817237.4494
   -492893.56247   -349412.86344  22690334.9694                   22690332.8324
     24113.55946     16780.39843  24099566.3054                   24099566.7894
   -452917.77047   -330596.64846  20218823.5944                   20218820.1914
   -560409.73447   -406787.64545  21611323.6724                   21611319.8754
   -162447.99647   -113979.17645  22184861.1414                   22184859.0124
   -218253.99648   -161146.10246  20023987.8914                   20023982.9924
     22301.30947     15731.60244  22338695.4774                   22338691.8674
 11  8  1 16 59 30.0000000  0  9G03G10G07G20G13G19G06G23G16
   -365793.50847   -271605.95345  20760594.7814                   20760592.4264
   -376603.83246   -262379.85943  23800083.5004                   23800083.8134
   -630333.57847   -456508.95744  22664181.1174                   22664178.7114
     32482.27046     23301.26243  24101159.3594                   24101159.1914
   -567678.98847   -420020.99246  20196985.6254                   20196982.1174
   -702372.38747   -517407.87145  21584309.2814                   21584305.3484
   -206675.93747   -148442.50444  22176444.1954                   22176442.6254
   -273496.80148   -204192.47346  20013475.5864                   20013470.5514
     29415.36747     21274.97344  22340048.8594                   22340045.6764
 11  8  1 17  0  0.0000000  0  9G03G10G07G20G13G19G06G23G16
   -439374.87547   -328942.10245  20746592.9224                   20746590.1524
   -466577.39546   -332489.15643  23782962.3984                   23782961.9064
   -768087.66047   -563849.78544  22637967.0944                   22637964.8794
     40457.43446     29515.50043  24102676.9844                   24102676.9454
   -682278.80547   -509319.57046  20175177.4924                   20175174.0474
   -844226.55147   -627943.55545  21557315.2584                   21557311.7114
   -250704.15647   -182750.19144  22168066.7814                   22168064.5274
   -328508.33648   -247058.62146  20003007.4384                   20003002.3324
     36328.39547     26661.71144  22341364.7504                   22341360.7154
 11  8  1 17  0 30.0000000  0  9G03G10G07G20G13G19G06G23G16
   -512648.14847   -386038.18045  20732649.6334                   20732647.1024
   -556369.44546   -402457.02043  23765876.0234                   23765874.7074
   -906147.65647   -671428.96944  22611695.3914                   22611692.6334
     48044.06646     35426.92643  24104120.3054                   24104120.5824
   -796707.51247   -598484.80946  20153402.3284                   20153399.3674
   -985961.93047   -738386.68045  21530344.0084                   21530340.1094
   -294525.92647   -216897.03144  22159727.3204                   22159725.4264
   -383281.25448   -289738.84046  19992584.2274                   19992579.0784
     43045.88747     31896.07044  22342643.2274                   22342639.8444
 11  8  1 17  1  0.0000000  0  9G03G10G07G20G13G19G06G23G16
   -585609.17647   -442890.95345  20718765.4144                   20718763.5394
   -645976.66446   -472280.84843  23748823.3444                   23748823.6294
  -1044510.10947   -779243.84844  22585365.4844                   22585363.3364
     55243.29346     41036.53543  24105491.0164                   24105490.8914
   -910959.35947   -687512.24246  20131660.9614                   20131657.6374
  -1127571.82847   -848732.02045  21503396.4614                   21503392.6414
   -338138.61347   -250880.94144  22151428.0234                   22151426.1604
   -437811.55148   -332230.00846  19982207.7114                   19982202.5354
     49569.35247     36979.24644  22343884.5634                   22343880.8014
 11  8  1 17  1 30.0000000  0  9G03G10G07G20G13G19G06G23G16
   -658254.96147   -499498.09045  20704941.2974                   20704939.0394
   -735396.46546   -541958.62943  23731807.2974                   23731806.6254
  -1183171.71547   -887291.83245  22558979.3754                   22558976.7894
     62055.25046     46344.33243  24106786.9694                   24106787.8014
  -1025029.57047   -776398.13746  20109954.6094                   20109950.7194
  -1269050.57447   -958975.17245  21476473.9534                   21476469.5594
   -381540.26647   -284700.40244  22143169.1564                   22143166.9454
   -492096.29348   -374529.83246  19971877.3134                   19971872.2854
     55899.28147     41911.61344  22345089.2894                   22345085.9494
 11  8  1 17  2  0.0000000  0  9G03G10G07G20G13G19G06G23G16
   -730584.94547   -555859.14845  20691177.4144                   20691175.3054
   -824628.43146   -611490.04943  23714828.5164                   23714827.1214
  -1322131.22747   -995571.94944  22532536.1564                   22532533.9064
     68478.59446     51349.30543  24108009.2734                   24108010.2274
  -1138915.22347   -865140.22746  20088282.6334                   20088278.8674
  -1410394.74647  -1069113.46545  21449576.9454                   21449572.6094
   -424731.03547   -318355.54744  22134949.8524                   22134947.9534
   -546134.89148   -416637.85246  19961594.3984                   19961589.1374
     62034.39547     46692.17644  22346257.3284                   22346253.0394
 11  8  1 17  2 30.0000000  0  9G03G10G07G20G13G19G06G23G16
   -802592.70747   -611969.12945  20677474.9774                   20677472.7704
   -913666.75446   -680870.60243  23697884.3054                   23697883.7114
  -1461381.91847  -1104078.94944  22506037.8984                   22506035.0864
     74516.74646     56054.13343  24109158.8984                   24109159.7384
  -1252607.94147   -953731.98046  20066647.5314                   20066644.1644
  -1551594.98447  -1179139.60245  21422708.3054                   21422703.4144
   -467705.88747   -351842.44544  22126772.4774                   22126770.4144
   -599921.21548   -458549.29746  19951359.6804                   19951354.3444
     67978.66847     51324.03144  22347387.7664                   22347384.5984
 11  8  1 17  3  0.0000000  0  9G03G10G07G20G13G19G06G23G16
    701144.59847    559774.19545  20963626.3594                   20963624.3444
    572911.54746    477502.02343  23980770.9384                   23980770.2544
    -25498.50047     14791.25844  22779277.0234                   22779274.5634
   1655587.57046   1288057.14142  24410026.6804                   24410027.6294
    209318.64547    185431.57046  20344842.6094                   20344839.6724
   -117223.41047    -61447.43745  21695659.2974                   21695655.6914
   1064956.16847    842439.67644  22418428.4224                   22418425.8714
    921967.32848    727337.84846  20240964.9614                   20240959.6024
   1649150.30947   1283405.78544  22648274.5704                   22648271.6804
 11  8  1 17  3 30.0000000  0  9G03G10G07G20G13G19G06G23G16
    629781.63747    504166.66445  20950046.7734                   20950044.6454
    484259.81346    408422.74643  23963901.3524                   23963900.4264
   -165330.32847    -94168.57444  22752667.8914                   22752665.4304
   1660848.70346   1292156.52743  24411028.1174                   24411029.5554
     96018.64147     97145.84046  20323282.6884                   20323279.7664
   -258126.81647   -171242.27345  21668845.8594                   21668842.3284
   1022411.01247    809287.59044  22410332.4774                   22410330.0204
    868686.26648    685820.10946  20230825.8984                   20230820.8674
   1654707.14147   1287735.72744  22649332.2584                   22649329.2934
 11  8  1 17  4  0.0000000  0  9G03G10G07G20G13G19G06G23G16
    558743.45747    448812.19945  20936528.2584                   20936526.3674
    395802.60946    339495.02743  23947068.5084                   23947067.3054
   -305449.68047   -203352.46544  22726003.8054                   22726001.8634
   1665720.08645   1295952.16043  24411955.1334                   24411955.9454
    -17079.93747      9017.06646  20301760.7114                   20301757.1914
   -398875.38747   -280916.45745  21642062.4224                   21642058.2114
    980081.32047    776303.40644  22402276.8364                   22402275.2274
    815660.22348    644501.08646  20220735.3674                   20220730.9144
   1660069.25047   1291913.96544  22650352.6724                   22650349.3634
 11  8  1 17  4 30.0000000  0  9G03G10G07G20G13G19G06G23G16
    488026.88747    393708.35945  20923071.9384                   20923069.3794
    307536.70346    270716.35243  23930273.1254                   23930270.7274
   -445859.70747   -312762.85244  22699284.5314                   22699282.0784
   1670195.98045   1299439.60543  24412807.3054                   24412808.1604
   -129978.02047    -78955.48846  20280277.3594                   20280273.8134
   -539469.48047   -390470.27045  21615308.3284                   21615304.0554
    937962.97347    743483.88744  22394262.4224                   22394260.1214
    762885.87548    603378.18846  20210692.7344                   20210687.7584
   1665231.52047   1295936.45744  22651335.2114                   22651331.6334
 11  8  1 17  5  0.0000000  0  9G03G10G07G20G13G19G06G23G16
    417632.02347    338855.19545  20909676.0944                   20909673.4844
    219461.89846    202086.59443  23913511.1564                   23913510.8284
   -586559.43747   -422399.00845  22672510.3914                   22672507.6804
   1674274.27745   1302617.28542  24413583.4774                   24413584.9384
   -242673.19947   -166769.93046  20258831.9384                   20258828.1604
   -679905.98847   -499901.28945  21588584.3984                   21588580.2304
    896055.09447    710828.36344  22386287.8834                   22386284.9414
    710363.68448    562451.77346  20200698.4844                   20200692.9924
   1670192.27047   1299801.93444  22652279.5634                   22652276.1294
 11  8  1 17  5 30.0000000  0  9G03G10G07G20G13G19G06G23G16
    347561.93447    284255.12545  20896342.4534                   20896339.7424
    131580.84046    133607.82843  23896788.9454                   23896787.6914
   -727545.47347   -532258.22345  22645681.6334                   22645679.3634
   1677955.63346   1305485.67642  24414283.3444                   24414285.9884
   -355160.30547   -254422.24246  20237426.4144                   20237422.8364
   -820178.98847   -609204.90245  21561891.2504                   21561887.2274
    854359.79347    678338.48444  22378353.1484                   22378351.2544
    658096.21148    521723.84046  20190752.2734                   20190747.0354
   1674951.91847   1303510.72344  22653184.0704                   22653181.4844
 11  8  1 17  6  0.0000000  0  9G03G10G07G20G13G19G06G23G16
    277815.10947    229906.94145  20883069.6724                   20883067.3984
     43891.88346     65278.71943  23880101.9844                   23880101.2814
   -868818.17647   -642340.82444  22618798.6724                   22618795.8674
   1681236.75046   1308042.10242  24414909.4224                   24414909.9184
   -467438.46547   -341911.72746  20216060.6414                   20216056.9454
   -960286.63347   -718379.65645  21535229.8914                   21535225.4534
    812874.87547    646012.54744  22370458.8594                   22370456.7854
    606082.51248    481193.66046  20180854.3134                   20180848.8054
   1679507.86347   1307060.77344  22654052.1484                   22654048.6214
 11  8  1 17  6 30.0000000  0 10G03G10G07G20G08G13G19G06G23G16
    208389.38747    175808.96145  20869858.1174                   20869855.9384
    -43607.81646     -2902.88343  23863451.5474                   23863450.6414
  -1010379.84847   -752648.60244  22591860.3524                   22591857.6254
   1684112.73846   1310282.92243  24415455.2584                   24415458.1524
   1329655.92215                  24665665.742
   -579508.49647   -429239.03946  20194734.2974                   20194730.6644
  -1100228.88347   -827425.53945  21508599.3284                   21508594.7464
    771596.73447    613847.72344  22362603.5004                   22362601.8674
    554319.83248    440859.07446  20171004.4064                   20170999.2114
   1683855.39547   1310448.39844  22654879.0784                   22654876.0594
 11  8  1 17  7  0.0000000  0 10G03G10G07G20G08G13G19G06G23G16
    139286.87547    121962.85945  20856708.7664                   20856706.3164
   -130916.66046    -70935.77343  23846837.1724                   23846836.1054
  -1152227.64547   -863179.30944  22564867.4454                   22564864.6884
   1686583.23845   1312207.73842  24415925.7504                   24415928.4884
   1179314.465 5                  24637057.875
   -691365.93047   -516400.68446  20173448.7734                   20173444.8674
  -1240000.66047   -936338.58645  21482001.5634                   21481997.4184
    730526.53147    581844.93844  22354788.5784                   22354786.5004
    502810.16048    400721.63346  20161202.1174                   20161197.1804
   1687994.77047   1313673.84444  22655666.8594                   22655663.8364
 11  8  1 17  7 30.0000000  0 10G03G10G07G20G08G13G19G06G23G16
     70504.06647     68365.85945  20843619.9224                   20843617.6094
   -218038.55146   -138823.01643  23830258.2274                   23830257.5704
  -1294364.18047   -973935.03544  22537819.6174                   22537817.0984
   1688643.00846   1313812.48042  24416318.1724                   24416321.3204
   1028607.879 6                  24608380.609
   -803011.75847   -603397.44546  20152203.3204                   20152199.6804
  -1379602.21947  -1045118.99645  21455436.3524                   21455432.3164
    689660.15647    550000.96544  22347011.8054                   22347009.9414
    451550.51248    360779.02046  20151447.8284                   20151442.6094
   1691921.10247   1316733.28544  22656413.8674                   22656410.8364
 11  8  1 17  8  0.0000000  0 10G03G10G07G20G08G13G19G06G23G16
      2043.50047     15019.95745  20830592.3674                   20830589.5634
   -304971.40246   -206562.90643  23813715.7584                   23813715.0824
  -1436786.34047  -1084913.31244  22510717.7814                   22510715.4574
   1690292.59446   1315097.66042  24416632.3834                   24416635.2234
    877538.902 6                  24579631.445
   -914441.48047   -690225.81646  20130998.8754                   20130995.1804
  -1519028.22347  -1153762.60945  21428904.3134                   21428900.5634
    648998.97347    518316.89144  22339274.3754                   22339272.8634
    400543.17648    321033.00846  20141741.0394                   20141736.1054
   1695634.68447   1319626.93044  22657120.4304                   22657117.1294
 11  8  1 17  8 30.0000000  0 10G03G10G07G20G08G13G19G06G23G16
    -66100.28547    -38079.09045  20817624.6954                   20817622.1644
   -391720.52046   -274159.66043  23797207.9774                   23797206.7424
  -1579498.71547  -1196117.73044  22483560.4694                   22483557.9844
   1691524.63346   1316057.41442  24416866.9224                   24416869.6294
    726102.594 6                  24550814.313
  -1025658.09047   -776888.12146  20109835.1644                   20109831.3634
  -1658280.99647  -1262271.25045  21402405.6414                   21402401.6294
    608536.70347    486787.80544  22331574.8364                   22331572.8134
    349783.14848    281479.71546  20132081.9534                   20132077.0004
   1699128.50447   1322349.34844  22657785.9144                   22657782.7624
 11  8  1 17  9  0.0000000  0 10G03G10G07G20G08G13G19G06G23G16
   -133924.05947    -90928.78145  20804718.5634                   20804715.9264
   -478283.12946   -341611.06643  23780734.8834                   23780735.3284
  -1722497.22347  -1307545.11344  22456348.5394                   22456345.8324
   1692340.16845   1316692.66042  24417023.1334                   24417024.9964
    574302.14546   1161326.18842  24521927.7424                   24521928.2384
  -1136656.16447   -863380.13346  20088712.7814                   20088709.0164
  -1797354.45347  -1370640.15645  21375940.6884                   21375936.8634
    568275.82847    455415.66044  22323913.5634                   22323911.3364
    299273.45748    242121.47746  20122470.4614                   20122465.5554
   1702404.82447   1324902.27344  22658409.1564                   22658406.4654
 11  8  1 17  9 30.0000000  0  9G03G10G07G08G13G19G06G23G16
   -201426.04747   -143527.74645  20791873.2734                   20791870.6844
   -564658.26646   -408916.40643  23764299.4224                   23764298.2664
  -1865779.58647  -1419193.69145  22429082.6804                   22429080.2664
    422139.53546   1042758.00042  24492972.3134                   24492971.8364
  -1247432.03947   -949699.01246  20067633.2034                   20067629.5474
  -1936243.96147  -1478865.73045  21349510.8674                   21349506.8954
    528216.91847    424200.89844  22316290.4064                   22316288.3834
    249015.41048    202959.32046  20112906.4304                   20112901.6414
   1705462.58247   1327284.89544  22658991.2664                   22658987.9224
 11  8  1 17 10  0.0000000  0  9G03G10G07G08G13G19G06G23G16
   -268603.77347   -195874.03145  20779090.0234                   20779087.3404
   -650843.62546   -476073.85243  23747897.5704                   23747897.3754
  -2009342.31247  -1531060.71544  22401763.9774                   22401761.0234
    269617.52346    923909.75042  24463949.0474                   24463948.1094
  -1357981.06647  -1035841.12146  20046596.1644                   20046592.5044
  -2074943.96147  -1586943.63345  21323117.2194                   21323112.9844
    488361.42647    393144.63344  22308705.9384                   22308704.4774
    199011.92648    163995.53146  20103391.3984                   20103386.3284
   1708302.83247   1329498.02344  22659531.4534                   22659528.6684
 11  8  1 17 10 30.0000000  0  9G03G10G07G08G13G19G06G23G16
   -335457.51247   -247967.86745  20766367.5394                   20766365.5904
   -736839.75846   -543083.85943  23731534.4384                   23731533.1524
  -2153184.61347  -1643145.60945  22374391.7034                   22374388.8324
    116736.25046    804781.48843  24434856.0394                   24434855.7934
  -1468300.93447  -1121804.66446  20025602.9844                   20025599.5984
  -2213451.55947  -1694871.60545  21296760.0314                   21296756.1914
    448708.42247    362246.15644  22301160.2734                   22301158.4694
    149262.89548    125230.01646  20093924.2274                   20093919.6374
   1710924.24647   1331540.62944  22660030.4614                   22660027.3714
 11  8  1 17 11  0.0000000  0  9G03G10G07G08G13G19G06G23G16
   -401985.61747   -299807.96545  20753708.0784                   20753705.1644
   -822645.24246   -609945.30543  23715205.4844                   23715205.1684
  -2297303.85947  -1755446.30944  22346966.0704                   22346963.7034
    -36502.38346    685374.85243  24405696.0084                   24405695.0234
  -1578387.82047  -1207586.66046  20004654.1804                   20004650.5004
  -2351761.95347  -1802645.91845  21270440.3134                   21270435.9574
    409258.81347    331506.16844  22293653.3914                   22293651.2934
     99769.85548     86663.97746  20084506.3754                   20084501.2384
   1713326.70747   1333412.62144  22660487.8914                   22660484.7704
 11  8  1 17 11 30.0000000  0  9G03G10G07G08G13G19G06G23G16
   -468183.88347   -351391.03945  20741110.9924                   20741108.6054
   -908256.30546   -676655.26243  23698913.9224                   23698913.6684
  -2441695.30147  -1867959.10545  22319490.0164                   22319487.1414
   -190094.13346    565693.00043  24376467.5784                   24376467.6174
  -1688235.49647  -1293182.26246  19983750.7344                   19983747.2304
  -2489868.33647  -1910261.26645  21244160.1094                   21244155.1414
    370015.50847    300926.95344  22286185.3594                   22286183.8834
     50537.15248     48300.79746  20075137.9384                   20075132.5274
   1715512.71147   1335115.95344  22660903.6414                   22660900.7384
 11  8  1 17 12  0.0000000  0  9G03G10G07G08G13G19G06G23G16
   -534058.84047   -402722.18745  20728575.0944                   20728572.5044
   -993679.49246   -743218.83243  23682658.5314                   23682657.9024
  -2586364.12147  -1980688.04345  22291960.5784                   22291957.5554
   -344044.34446    445731.87543  24347172.6564                   24347172.4884
  -1797847.89147  -1378594.52746  19962892.4064                   19962888.3164
  -2627774.07447  -2017720.26245  21217917.1414                   21217912.5864
    330971.71147    270503.16844  22278755.8524                   22278754.0004
      1558.43048     10135.52346  20065817.0004                   20065812.3364
   1717474.61347   1336644.64544  22661277.2894                   22661274.0554
 11  8  1 17 12 30.0000000  0  9G03G10G07G08G13G19G06G23G16
    975804.79747    773794.91445  21015892.6484                   21015890.3634
    496500.47346    417960.32043  23966230.7274                   23966230.4454
  -1155891.28147   -866033.84845  22564170.2734                   22564167.5084
   1077065.23846   1553090.04743  24617600.6644                   24617600.0984
   -331806.32047   -236224.46946  20241871.3364                   20241867.3054
  -1190058.32847   -897422.24245  21491504.8524                   21491501.1374
   1867540.62547   1467829.56344  22571155.0164                   22571153.4574
   1528248.29348   1199763.95346  20356337.0704                   20356331.7234
   3294623.74247   2565591.97344  22961398.5084                   22961395.4304
 11  8  1 17 13  0.0000000  0  9G03G10G07G08G13G19G06G23G16
    910558.59047    722953.69545  21003476.7814                   21003474.4494
    411433.87546    351674.64843  23950042.9224                   23950042.1134
  -1301129.43047   -979206.41844  22536531.9694                   22536529.2584
    922380.90246   1432556.89143  24588165.2114                   24588164.5124
   -440959.49647   -321278.90246  20221099.3914                   20221095.9144
  -1327571.10947  -1004575.04745  21465337.0864                   21465333.2074
   1828874.77047   1437700.30944  22563797.5314                   22563795.4734
   1479759.46548   1161980.41046  20347109.5234                   20347104.3094
   3296115.14147   2566754.05544  22961682.9384                   22961679.6764
 11  8  1 17 13 30.0000000  0  9G03G10G07G08G13G19G06G23G16
    845618.31347    672350.86345  20991119.2974                   20991117.0634
    326536.80146    285521.04743  23933887.5944                   23933887.2704
  -1446658.84047  -1092605.93045  22508839.1174                   22508836.1684
    767321.80946   1311731.63343  24558658.0864                   24558657.8914
   -549888.07047   -406158.31246  20200371.0314                   20200367.5044
  -1464891.37947  -1111577.83245  21439206.7664                   21439201.6844
   1790388.23847   1407710.77744  22556473.9534                   22556472.1484
   1431507.48048   1124381.42246  20337927.6954                   20337922.7974
   3297360.62947   2567724.50444  22961919.9614                   22961916.5904
 11  8  1 17 14  0.0000000  0  9G03G10G07G08G13G19G06G23G16
    780980.91447    621984.04345  20978819.2664                   20978816.7894
    241805.64546    219496.74243  23917764.0554                   23917763.4574
  -1592481.92647  -1206234.28945  22481089.3524                   22481087.2344
    611885.25846   1190612.32043  24529079.1254                   24529078.9224
   -658592.78947   -490863.28546  20179685.2894                   20179681.3874
  -1602019.21547  -1218430.66045  21413111.6334                   21413107.3914
   1752077.25047   1377858.02044  22549182.9924                   22549181.6564
   1383489.07448   1086964.44946  20328790.1954                   20328785.1294
   3298355.86347   2568499.96944  22962109.7584                   22962105.6094
 11  8  1 17 14 30.0000000  0  9G03G10G07G08G13G19G06G23G16
    716646.57047    571853.37145  20966577.4144                   20966574.1844
    157240.21146    153601.59043  23901671.3754                   23901670.8164
  -1738597.24647  -1320090.37145  22453284.6414                   22453281.9534
    456071.88746   1069199.38343  24499429.0474                   24499428.9574
   -767071.43747   -575392.10546  20159042.2504                   20159038.9344
  -1738951.45747  -1325131.09445  21387053.7034                   21387050.3364
   1713940.75847   1348141.24244  22541926.1414                   22541924.0044
   1335704.31648   1049729.53146  20319697.0634                   20319692.1134
   3299099.74647   2569079.56644  22962250.3594                   22962247.1684
 11  8  1 17 15  0.0000000  0  9G03G10G07G08G13G19G06G23G16
    652614.87147    521958.51645  20954391.5634                   20954389.5824
     72840.21546     87835.26643  23885611.1094                   23885610.0044
  -1885003.68747  -1434173.30544  22425424.4694                   22425421.7504
    299882.19546    947493.14843  24469707.0084                   24469707.0124
   -875321.91047   -659743.12546  20138443.1174                   20138439.4804
  -1875685.12947  -1431676.78945  21361035.0944                   21361030.5474
   1675977.93447   1318559.77344  22534702.2034                   22534699.8134
   1288153.17648   1012676.65646  20310648.3364                   20310643.1094
   3299590.65647   2569462.02744  22962344.2274                   22962340.7504
 11  8  1 17 15 30.0000000  0  9G03G10G07G08G13G19G06G23G16
    588885.08247    472298.94545  20942264.4064                   20942262.2344
    -11395.56646     22196.97343  23869581.3134                   23869581.0434
  -2031700.72747  -1548482.66844  22397508.8984                   22397506.1644
    143316.05146    825493.63343  24439913.5944                   24439913.0314
   -983342.59047   -743915.08646  20117887.5084                   20117883.6094
  -2012218.07847  -1538066.07845  21335053.2114                   21335048.6914
   1638187.07447   1289112.34044  22527510.3524                   22527509.1414
   1240834.95748    975805.27346  20301643.7114                   20301638.9224
   3299826.70347   2569645.90244  22962388.6414                   22962385.9454
 11  8  1 17 16  0.0000000  0  9G03G10G07G08G13G19G06G23G16
    525460.96147    422877.56345  20930195.4774                   20930192.9804
    -95463.61746    -43310.64143  23853583.9454                   23853583.6524
  -2178683.50047  -1663014.70744  22369539.5864                   22369535.9774
    -13622.19146    703204.13743  24410049.0004                   24410048.6564
  -1091127.60547   -827903.40646  20097376.7114                   20097373.3714
  -2148543.70747  -1644293.80145  21309111.1954                   21309106.8484
   1600571.16447   1259801.21544  22520353.3834                   22520351.3834
   1193753.41448    939118.32446  20292684.6954                   20292679.9844
   3299810.12546   2569632.94144  22962386.1024                   22962382.6334
 11  8  1 17 16 30.0000000  0  9G03G10G07G08G13G19G06G23G16
    462337.39847    373690.35545  20918183.4064                   20918181.1334
   -179369.51646   -108691.94143  23837617.0634                   23837616.1294
  -2325955.91847  -1777772.43745  22341514.3754                   22341511.2074
   -170937.04746    580621.23043  24380112.8984                   24380112.5434
  -1198679.81647   -911710.32446  20076910.4454                   20076906.2774
  -2284663.67247  -1750361.28145  21283208.8134                   21283204.4774
   1563124.13347   1230621.69544  22513227.0864                   22513224.9454
   1146903.37548    902611.76246  20283769.4224                   20283764.3404
   3299534.88747   2569418.40244  22962333.4534                   22962330.4144
 11  8  1 17 17  0.0000000  0  9G03G10G07G08G13G19G06G23G16
    399511.61347    324735.19945  20906227.6954                   20906225.3524
   -263116.10246   -173949.04743  23821681.0234                   23821679.9924
  -2473519.04747  -1892756.66045  22313433.2734                   22313430.9064
   -328630.29746    457743.44943  24350105.0704                   24350104.1644
  -1305999.26647   -995335.87546  20056487.7734                   20056484.2114
  -2420577.49647  -1856268.12945  21257345.0004                   21257340.8244
   1525842.77047   1201571.26244  22506132.5944                   22506130.1564
   1100282.63348    866283.87946  20274898.3204                   20274892.6994
   3298997.33247   2568999.49244  22962230.7194                   22962228.2704
 11  8  1 17 17 30.0000000  0  9G03G10G07G08G13G19G06G23G16
    336987.08647    276014.78145  20894329.5704                   20894327.6724
   -346699.94146   -239079.35543  23805775.0164                   23805774.3954
  -2621368.05147  -2007963.66445  22285298.6954                   22285295.8714
   -486697.88346    334573.99243  24320025.0634                   24320024.8524
  -1413080.06647  -1078775.46546  20036111.2344                   20036107.4024
  -2556278.73447  -1962009.32845  21231521.6954                   21231517.5554
   1488729.73047   1172651.98844  22499070.7034                   22499068.1094
   1053894.68048    830137.37946  20266070.4924                   20266065.3914
   3298199.85246   2568377.99244  22962079.5554                   22962076.3524
 11  8  1 17 18  0.0000000  0  9G03G10G07G08G13G19G06G23G16
    274764.79747    227529.87945  20882489.2664                   20882487.2234
   -430120.24246   -304082.24243  23789901.1254                   23789900.1414
  -2769500.49247  -2123391.53144  22257110.3524                   22257107.5354
   -645137.63746    211114.48843  24289875.3284                   24289875.4224
  -1519919.27047  -1162026.79346  20015780.0234                   20015776.3204
  -2691763.43047  -2067581.78545  21205740.1254                   21205735.8834
   1451785.18047   1143864.00444  22492039.8364                   22492038.1524
   1007740.22748    794172.84045  20257287.8754                   20257282.6334
   3297142.34046   2567553.91444  22961878.3984                   22961874.9734
 11  8  1 17 18 30.0000000  0  9G03G10G07G08G13G19G06G23G16
    212841.86747    179278.23045  20870705.7344                   20870703.6414
   -513380.39546   -368960.32843  23774057.2034                   23774056.8634
  -2917917.81247  -2239041.36745  22228867.4694                   22228864.1174
   -803951.71146     87363.37543  24259653.9694                   24259653.8204
  -1626517.45747  -1245090.32046  19995495.0474                   19995491.6884
  -2827031.31247  -2172985.30145  21179999.3444                   21179994.8204
   1415005.39847   1115204.41444  22485041.4614                   22485039.3324
    961816.46948    758388.06346  20248548.9224                   20248543.8324
   3295820.84446   2566524.11344  22961626.7894                   22961623.7274
 11  8  1 17 19  0.0000000  0  9G03G10G07G08G13G19G06G23G16
    151224.94547    131265.04345  20858980.3754                   20858977.8954
   -596473.64846   -433708.34843  23758244.9454                   23758244.2304
  -3066611.58647  -2354906.63345  22200572.4774                   22200568.7974
   -963132.64846    -36673.64143  24229363.0474                   24229362.5704
  -1732865.19547  -1327958.68746  19975258.3594                   19975254.3054
  -2962072.32847  -2278212.03545  21154302.1804                   21154297.6454
   1378396.67247   1086678.12944  22478074.4774                   22478072.8014
    916130.71148    722788.72745  20239855.5314                   20239850.1094
   3294241.40646   2565293.34844  22961326.7504                   22961323.4924
 11  8  1 17 19 30.0000000  0  9G03G10G07G08G13G19G06G23G16
     89916.98047     83492.57845  20847314.1024                   20847311.0204
   -679397.54746   -498324.44143  23742465.2974                   23742464.5124
  -3215577.69547  -2470984.10245  22172225.1334                   22172221.5944
  -1122676.64846   -160993.58243  24199002.7734                   24199001.9024
  -1838957.27747  -1410627.85546  19955069.2114                   19955065.4494
  -3096880.63347  -2383257.43745  21128648.5704                   21128643.8874
   1341960.90247   1058286.58244  22471141.7424                   22471139.3244
    870685.66848    687376.96946  20231207.3284                   20231201.9184
   3292405.57846   2563862.76644  22960976.8594                   22960973.6954
 11  8  1 17 20  0.0000000  0  9G03G10G07G08G13G19G06G23G16
     28916.54347     35959.75045  20835706.3364                   20835703.2464
   -762153.77346   -562809.84043  23726716.7274                   23726716.3794
  -3364815.99247  -2587273.66445  22143825.9694                   22143822.4734
  -1282584.24646   -285596.79743  24168571.7814                   24168572.4964
  -1944793.03947  -1493097.29346  19934929.7424                   19934925.6174
  -3231454.75447  -2488120.35945  21103039.7584                   21103035.6454
   1305695.98847   1030028.19544  22464239.7034                   22464238.3754
    825480.09048    652151.80946  20222605.0004                   20222600.0514
   3290311.14146   2562230.70343  22960578.1254                   22960575.2704
 11  8  1 17 20 30.0000000  0  9G03G10G07G08G13G19G06G23G16
    -31778.69547    -11335.25045  20824156.3674                   20824153.6914
   -844744.89146   -627166.60943  23711000.3204                   23710999.7154
  -3514327.12947  -2703775.84045  22115374.9844                   22115371.1524
  -1442856.91846   -410484.51242  24138073.7114                   24138073.5634
  -2050372.28947  -1575366.84446  19914838.6334                   19914834.4804
  -3365793.56247  -2592799.92245  21077476.1804                   21077471.7464
   1269598.70347   1001900.42244  22457371.3524                   22457369.4264
    780511.41448    617111.25445  20214047.9694                   20214042.4654
   3287955.00446   2560394.70343  22960130.3674                   22960126.8634
 11  8  1 17 21  0.0000000  0  9G03G10G07G08G13G19G06G23G16
   1483261.67247   1169215.66045  21112458.8914                   21112455.8674
    648260.20746    536213.92243  23995109.7274                   23995109.5704
  -2088675.59047  -1592878.50445  22386666.7584                   22386664.1134
    -28059.75846    691954.84842  24407301.1024                   24407300.3984
   -580260.75847   -429825.39846  20194591.6414                   20194587.1884
  -1924461.26247  -1469683.82045  21351752.4144                   21351748.2274
   2809098.14547   2201510.34444  22750328.2734                   22750326.0314
   2311209.83648   1809863.23445  20505329.7974                   20505325.0634
   4860764.94946   3785960.84843  23259425.5474                   23259422.7664
 11  8  1 17 21 30.0000000  0  9G03G10G07G08G13G19G06G23G16
   1423195.75847   1122411.04345  21101028.3204                   21101025.7974
    566018.03546    472129.09443  23979460.0474                   23979459.8244
  -2238708.25447  -1709787.05145  22358116.7274                   22358113.8984
   -189039.91046    566515.83643  24376667.2974                   24376666.8594
   -685300.68047   -511674.69146  20174603.2274                   20174599.0634
  -2058301.12947  -1573974.59445  21326283.5234                   21326279.3324
   2773353.49647   2173657.34844  22743526.0164                   22743524.4024
   2266734.81348   1775207.33245  20496866.8284                   20496861.7344
   4857902.36746   3783730.21543  23258881.3984                   23258877.9104
 11  8  1 17 22  0.0000000  0  9G03G10G07G08G13G19G06G23G16
   1363444.83647   1075851.85545  21089658.7194                   21089655.8404
    483950.55546    408180.34443  23963843.1414                   23963842.5204
  -2388998.33247  -1826896.19145  22329517.8364                   22329514.3794
   -350371.69545    440802.79743  24345966.6564                   24345966.5044
   -790067.05547   -593310.84045  20154666.8134                   20154662.8054
  -2191885.94547  -1678066.63345  21300863.9064                   21300858.9884
   2737784.96546   2145941.57444  22736758.0784                   22736755.5434
   2222507.51247   1740744.46945  20488450.4534                   20488445.2114
   4854785.93846   3781301.80143  23258288.8834                   23258285.2194
 11  8  1 17 22 30.0000000  0  9G03G10G07G08G13G19G06G23G16
   1304014.84847   1029542.75445  21078348.7814                   21078346.9184
    402063.16046    344371.94943  23948259.8134                   23948260.4734
  -2539538.48847  -1944200.19945  22300870.4924                   22300867.5234
   -512048.51246    314820.95343  24315200.7504                   24315200.2584
   -894551.96547   -674727.66446  20134783.8284                   20134780.0514
  -2325207.43047  -1781953.48845  21275493.1334                   21275488.5084
   2702397.26647   2118366.72744  22730023.5164                   22730021.2424
   2178533.50448   1706478.97746  20480082.4844                   20480077.3594
   4851420.66446   3778679.46143  23257647.9454                   23257644.7704
 11  8  1 17 23  0.0000000  0  9G03G10G07G08G13G19G06G23G16
   1244906.18847    983484.02745  21067101.2344                   21067098.2774
    320356.96946    280704.72743  23932712.7194                   23932712.2304
  -2690326.15247  -2061697.06245  22272176.6414                   22272173.2464
   -674068.30946    188571.80943  24284369.7814                   24284368.5634
   -998751.69147   -755922.27046  20114955.3984                   20114951.6134
  -2458261.25447  -1885631.78145  21250173.8284                   21250169.2664
   2667190.58647   2090932.91044  22723323.7114                   22723321.9534
   2134813.84048   1672411.66046  20471763.0554                   20471758.0554
   4847806.44546   3775863.16043  23256960.0634                   23256956.9184
 11  8  1 17 23 30.0000000  0  9G03G10G07G08G13G19G06G23G16
   1186120.03147    937676.60945  21055915.0314                   21055912.1334
    238831.85246    217178.61343  23917199.7814                   23917198.2774
  -2841358.77047  -2179384.78945  22243435.9614                   22243432.8444
   -836428.99646     62056.99643  24253473.4064                   24253472.0594
  -1102663.21547   -836892.30146  20095181.5234                   20095178.2464
  -2591043.72747  -1989098.62545  21224906.1254                   21224901.4734
   2632164.93447   2063640.18444  22716659.1254                   22716656.9614
   2091349.27348   1638543.13745  20463492.3364                   20463486.9454
   4843943.48846   3772853.01643  23256225.4384                   23256222.3714
 11  8  1 17 24  0.0000000  0  9G03G10G07G08G13G19G06G23G16
   1127659.21547    892122.71545  21044789.4844                   21044787.1644
    157490.87946    153795.98443  23901719.9774                   23901719.2304
  -2992631.59447  -2297259.69945  22214649.6094                   22214646.8674
   -999126.33646    -64720.09043  24222513.7424                   24222512.4224
  -1206281.35547   -917633.72346  20075463.9224                   20075460.0234
  -2723548.70747  -2092349.25445  21199691.1414                   21199686.6484
   2597322.75447   2036490.40244  22710029.4454                   22710027.0864
   2048142.93448   1604875.82446  20455270.2034                   20455265.2974
   4839834.46546   3769651.14543  23255443.3364                   23255440.1564
 11  8  1 17 24 30.0000000  0  9G03G10G07G08G13G19G06G23G16
   1069527.14847    846824.98445  21033727.8204                   21033725.1604
     76337.05946     90559.19543  23886276.8444                   23886276.0944
  -3144139.52047  -2415317.81245  22185818.8134                   22185815.5234
  -1162156.07046   -191756.19143  24191489.8204                   24191488.9534
  -1309600.49247   -998142.15246  20055802.9384                   20055798.9104
  -2855769.79747  -2195378.67245  21174530.7274                   21174525.5274
   2562666.62947   2009485.60944  22703434.2974                   22703432.4104
   2005198.09848   1571412.27045  20447098.1414                   20447093.2544
   4835481.78546   3766259.40243  23254614.4224                   23254612.0634
 11  8  1 17 25  0.0000000  0  9G03G10G07G08G13G19G06G23G16
   1011720.92247    801781.16445  21022727.6804                   21022725.1454
     -4632.35946     27466.07043  23870868.8594                   23870868.4104
  -3295883.12147  -2533559.56245  22156943.1644                   22156939.6094
  -1325519.82446   -319052.58643  24160402.4454                   24160401.2894
  -1412620.96147  -1078417.85946  20036198.6414                   20036194.8524
  -2987706.36347  -2298186.37945  21149423.4384                   21149419.0664
   2528193.32847   1982623.27344  22696874.0944                   22696872.0864
   1962512.35948   1538150.62545  20438974.9614                   20438969.9494
   4830882.29746   3762675.34443  23253739.7504                   23253736.6804
 11  8  1 17 25 30.0000000  0  9G03G10G07G08G13G19G06G23G16
    954244.91447    756994.66445  21011790.6484                   21011787.4964
    -85412.80946    -35479.77743  23855496.7814                   23855496.7154
  -3447855.61747  -2651979.66445  22128023.1254                   22128020.7814
  -1489211.52046   -446604.51643  24129252.8754                   24129252.0594
  -1515335.55147  -1158455.21946  20016652.2974                   20016648.8914
  -3119350.77047  -2400766.42245  21124373.0234                   21124368.2344
   2493906.93847   1955906.55944  22690349.3364                   22690347.5354
   1920090.57048   1505094.64845  20430902.7344                   20430897.7074
   4826040.44546   3758902.40643  23252818.6564                   23252814.7424
 11  8  1 17 26  0.0000000  0  9G03G10G07G08G13G19G06G23G16
    897101.22747    712467.11745  21000916.1024                   21000913.4344
   -166002.36746    -98276.87943  23840161.4384                   23840160.8244
  -3600053.49247  -2770575.39545  22099061.2734                   22099057.8444
  -1653227.53946   -574409.13743  24098042.2504                   24098041.1024
  -1617739.94547  -1238250.86746  19997165.8594                   19997162.3794
  -3250697.70347  -2503114.68045  21099378.0864                   21099373.7344
   2459808.72347   1929336.52344  22683861.2424                   22683858.9804
   1877934.79348   1472245.96146  20422880.9694                   20422875.4734
   4820957.55946   3754941.67643  23251851.3134                   23251848.4104
 11  8  1 17 26 30.0000000  0  9G03G10G07G08G13G19G06G23G16
    840285.68847    668195.26645  20990104.4454                   20990102.0984
   -246405.71546   -160928.91043  23824861.1094                   23824860.9414
  -3752478.75847  -2889348.30545  22070055.5004                   22070052.5314
  -1817570.81646   -702468.82843  24066768.1414                   24066767.0204
  -1719835.99647  -1317806.25046  19977737.2584                   19977733.8914
  -3381748.16447  -2605231.91045  21074440.0084                   21074435.8204
   2425893.73047   1902909.23044  22677406.7664                   22677404.8364
   1836040.76248   1439601.22746  20414908.4534                   20414903.5434
   4815628.66846   3750789.26243  23250837.1804                   23250834.3874
 11  8  1 17 27  0.0000000  0  9G03G10G07G08G13G19G06G23G16
    783800.28147    624180.65645  20979355.7584                   20979353.2464
   -326620.94146   -223434.32043  23809596.9774                   23809596.6254
  -3905126.87947  -3008294.88745  22041007.6804                   22041004.4064
  -1982237.83646   -830780.69943  24035432.0234                   24035431.6414
  -1821619.09047  -1397117.76246  19958369.0704                   19958365.3754
  -3512497.27747  -2707114.32445  21049558.9694                   21049554.8524
   2392163.76547   1876626.11144  22670988.5864                   22670986.3984
   1794410.85548   1407162.29745  20406986.8444                   20406981.6564
   4810055.90246   3746446.78143  23249776.9924                   23249773.7074
 11  8  1 17 27 30.0000000  0  9G03G10G07G08G13G19G06G23G16
    727644.68047    580423.04345  20968669.4304                   20968666.9614
   -406648.48046   -285793.50043  23794367.7114                   23794367.6914
  -4057996.92647  -3127414.38345  22011917.1254                   22011913.9654
  -2147228.07846   -959344.46943  24004036.6414                   24004035.9734
  -1923087.67647  -1476184.20746  19939060.1334                   19939056.1094
  -3642942.53947  -2808759.96945  21024736.8524                   21024731.6414
   2358617.46547   1850486.11744  22664605.0164                   22664602.9414
   1753044.49648   1374928.73045  20399114.6884                   20399110.2464
   4804238.46946   3741913.68043  23248669.9224                   23248667.0594
 11  8  1 17 28  0.0000000  0  9G03G10G07G08G13G19G06G23G16
    671814.21947    536918.77745  20958045.5314                   20958043.1414
   -486493.03946   -348010.07843  23779175.0394                   23779174.0594
  -4211090.72347  -3246708.23445  21982784.8204                   21982781.5004
  -2312544.25446  -1088162.19143  23972577.5864                   23972576.4384
  -2024243.42247  -1555006.87546  19919811.3134                   19919806.9384
  -3773084.62147  -2910169.36745  20999970.8444                   20999966.2304
   2325250.16447   1824485.57844  22658255.0634                   22658253.3954
   1711937.57847   1342897.32845  20391292.3364                   20391287.9224
   4798171.55546   3737186.16043  23247514.8444                   23247512.2584
 11  8  1 17 28 30.0000000  0  9G03G10G07G08G13G19G06G23G16
    616310.84847    493669.38345  20947483.1174                   20947480.9574
   -566152.68046   -410082.60243  23764015.9534                   23764015.2974
  -4364404.34847  -3366173.37545  21953609.5164                   21953606.5124
  -2478183.01646  -1217231.30543  23941057.8054                   23941056.4184
  -2125082.46147  -1633582.75446  19900621.8204                   19900617.7384
  -3902918.86347  -3011338.88745  20975264.3444                   20975260.0004
   2292062.82847   1798625.29744  22651940.4064                   22651937.7344
   1671091.98848   1311069.56646  20383520.0004                   20383515.3484
   4791856.54746   3732265.32043  23246313.9144                   23246310.7814
 11  8  1 17 29  0.0000000  0  9G03G10G07G08G13G19G06G23G16
    561135.00847    450675.20745  20936984.0634                   20936981.6174
   -645626.87146   -472010.59843  23748892.0234                   23748891.7624
  -4517934.73847  -3485807.44145  21924393.6804                   21924390.8054
  -2644141.78146  -1346549.76643  23909476.2194                   23909475.5784
  -2225601.52347  -1711909.31246  19881493.7194                   19881489.6254
  -4032441.36747  -3112265.48845  20950617.2814                   20950613.0234
   2259055.91847   1772905.58644  22645658.7194                   22645656.8554
   1630508.64548   1279446.14845  20375797.2894                   20375792.4184
   4785293.96546   3727151.55943  23245064.8524                   23245062.1254
 11  8  1 17 29 30.0000000  0  9G03G10G07G08G13G19G06G23G16
   2081698.99647   1635530.25445  21226337.5944                   21226334.9454
    850496.90246    693800.06643  24033595.5554                   24033594.7734
  -3096264.84847  -2378012.69145  22194929.0474                   22194925.7234
  -1235003.86346   -248520.13343  24177627.5234                   24177625.7154
   -750384.44147   -562389.51646  20162217.8134                   20162214.2344
  -2586234.66447  -1985351.14845  21225821.0634                   21225816.8014
   3801640.11746   2974919.21544  22939202.8594                   22939200.5434
   3165599.19548   2475620.56345  20667915.1414                   20667910.2424
   6353894.09046   4949437.29743  23543559.7734                   23543556.5274
 11  8  1 17 30  0.0000000  0  9G03G10G07G08G13G19G06G23G16
   2027163.52747   1593035.05945  21215960.5634                   21215957.6334
    771377.59446    632148.62543  24018539.1174                   24018538.8874
  -3250237.99247  -2497991.74645  22165628.7734                   22165625.5664
  -1401614.00446   -378346.18743  24145921.7504                   24145920.3404
   -850271.43047   -640223.54346  20143210.4384                   20143206.4414
  -2715139.66047  -2085796.57045  21201291.4614                   21201286.8014
   3768976.76246   2949467.22744  22932987.2274                   22932984.9264
   3125525.50447   2444394.27045  20660289.8284                   20660284.7304
   6346820.78146   4943925.56343  23542214.0004                   23542211.1524
 11  8  1 17 30 30.0000000  0  9G03G10G07G08G13G19G06G23G16
   1972952.14847   1550792.40245  21205644.1414                   21205641.0744
    692439.71546    570638.51643  24003518.6414                   24003517.8204
  -3404424.97747  -2618137.45345  22136288.1884                   22136284.5704
  -1568543.44546   -508421.03543  24114155.7274                   24114154.9654
   -949835.00447   -717805.55546  20124263.7734                   20124260.4454
  -2843726.88747  -2185994.39145  21176821.5164                   21176817.2704
   3736488.50447   2924151.68044  22926805.3594                   22926803.0704
   3085710.85947   2413369.83645  20652713.3054                   20652708.3524
   6339495.78146   4938217.69543  23540819.9924                   23540817.6024
 11  8  1 17 31  0.0000000  0  9G03G10G07G08G13G19G06G23G16
   1919061.94547   1508800.02745  21195389.0864                   21195386.3954
    613680.28946    509267.45743  23988530.3524                   23988529.8364
  -3558826.34047  -2738450.18445  22106906.0084                   22106902.9734
  -1735793.35946   -638745.58243  24082328.9694                   24082328.2974
  -1049075.19547   -795135.58646  20105379.6094                   20105375.5824
  -2971996.34047  -2285944.58245  21152412.9614                   21152408.6254
   3704172.00047   2898969.95744  22920655.4774                   22920653.7274
   3046152.35947   2382544.98845  20645185.1884                   20645180.3484
   6331916.02346   4932311.30543  23539377.4694                   23539375.1524
 11  8  1 17 31 30.0000000  0  9G03G10G07G08G13G19G06G23G16
   1865482.30547   1467049.63745  21185192.6024                   21185190.3794
    535088.94146    448027.42643  23973575.6804                   23973574.6564
  -3713449.93047  -2858936.08245  22077482.3984                   22077479.0784
  -1903372.26646   -769326.51243  24050439.9774                   24050439.1294
  -1148000.53947   -872220.28146  20086554.1884                   20086550.0704
  -3099955.20747  -2385652.75845  21128063.2424                   21128058.6994
   3672016.53547   2873913.73444  22914536.4454                   22914534.8364
   3006839.98848   2351911.93846  20637704.5784                   20637699.6174
   6324071.19146   4926198.40643  23537884.7584                   23537882.1024
 11  8  1 17 32  0.0000000  0  9G03G10G07G08G13G19G06G23G16
   1812212.55947   1425540.72745  21175056.2974                   21175053.9024
    456664.30146    386917.25843  23958651.3364                   23958650.9804
  -3868294.35247  -2979594.04745  22048016.2034                   22048012.9454
  -2071279.48046   -900163.25443  24018488.9304                   24018487.6644
  -1246609.19147   -949058.20746  20067789.7034                   20067785.7704
  -3227601.48047  -2485117.35545  21103773.2814                   21103768.3674
   3640020.55147   2848981.77344  22908448.0234                   22908445.9774
   2967773.29348   2321470.31645  20630270.7274                   20630265.6094
   6315960.40246   4919878.24243  23536341.6094                   23536338.3364
 11  8  1 17 32 30.0000000  0  9G03G10G07G08G13G19G06G23G16
   1759254.47747   1384274.66845  21164979.2194                   21164975.8164
    378408.80946    325938.85543  23943759.9614                   23943759.5004
  -4023354.87147  -3100420.41845  22018509.1564                   22018506.4264
  -2239510.90646  -1031252.62543  23986474.6334                   23986474.2734
  -1344896.55947  -1025645.77746  20049086.3444                   20049082.3834
  -3354929.42647  -2584333.91045  21079543.1884                   21079538.4024
   3608185.99647   2824175.61744  22902390.1644                   22902387.6884
   2928954.03147   2291221.50445  20622883.4774                   20622878.4454
   6307586.23446   4913352.86343  23534747.4774                   23534744.9964
 11  8  1 17 33  0.0000000  0  9G03G10G07G08G13G19G06G23G16
   1706597.14547   1343242.95745  21154957.9774                   21154955.5824
    300311.29346    265083.60543  23928898.5004                   23928898.3754
  -4178640.69547  -3221422.32845  21988959.7274                   21988955.8874
  -2408076.19146  -1162602.12543  23954397.7034                   23954396.3634
  -1442871.93447  -1101990.24246  20030442.2424                   20030438.6094
  -3481947.34847  -2683308.87945  21055372.7194                   21055368.1884
   3576500.86747   2799485.88744  22896360.2344                   22896358.3754
   2890371.19947   2261156.91845  20615540.7894                   20615536.6484
   6298936.68446   4906612.91443  23533101.5314                   23533099.2814
 11  8  1 17 33 30.0000000  0  9G03G10G07G08G13G19G06G23G16
   1654238.43447   1302443.95345  21144994.1954                   21144992.0864
    222369.21946    204349.46543  23914066.4064                   23914066.7234
  -4334151.20747  -3342599.33645  21959366.8054                   21959363.5554
  -2576975.55546  -1294211.98843  23922257.2274                   23922256.4924
  -1540534.98447  -1178091.33646  20011857.5704                   20011853.7974
  -3608654.37947  -2782041.60546  21031260.4924                   21031256.3364
   3544962.60247   2774910.59044  22890359.2504                   22890357.0944
   2852023.09447   2231275.23045  20608243.6484                   20608239.1294
   6290009.96146   4899656.94543  23531403.6954                   23531400.4804
 11  8  1 17 34  0.0000000  0  9G03G10G07G08G13G19G06G23G16
   1602182.35947   1261880.77045  21135088.6174                   21135086.2304
    144586.52746    143739.50443  23899265.1884                   23899265.0744
  -4489879.97347  -3463946.41445  21929732.4454                   21929729.4494
  -2746203.55546  -1426077.89543  23890054.5784                   23890053.6484
  -1637879.28947  -1253944.05546  19993333.8754                   19993329.8674
  -3735043.64847  -2880526.73445  21007210.0474                   21007205.8164
   3513574.72347   2750452.49644  22884385.5394                   22884384.4344
   2813913.43447   2201579.35245  20600992.1334                   20600987.0474
   6280810.34846   4892488.36743  23529652.6414                   23529649.6414
 11  8  1 17 34 30.0000000  0  9G03G10G07G08G13G19G06G23G16
   1550431.33247   1221555.26645  21125241.0704                   21125238.9304
     66965.99246     83255.89543  23884493.9384                   23884493.8834
  -4645821.45347  -3585459.23845  21900058.0234                   21900054.9454
  -2915755.17246  -1558195.99243  23857789.7504                   23857788.6724
  -1734899.38347  -1329544.13746  19974871.1564                   19974867.4144
  -3861108.58247  -2978759.13345  20983220.1884                   20983215.9264
   3482339.77347   2726113.54344  22878441.7424                   22878440.7154
   2776045.73847   2172072.01245  20593785.8284                   20593781.0004
   6271340.95746   4885109.55543  23527850.2894                   23527848.0474
 11  8  1 17 35  0.0000000  0  9G03G10G07G08G13G19G06G23G16
   1498983.53147   1181466.04745  21115451.0704                   21115448.1884
    -10494.46546     22897.06343  23869754.6174                   23869754.0664
  -4801974.82047  -3707137.17645  21870342.3754                   21870339.7774
  -3085630.50046  -1690566.32043  23825462.9534                   23825462.6684
  -1831595.00447  -1404891.39846  19956470.5474                   19956466.8244
  -3986848.30947  -3076738.12145  20959292.6484                   20959288.4734
   3451255.42247   2701891.94543  22872526.5314                   22872525.2624
   2738418.00447   2142751.65645  20586625.6644                   20586621.0594
   6261599.61346   4877518.84043  23525997.0784                   23525994.2974
 11  8  1 17 35 30.0000000  0  9G03G10G07G08G13G19G06G23G16
   1447842.08647   1141615.56345  21105718.6724                   21105716.2704
    -87791.72746    -37334.61343  23855045.1884                   23855044.7854
  -4958334.68747  -3828976.01645  21840588.2974                   21840584.9454
  -3255824.81646  -1823185.21543  23793076.7974                   23793074.9844
  -1927960.95347  -1479981.76246  19938132.9454                   19938129.4304
  -4112256.79347  -3174459.00445  20935428.7504                   20935424.2664
   3420324.19946   2677789.66044  22866641.1724                   22866639.0394
   2701033.48047   2113620.82045  20579511.8134                   20579506.5234
   6251589.76646   4869718.89143  23524091.8134                   23524090.2584
 11  8  1 17 36  0.0000000  0  9G03G10G07G08G13G19G06G23G16
   1397007.82047   1102004.43845  21096045.3054                   21096042.9844
   -164924.91046    -97438.50443  23840366.8984                   23840366.6094
  -5114897.60547  -3950973.07845  21810795.5944                   21810792.3984
  -3426335.00846  -1956050.27043  23760630.4304                   23760628.2274
  -2023993.99247  -1554812.72746  19919858.0784                   19919854.7624
  -4237329.94547  -3271918.59445  20911628.0164                   20911623.3594
   3389546.58247   2653807.06344  22860784.3914                   22860782.5634
   2663892.92247   2084680.07845  20572444.0004                   20572439.0394
   6241312.42246   4861710.51243  23522136.5164                   23522134.4494
 11  8  1 17 36 30.0000000  0  9G03G10G07G08G13G19G06G23G16
   1346487.91047   1062638.26245  21086432.1174                   21086429.8054
   -241887.14146   -157409.12543  23825721.9304                   23825721.6644
  -5271653.62547  -4073120.58645  21780965.6954                   21780963.1914
  -3597151.71546  -2089154.13743  23728124.4534                   23728123.5664
  -2119684.17247  -1629376.52046  19901649.2814                   19901645.0824
  -4362057.51647  -3369108.89845  20887892.9064                   20887888.5474
   3358929.57047   2629949.59443  22854958.6174                   22854955.9184
   2627003.94147   2055935.37545  20565424.4844                   20565419.3444
   6230775.09046   4853499.54743  23520131.7894                   23520128.7114
 11  8  1 17 37  0.0000000  0  9G03G10G07G08G13G19G06G23G16
   2871704.10947   2251118.42245  21376671.0784                   21376668.3634
   1256744.11346   1010355.44543  24110902.4454                   24110901.6024
  -3853174.62947  -2967812.25845  22050893.3674                   22050890.1604
  -2192847.48046   -994891.02743  23995354.6484                   23995352.5824
   -639606.30147   -476069.10546  20183298.5784                   20183294.7274
  -2911012.27347  -2238424.28545  21164017.8364                   21164013.3874
   4903893.69147   3833817.72744  23148954.9454                   23148953.4454
   4165788.28947   3254988.07845  20858245.0784                   20858240.6804
   7795398.82046   6072686.80943  23817869.3914                   23817866.4844
 11  8  1 17 37 30.0000000  0  9G03G10G07G08G13G19G06G23G16
   2821815.02047   2212243.80145  21367177.5474                   21367175.0084
   1180126.00846    950652.93843  24096322.3284                   24096321.6454
  -4010306.37147  -3090252.55545  22020992.1804                   22020989.6094
  -2364269.27346  -1128466.38343  23962733.6644                   23962733.0474
   -734601.85547   -550091.63746  20165221.2734                   20165217.4844
  -3035037.22347  -2335067.09045  21140416.3524                   21140411.6564
   4873598.79747   3810211.27044  23143189.6174                   23143188.1454
   4129405.44147   3226637.75045  20851321.6644                   20851317.1564
   7784344.70346   6064073.13743  23815767.1484                   23815763.0664
 11  8  1 17 38  0.0000000  0  9G03G10G07G08G13G19G06G23G16
   2772241.34047   2173614.95745  21357743.6954                   21357740.9144
   1103679.95746    891084.52743  24081774.8204                   24081774.8014
  -4167622.09447  -3212836.22345  21991056.2894                   21991052.8794
  -2535990.67246  -1262275.20343  23930055.7344                   23930055.1684
   -829246.82447   -623840.98446  20147210.5234                   20147207.6804
  -3158706.27047  -2431432.57045  21116882.7734                   21116878.5744
   4843464.25047   3786729.75443  23137456.1724                   23137453.8634
   4093275.19547   3198484.27045  20844446.4534                   20844441.7934
   7773032.56346   6055258.44543  23813613.7504                   23813610.6454
 11  8  1 17 38 30.0000000  0  9G03G10G07G08G13G19G06G23G16
   2722986.77047   2135234.77745  21348370.9694                   21348368.3594
   1027409.85246    831653.21143  24067261.0314                   24067261.2194
  -4325114.69147  -3335557.71545  21961086.1724                   21961083.0354
  -2708005.49646  -1396312.69943  23897323.0634                   23897321.5704
   -923534.84047   -697312.18446  20129268.6954                   20129265.2384
  -3282012.44547  -2527515.28946  21093418.3834                   21093414.1914
   4813493.66046   3763376.01244  23131752.9454                   23131750.8164
   4057402.46147   3170531.43845  20837620.2974                   20837615.4964
   7761466.84046   6046246.11343  23811412.5704                   23811409.7274
 11  8  1 17 39  0.0000000  0 10G03G10G07G28G08G13G19G06G23G16
   2674056.37147   2097107.18045  21339060.0164                   21339057.0164
    951320.67646    772362.85243  24052781.4534                   24052781.9064
  -4482776.48447  -3458411.03945  21931084.0784                   21931080.8554
   7592989.26216                  24462286.242
  -2880306.48446  -1530573.14543  23864534.7504                   23864533.8984
  -1017458.55147   -770499.50446  20111395.4774                   20111391.7234
  -3404947.63747  -2623308.92245  21070025.1484                   21070020.2274
   4783691.95746   3740153.87544  23126082.4224                   23126079.5704
   4021792.28547   3142783.19945  20830843.8444                   20830839.2814
   7749652.89846   6037040.35543  23809164.6484                   23809161.9654
 11  8  1 17 39 30.0000000  0 10G03G10G07G28G08G13G19G06G23G16
   2625445.68047   2059228.72345  21329809.5474                   21329806.6024
    875408.30946    713210.33243  24038337.0004                   24038336.5004
  -4640608.95747  -3581397.36745  21901049.8594                   21901046.6804
   7419730.531 6                  24429315.727
  -3052895.84046  -1665058.27343  23831693.2734                   23831690.9454
  -1111019.92247   -843404.49646  20093591.4924                   20093587.1334
  -3527512.92247  -2718814.32445  21046701.0944                   21046696.8874
   4754054.52346   3717059.73443  23120442.3284                   23120439.7034
   3986440.28947   3115236.14145  20824116.4774                   20824112.1484
   7737587.25046   6027638.51243  23806868.2664                   23806866.0274
 11  8  1 17 40  0.0000000  0 10G03G10G07G28G08G13G19G06G23G16
   2577149.60247   2021595.40645  21320619.1644                   21320616.7234
    799667.28546    654191.27343  24023923.9534                   24023922.7424
  -4798614.33647  -3704518.42245  21870981.8914                   21870979.0124
   7246453.461 6                  24396342.008
  -3225776.58246  -1799770.49643  23798794.1954                   23798793.0124
  -1204221.93447   -916029.44946  20075856.3054                   20075852.1994
  -3649710.69947  -2814033.35245  21023447.5864                   21023443.1994
   4724575.43047   3694088.98044  23114832.6254                   23114829.4104
   3951341.58247   3087886.44945  20817437.3674                   20817432.6994
   7725264.80946   6018036.57043  23804524.6724                   23804520.8054
 11  8  1 17 40 30.0000000  0 10G03G10G07G28G08G13G19G06G23G16
   2529169.19547   1984208.07045  21311488.7274                   21311486.4804
    724098.11346    595306.17243  24009543.1484                   24009542.8674
  -4956788.89147  -3827771.30545  21840882.8364                   21840879.2624
   7073160.934 6                  24363366.313
  -3398945.85246  -1934707.56643  23765841.1954                   23765839.8094
  -1297061.41847   -988371.91846  20058189.3054                   20058185.2704
  -3771537.03547  -2908962.95345  21000265.1484                   21000260.5594
   4695255.54346   3671242.30543  23109252.5004                   23109250.8984
   3916497.08247   3060734.84045  20810807.0864                   20810802.4884
   7712687.14546   6008235.72343  23802130.1414                   23802128.0354
 11  8  1 17 41  0.0000000  0 10G03G10G07G28G08G13G19G06G23G16
   2481505.40647   1947067.44545  21302418.8524                   21302416.2934
    648702.55946    536556.35543  23995196.0084                   23995195.6024
  -5115128.36347  -3951152.70345  21810751.5084                   21810748.3014
   6899856.50046   6052471.76643  24330387.0394                   24330387.2114
  -3572400.14846  -2069866.69943  23732833.7504                   23732832.3284
  -1389534.59047  -1060428.94946  20040592.1644                   20040588.3914
  -3892987.73447  -3003599.83645  20977153.8364                   20977149.1844
   4666095.93046   3648520.48444  23103703.9694                   23103702.1914
   3881908.27047   3033782.46945  20804225.6174                   20804220.5594
   7699855.91046   5998237.30943  23799687.9534                   23799685.9264
 11  8  1 17 41 30.0000000  0 10G03G10G07G28G08G13G19G06G23G16
   2434167.32047   1910180.60945  21293411.0164                   21293407.7854
    573490.03546    477949.10243  23980884.0784                   23980883.9064
  -5273620.50847  -4074653.05945  21780591.5234                   21780588.1484
   6726551.97746   5917429.41042  24297409.4694                   24297409.2074
  -3746127.47746  -2205238.60943  23699774.2504                   23699773.3054
  -1481629.81247  -1132191.47746  20023067.4534                   20023063.5084
  -4014050.38747  -3097934.35945  20954116.2114                   20954111.5274
   4637105.28546   3625930.35243  23098186.4614                   23098185.0904
   3847584.67647   3007036.76645  20797693.5784                   20797689.0314
   7686781.18446   5988049.16043  23797200.9454                   23797198.2344
 11  8  1 17 42  0.0000000  0 10G03G10G07G28G08G13G19G06G23G16
   2387151.23847   1873544.68045  21284463.3984                   21284460.8524
    498456.34446    419481.21943  23966604.6484                   23966605.0594
  -5432266.27747  -4198273.11345  21750402.1954                   21750398.7464
   6553245.53546   5782385.51242  24264428.4224                   24264430.5554
  -3920129.90246  -2340824.85243  23666663.3674                   23666661.2544
  -1573349.07447  -1203661.04346  20005613.4844                   20005610.0124
  -4134725.87947  -3191967.18445  20931152.6884                   20931147.9734
   4608279.77346   3603468.86744  23092702.1174                   23092699.7074
   3813522.50447   2980494.76245  20791211.6724                   20791207.0904
   7673459.48446   5977668.55543  23794665.7894                   23794662.8524
 11  8  1 17 42 30.0000000  0 10G03G10G07G28G08G13G19G06G23G16
   2340461.82047   1837163.28944  21275578.7814                   21275576.2424
    423605.89546    361156.15243  23952361.7664                   23952362.2234
  -5591058.21547  -4322007.07445  21720185.4224                   21720181.5744
   6379944.20746   5647345.59443  24231451.2274                   24231451.7154
  -4094400.27046  -2476619.89843  23633500.2114                   23633499.4064
  -1664685.50847  -1274832.30546  19988232.1804                   19988229.1214
  -4255006.72347  -3285692.50845  20908263.7274                   20908259.3754
   4579623.62146   3581139.35943  23087248.7274                   23087247.0634
   3779726.56648   2954160.21545  20784780.4694                   20784775.6564
   7659895.93046   5967099.51243  23792085.0394                   23792082.3484
 11  8  1 17 43  0.0000000  0 10G03G10G07G28G08G13G19G06G23G16
   2294098.03947   1801035.64144  21266756.6174                   21266753.6134
    348937.91846    302973.21143  23938152.5394                   23938152.0124
  -5749993.98847  -4445853.10945  21689940.3834                   21689937.5904
   6206649.40646   5512310.77043  24198474.7734                   24198474.8164
  -4268937.24246  -2612622.66843  23600286.6094                   23600285.9844
  -1755637.47347  -1345703.97746  19970924.5474                   19970921.2074
  -4374890.75847  -3379108.62545  20885450.4844                   20885445.8284
   4551135.45346   3558940.74644  23081827.5164                   23081826.2114
   3746196.00847   2928032.45745  20778400.1254                   20778395.6804
   7646090.41846   5956341.92243  23789457.8134                   23789455.2384
 11  8  1 17 43 30.0000000  0 10G03G10G07G28G08G13G19G06G23G16
   2248062.73847   1765163.94145  21257995.8834                   21257993.5044
    274455.26646    244934.73843  23923978.7344                   23923978.9844
  -5909067.53547  -4569806.50845  21659669.6954                   21659666.5234
   6033366.43046   5377285.17243  24165499.5864                   24165500.1564
  -4443735.51646  -2748829.09443  23567024.2194                   23567022.5234
  -1846200.09847  -1416272.27046  19953691.3984                   19953687.8834
  -4494371.75047  -3472210.68446  20862714.2114                   20862709.2974
   4522818.11346   3536875.23443  23076439.4924                   23076437.3244
   3712933.98847   2902113.94145  20772070.7734                   20772066.0704
   7632046.55146   5945398.57443  23786785.2504                   23786782.9494
 11  8  1 17 44  0.0000000  0 10G03G10G07G28G08G13G19G06G23G16
   2202361.34047   1729552.42645  21249299.4224                   21249297.2624
    200163.85846    187045.22043  23909842.2584                   23909841.8134
  -6068270.32047  -4693860.61345  21629374.4924                   21629370.9064
   5860103.30546   5242275.05543  24132528.0314                   24132529.0904
  -4618786.86746  -2885232.68743  23533712.7034                   23533711.5634
  -1936365.06647  -1486530.69546  19936533.8594                   19936529.9774
  -4613441.53547  -3564992.32445  20840056.4384                   20840051.5394
   4494676.91446   3514946.97743  23071083.8364                   23071082.6764
   3679946.42647   2876409.29345  20765793.2734                   20765789.0164
   7617770.83646   5934274.58243  23784068.4924                   23784066.1174
 11  8  1 17 44 30.0000000  0 10G03G10G07G28G08G13G19G06G23G16
   2156988.16847   1694196.68844  21240665.0554                   21240662.8014
    126057.44946    129299.90643  23895741.0474                   23895739.9774
  -6227604.64847  -4818017.22345  21599054.3444                   21599050.9774
   5686856.57446   5107277.66843  24099560.7734                   24099560.8594
  -4794094.80946  -3021836.21543  23500352.9384                   23500351.4534
  -2026135.99647  -1556482.08646  19919450.3984                   19919447.1254
  -4732103.17247  -3657455.91845  20817475.5474                   20817470.9144
   4466706.00846   3493151.40243  23065761.6884                   23065759.3714
   3647227.70748   2850914.13345  20759567.3754                   20759562.8204
   7603258.23046   5922966.01643  23781306.1884                   23781305.0314
 11  8  1 17 45  0.0000000  0 11G03G10G07G28G08G13G11G19G06G23G16
   3687371.68047   2886703.27744  21531887.2734                   21531885.0204
   1627565.53946   1299306.16443  24181468.0704                   24181466.9384
  -4811635.50447  -3714664.62145  21868504.0634                   21868500.6724
   7089061.03546   6199904.63743  24366390.9304                   24366391.8834
  -3394224.29746  -1931027.98843  23766739.4694                   23766737.6484
   -540081.27747   -398517.37546  20202237.7814                   20202233.7774
   9150972.33246   7174342.78942  24533502.6954                   24533505.4064
  -3274922.81647  -2521990.68745  21094767.9144                   21094762.9344
   6014332.59246   4699094.12943  23360264.4694                   23360263.5084
   5190205.64548   4053234.55145  21053186.2034                   21053181.5984
   9163936.62946   7139078.99643  24078293.7034                   24078292.1294
 11  8  1 17 45 30.0000000  0 11G03G10G07G28G08G13G11G19G06G23G16
   3642663.41047   2851865.64144  21523379.0704                   21523376.9804
   1553838.25446   1241856.20343  24167437.6334                   24167437.4064
  -4971215.75447  -3839012.85545  21838137.2504                   21838133.8134
   6915862.40646   6064944.77743  24333432.7664                   24333433.1134
  -3570029.52346  -2068019.03943  23733284.3594                   23733283.1724
   -629049.91047   -467843.59446  20185307.6644                   20185303.8524
   8967469.11746   7031353.44542  24498582.1954                   24498586.0234
  -3392750.40247  -2613804.37545  21072345.8594                   21072341.0944
   5986709.58246   4677569.67644  23355009.0314                   23355006.7194
   5158033.01248   4028164.91045  21047063.8284                   21047059.0274
   9148960.75246   7127409.39742  24075443.9694                   24075442.5664
 11  8  1 17 46  0.0000000  0 11G03G10G07G28G08G13G11G19G06G23G16
   3598278.48047   2817279.96544  21514934.0394                   21514930.9024
   1480291.27346   1184546.82943  24153443.2664                   24153442.6764
  -5130923.10547  -3963460.12545  21807746.0314                   21807742.4734
   6742682.09446   5929999.20743  24300477.0164                   24300478.2934
  -3746088.80146  -2205208.05943  23699782.3754                   23699780.2894
   -717623.10947   -536861.68746  20168452.7344                   20168448.9384
   8783680.68446   6888141.91843  24463609.7894                   24463611.8404
  -3510165.76247  -2705296.84445  21050002.0944                   21049997.4614
   5959251.21146   4656173.50043  23349784.0704                   23349781.2194
   5126124.62147   4003301.17245  21040991.7194                   21040987.0084
   9133745.16446   7115553.04342  24072549.1254                   24072547.0274
 11  8  1 17 46 30.0000000  0 11G03G10G07G28G08G13G11G19G06G23G16
   3554220.93847   2782949.37944  21506549.7274                   21506546.9264
   1406928.94146   1127381.27043  24139482.5314                   24139482.0704
  -5290749.66847  -4088000.28545  21777331.8914                   21777328.3874
   6569527.19946   5795073.47342  24267526.8204                   24267527.4694
  -3922394.90246  -2342589.39143  23666231.3054                   23666230.3484
   -805793.84047   -605566.16446  20151674.2584                   20151670.4534
   8599615.87546   6744714.98042  24428582.2114                   24428584.6994
  -3627161.70347  -2796462.50045  21027738.8524                   21027734.4224
   5931961.88747   4634909.06343  23344590.8134                   23344588.6844
   5094485.27047   3978647.08245  21034971.1954                   21034966.7504
   9118295.28146   7103514.13343  24069608.8134                   24069607.5204
 11  8  1 17 47  0.0000000  0 11G03G10G07G28G08G13G11G19G06G23G16
   3510490.24247   2748873.49244  21498227.8834                   21498225.8634
   1333750.77046   1070359.22743  24125557.0864                   24125557.3984
  -5450693.00847  -4212631.45345  21746894.7584                   21746892.2664
   6396399.40646   5660168.85542  24234581.1644                   24234581.9494
  -4098946.50446  -2480162.00843  23632635.2734                   23632633.4654
   -893561.05947   -673956.21546  20134972.8204                   20134969.4964
   8415278.88746   6601075.99243  24393503.6024                   24393506.6214
  -3743735.54347  -2887299.23846  21005555.3524                   21005550.8204
   5904840.50846   4613775.51243  23339429.3524                   23339427.2854
   5063114.10547   3954201.95745  21029001.0944                   21028996.5084
   9102611.40646   7091292.86342  24066624.1884                   24066622.9774
 11  8  1 17 47 30.0000000  0 11G03G10G07G28G08G13G11G19G06G23G16
   3467090.87547   2715055.77744  21489969.4454                   21489967.1564
   1260761.19546   1013484.15643  24111668.1724                   24111667.2544
  -5610745.25047  -4337347.47345  21716438.3984                   21716435.3554
   6223305.61346   5525290.73843  24201643.3284                   24201644.1914
  -4275735.93046  -2617919.95743  23598993.1644                   23598991.8914
   -980917.84047   -742026.44946  20118349.6024                   20118345.5864
   8230678.82046   6457231.99242  24358375.6024                   24358377.5274
  -3859880.18747  -2977801.55145  20983453.7504                   20983449.0124
   5877891.52746   4592776.29743  23334301.2664                   23334299.4184
   5032016.19147   3929969.75445  21023083.6954                   21023079.6804
   9086698.91046   7078893.48042  24063596.5704                   24063594.3874
 11  8  1 17 48  0.0000000  0 11G03G10G07G28G08G13G11G19G06G23G16
   3424019.66447   2681493.77744  21481773.3204                   21481770.9144
   1187957.18446    956753.70743  24097813.4454                   24097813.2074
  -5770906.86347  -4462148.72745  21685960.6564                   21685957.8914
   6050244.91046   5390438.39143  24168710.4304                   24168711.0824
  -4452763.98446  -2755863.85543  23565305.0314                   23565304.1764
  -1067865.12547   -809777.60246  20101804.0084                   20101800.2074
   8045817.43846   6313184.33242  24323196.9844                   24323200.0704
  -3975595.97747  -3067969.68045  20961433.6094                   20961429.3164
   5851111.45346   4571908.68043  23329205.2194                   23329203.1054
   5001188.28948   3905947.95745  21017217.3444                   21017212.9494
   9070555.60246   7066314.23443  24060524.8754                   24060522.1564
 11  8  1 17 48 30.0000000  0 11G03G10G07G28G08G13G11G19G06G23G16
   3381277.16447   2648187.91844  21473639.6644                   21473636.8874
   1115339.44146    900168.34443  24083995.2664                   24083994.6644
  -5931173.11747  -4587031.52045  21655463.3914                   21655460.0984
   5877220.43846   5255614.28942  24135784.6174                   24135785.8164
  -4630027.03946  -2893990.85943  23531573.1024                   23531571.6414
  -1154400.00847   -877207.39546  20085336.6884                   20085333.0434
   7860700.47346   6168937.59043  24287970.9614                   24287972.9614
  -4090879.30947  -3157800.83246  20939496.2194                   20939491.4924
   5824501.04746   4551173.29743  23324141.9064                   23324139.8754
   4970631.46548   3882137.39145  21011402.2974                   21011398.2624
   9054183.30546   7053556.59043  24057409.9304                   24057406.4454
 11  8  1 17 49  0.0000000  0 11G03G10G07G28G08G13G11G19G06G23G16
   3338864.05547   2615138.71544  21465568.7504                   21465566.1684
   1042908.66046    843728.69943  24070211.4774                   24070211.8134
  -6091540.13747  -4711992.81245  21624945.9384                   21624942.9924
   5704235.35546   5120820.87942  24102866.6024                   24102868.2344
  -4807521.98846  -3032298.54343  23497797.3834                   23497795.8244
  -1240519.94547   -944313.85946  20068948.9144                   20068944.5234
   7675333.27345   6024495.81643  24252696.1564                   24252699.4694
  -4205726.75047  -3247292.33645  20917641.3204                   20917636.7664
   5798060.85546   4530570.51643  23319110.0314                   23319108.6954
   4940346.28147   3858538.48445  21005640.7114                   21005635.7814
   9037583.53146   7040621.64543  24054250.9454                   24054248.1884
 11  8  1 17 49 30.0000000  0 11G03G10G07G28G08G13G11G19G06G23G16
   3296776.80947   2582343.43444  21457560.2344                   21457557.2584
    970661.08646    787431.79342  24056464.1174                   24056463.7274
  -6252008.52347  -4837033.10545  21594410.2734                   21594406.9844
   5531288.06646   4986056.92243  24069955.1564                   24069956.9494
  -4985249.94546  -3170787.83243  23463976.8834                   23463975.3094
  -1326226.62147  -1011098.30146  20052639.1724                   20052635.7304
   7489716.73446   5879859.75042  24217374.4844                   24217377.5984
  -4320139.22747  -3336444.90645  20895869.5474                   20895864.8054
   5771786.60946   4510097.05943  23314109.8984                   23314108.5554
   4910329.14147   3835148.44945  20999927.4384                   20999923.8054
   9020753.48046   7027507.28543  24051047.4614                   24051045.4264
 11  8  1 17 50  0.0000000  0 11G03G10G07G28G08G13G11G19G06G23G16
   3255014.71947   2549801.52744  21449612.7034                   21449610.4384
    898596.18446    731277.26242  24042750.3134                   24042749.6914
  -6412575.37547  -4962150.11745  21563855.1094                   21563852.1254
   5358380.51646   4851323.91043  24037052.2894                   24037052.9574
  -5163208.90646  -3309457.11343  23430112.0234                   23430110.7074
  -1411517.94947  -1077559.09046  20036409.0704                   20036405.3164
   7303855.16846   5735032.80942  24182006.5634                   24182009.5314
  -4434114.42647  -3425256.74245  20874181.0004                   20874176.3874
   5745677.89546   4489752.55543  23309142.4534                   23309140.1484
   4880579.80547   3811967.09445  20994265.9144                   20994262.1684
   9003693.65646   7014213.85543  24047801.7734                   24047798.9454
 11  8  1 17 50 30.0000000  0 11G03G10G07G28G08G13G11G19G06G23G16
   3213567.24247   2517504.75845  21441725.6094                   21441723.1454
    826703.60246    675256.95743  24029070.2344                   24029069.0864
  -6573247.17647  -5087348.91845  21533280.6564                   21533277.1684
   5185504.87146   4716615.73043  24004154.7344                   24004155.8794
  -5341406.28946  -3448312.18443  23396202.2974                   23396200.9534
  -1496402.60947  -1143703.01246  20020255.6954                   20020252.5314
   7117743.54346   5590010.94942  24146589.8914                   24146593.0984
  -4547659.93747  -3513733.75846  20852573.6644                   20852568.8404
   5719724.30546   4469528.94543  23304202.6254                   23304201.6374
   4851088.23048   3788986.58645  20988654.6254                   20988650.0354
   8986394.92246   7000734.24643  24044509.2114                   24044506.8914
 11  8  1 17 51  0.0000000  0 11G03G10G07G28G08G13G11G19G06G23G16
   3172442.08247   2485459.15644  21433899.7034                   21433897.1604
    754991.12946    619377.03542  24015423.0554                   24015423.2854
  -6734012.78147  -5212620.80545  21502687.9144                   21502684.2814
   5012671.41846   4581940.48042  23971265.8284                   23971266.9384
  -5519831.39846  -3587344.68043  23362249.6954                   23362247.9804
  -1580870.81647  -1209522.41446  20004181.8134                   20004178.6024
   6931394.68046   5444804.23442  24111128.7894                   24111132.2114
  -4660765.13347  -3601867.67246  20831050.3134                   20831045.8484
   5693933.42646   4449432.10943  23299294.5784                   23299293.7304
   4821862.37548   3766213.14145  20983092.7734                   20983088.9924
   8968866.22746   6987075.47343  24041174.1564                   24041171.7734
 11  8  1 17 51 30.0000000  0 11G03G10G07G28G08G13G11G19G06G23G16
   3131634.56647   2453661.06644  21426134.4224                   21426131.8554
    683454.37946    563634.02343  24001810.0864                   24001810.1684
  -6894873.50447  -5337966.82045  21472077.0474                   21472073.8444
   4839878.01646   4447296.42242  23938384.6644                   23938385.7624
  -5698485.91046  -3726555.92243  23328252.4924                   23328250.5784
  -1664925.02747  -1275019.22346  19988187.0634                   19988183.8554
   6744808.86346   5299412.82042  24075622.9924                   24075625.9384
  -4773431.75447  -3689659.82845  20809610.8674                   20809606.0164
   5668300.70346   4429458.52343  23294417.2584                   23294415.8524
   4792897.48848   3743643.03945  20977581.3524                   20977576.9104
   8951103.87546   6973234.62543  24037794.9454                   24037792.0824
 11  8  1 17 52  0.0000000  0 11G03G10G07G28G08G13G11G19G06G23G16
   4666552.69147   3649701.12945  21718219.4534                   21718217.0164
   2187502.14546   1735619.23842  24288020.9064                   24288021.1134
  -5480413.92247  -4235790.50045  21741239.6024                   21741236.5434
   6242539.35946   5540279.42242  24205301.5704                   24205302.5274
  -4301954.78546  -2638349.82043  23594004.4384                   23594001.8164
   -173153.73447   -112600.05146  20272062.1414                   20272058.1054
   8133403.59046   6381434.92642  24339863.0704                   24339865.7544
  -3310246.88747  -2549515.76245  21088045.4064                   21088040.9104
   7218233.18046   5637198.07443  23589359.7114                   23589358.1214
   6339601.41448   4948866.82845  21271909.3134                   21271904.8524
  10508516.17646   8186802.58243  24334160.4924                   24334157.3984
 11  8  1 17 52 30.0000000  0 11G03G10G07G28G08G13G11G19G06G23G16
   4626359.52747   3618381.74244  21710571.0474                   21710568.2934
   2116295.58646   1680133.52743  24274471.9224                   24274471.0354
  -5641475.46147  -4361292.99645  21710590.4774                   21710587.4494
   6069812.00446   5405686.82443  24172432.0784                   24172433.2664
  -4481081.28946  -2777928.87943  23559916.9534                   23559914.9024
   -256394.48847   -177462.99646  20256221.7034                   20256218.3634
   7946337.24646   6235669.13343  24304266.1254                   24304268.1334
  -3422049.39147  -2636634.58245  21066770.3364                   21066765.2584
   7192895.01246   5617454.00043  23584538.4694                   23584536.8914
   6311138.23448   4926687.66445  21266493.0234                   21266488.7424
  10490269.02746   8172583.98443  24330687.8984                   24330685.4804
 11  8  1 17 53  0.0000000  0 11G03G10G07G28G08G13G11G19G06G23G16
   4586473.91047   3587302.02344  21702980.8134                   21702978.7704
   2045254.87946   1624777.04342  24260952.0474                   24260952.0554
  -5802631.46547  -4486869.08245  21679923.9384                   21679920.7234
   5897121.88346   5271123.22743  24139570.8914                   24139570.8244
  -4660439.02046  -2917688.12143  23525785.7194                   23525784.5474
   -339224.81647   -242006.13746  20240459.6254                   20240456.0274
   7759039.14846   6089722.78542  24268623.9064                   24268625.5434
  -3533415.34047  -2723413.23045  21045577.9144                   21045573.6414
   7167704.62546   5597825.09843  23579744.2584                   23579742.9924
   6282926.47348   4904704.42245  21261124.8674                   21261120.3554
  10471781.84046   8158178.29343  24327169.6254                   24327167.7344
 11  8  1 17 53 30.0000000  0 11G03G10G07G28G08G13G11G19G06G23G16
   4546882.19147   3556451.30944  21695446.9614                   21695445.0354
   1974366.00846   1569538.91043  24247463.9064                   24247462.9454
  -5963892.21547  -4612526.80545  21649236.8444                   21649233.2774
   5724457.62446   5136579.83343  24106713.6564                   24106713.9264
  -4840038.85946  -3057635.99243  23491609.6254                   23491607.1054
   -421656.08647   -306238.31646  20224773.5394                   20224770.0084
   7571500.26646   5943588.82042  24232935.8364                   24232938.2894
  -3644355.61747  -2809860.19146  21024466.9694                   21024461.8054
   7142648.24646   5578300.62143  23574977.5234                   23574974.7814
   6254952.53147   4882906.48045  21255801.2814                   21255796.8484
  10453042.13346   8143575.88343  24323604.6804                   24323601.1884
 11  8  1 17 54  0.0000000  0 11G03G10G07G28G08G13G11G19G06G23G16
   4507597.14547   3525839.56344  21687970.9534                   21687968.6024
   1903641.99246   1514429.18843  24234004.3054                   24234004.3364
  -6125241.03547  -4738253.14145  21618532.9064                   21618529.8094
   5551834.79746   5002068.68043  24073864.4064                   24073864.3834
  -5019864.89146  -3197760.11743  23457389.0944                   23457387.5784
   -503674.54347   -370148.83246  20209166.0234                   20209162.6294
   7383738.37146   5797281.03542  24197206.6804                   24197207.6254
  -3754854.87147  -2895963.48045  21003439.4384                   21003434.4734
   7117738.37546   5558890.26643  23570236.6024                   23570234.8134
   6227229.69147   4861304.19945  21250525.7424                   21250521.4304
  10434063.98446   8128787.63343  24319992.6954                   24319989.4414
 11  8  1 17 54 30.0000000  0 11G03G10G07G28G08G13G11G19G06G23G16
   4468607.78147   3495458.21144  21680552.0474                   21680549.7894
   1833072.12946   1459439.61343  24220575.3914                   24220574.8244
  -6286685.16447  -4864053.75045  21587811.6724                   21587807.7664
   5379244.80946   4867583.09843  24041021.7424                   24041021.7194
  -5199924.75446  -3338066.46543  23423125.7274                   23423123.2154
   -585288.49647   -433744.14146  20193635.4844                   20193631.7344
   7195748.01246   5650795.24243  24161433.4064                   24161434.4104
  -3864921.00447  -2981729.27745  20982494.4844                   20982489.7504
   7092964.56646   5539585.98043  23565522.2664                   23565520.3554
   6199747.28547   4839889.27745  21245296.1804                   21245291.5984
  10414837.85546   8113806.24243  24316333.5474                   24316331.0634
 11  8  1 17 55  0.0000000  0 11G03G10G07G28G08G13G11G19G06G23G16
   4429925.21147   3465315.94544  21673190.7344                   21673188.5394
   1762667.35946   1404578.69943  24207178.1644                   24207178.3594
  -6448209.98847  -4989917.23445  21557074.5704                   21557070.8554
   5206700.92246   4733133.46143  24008187.1024                   24008187.8444
  -5380204.97746  -3478544.51643  23388818.5554                   23388817.3554
   -666484.85547   -497014.05946  20178183.9144                   20178180.8594
   7007545.28146   5504143.99643  24125618.9924                   24125620.6604
  -3974540.63747  -3067147.15646  20961634.6564                   20961629.8674
   7068337.57846   5520396.09443  23560836.0784                   23560834.7154
   6172516.15647   4818670.15245  21240114.2974                   21240110.2344
  10395376.13746   8098641.17642  24312630.6254                   24312628.2774
 11  8  1 17 55 30.0000000  0 11G03G10G07G28G08G13G11G19G06G23G16
   4391545.05147   3435409.32044  21665887.1414                   21665885.0124
   1692423.70746   1349843.29343  24193811.8134                   24193811.5664
  -6609816.23447  -5115844.16445  21526321.2734                   21526318.2704
   5034201.50046   4598718.47343  23975362.1414                   23975361.7154
  -5560706.83246  -3619195.27043  23354470.3204                   23354468.8484
   -747265.98847   -559960.42646  20162812.4454                   20162808.7464
   6819130.96946   5357327.87142  24089764.8524                   24089765.7034
  -4083714.96947  -3152218.05145  20940859.5634                   20940854.7664
   7043853.11346   5501317.25443  23556176.2894                   23556175.0124
   6145532.37947   4797643.76645  21234979.6254                   21234975.1844
  10375675.85246   8083290.21142  24308881.8054                   24308879.4654
 11  8  1 17 56  0.0000000  0 11G03G10G07G28G08G13G11G19G06G23G16
   4353463.96147   3405735.72344  21658640.8984                   21658638.2154
   1622337.85546   1295230.84443  24180474.2734                   24180474.9844
  -6771503.60547  -5241834.31645  21495552.9454                   21495550.0354
   4861745.89146   4464337.55143  23942544.6094                   23942544.6054
  -5741430.16846  -3760018.60543  23320080.4144                   23320078.3524
   -827632.78547   -622583.93046  20147518.6484                   20147515.0434
   6630506.89146   5210348.26642  24053870.0394                   24053871.9104
  -4192445.13347  -3236942.82845  20920168.5394                   20920164.1994
   7019507.90646   5482346.92243  23551544.1564                   23551542.2194
   6118792.86347   4776807.71545  21229891.1254                   21229886.7704
  10355734.89145   8067751.71942  24305086.9614                   24305084.9304
 11  8  1 17 56 30.0000000  0 11G03G10G07G28G08G13G11G19G06G23G16
   4315687.02047   3376299.14144  21651452.2814                   21651449.7424
   1552414.91846   1240745.33243  24167169.0394                   24167169.0744
  -6933262.90247  -5367880.50045  21464771.6884                   21464768.6524
   4689341.56346   4329996.69543  23909737.2274                   23909736.8204
  -5922367.03946  -3901008.33643  23285649.2424                   23285647.2504
   -907578.16047   -684879.05146  20132305.8914                   20132302.3014
   6441683.54346   5063213.44543  24017938.3134                   24017940.3634
  -4300723.32447  -3321315.43445  20899563.9454                   20899559.2624
   6995306.97346   5463489.03943  23546938.6724                   23546936.9304
   6092302.92647   4756166.14545  21224850.1094                   21224845.9694
  10335559.89545   8052030.86342  24301248.4224                   24301245.3954
 11  8  1 17 57  0.0000000  0 11G03G10G07G28G08G13G11G19G06G23G16
   4278209.52747   3347095.88744  21644319.7814                   21644317.9414
   1482651.10546   1186383.82443  24153893.7584                   24153893.8134
  -7095094.66847  -5493983.16845  21433976.2664                   21433973.0124
   4516986.86346   4195694.44543  23876939.1724                   23876938.5594
  -6103518.69546  -4042165.42243  23251177.2504                   23251175.5434
   -987104.85247   -746847.93046  20117172.0784                   20117168.5514
   6252662.03546   4915924.11342  23981968.9694                   23981970.3524
  -4408550.96147  -3405336.95745  20879044.9304                   20879040.3834
   6971246.25046   5444740.36743  23542359.7734                   23542358.5944
   6066058.51247   4735715.89145  21219856.4774                   21219851.7734
  10315148.09845   8036125.47343  24297363.0234                   24297361.5314
 11  8  1 17 57 30.0000000  0 11G03G10G07G28G08G13G11G19G06G23G16
   4241038.18047   3318131.19144  21637246.4304                   21637244.7934
   1413052.24646   1132150.86743  24140649.5474                   24140649.8634
  -7256989.03547  -5620134.61345  21403168.3914                   21403165.4574
   4344690.29346   4061437.53943  23844152.2504                   23844151.9304
  -6284875.78146  -4183482.57043  23216665.8284                   23216663.6294
  -1066204.83247   -808484.30546  20102120.0314                   20102116.4494
   6063453.59846   4768489.20342  23945962.3754                   23945965.0864
  -4515919.39847  -3489000.66045  20858613.1954                   20858608.9654
   6947331.82846   5426105.68043  23537809.6254                   23537807.9454
   6040065.87947   4715461.82845  21214910.0004                   21214905.6914
  10294507.25445   8020041.55942  24293435.2974                   24293434.5044
 11  8  1 17 58  0.0000000  0 11G03G10G07G28G08G13G11G19G06G23G16
   4204181.69147   3289411.83244  21630233.1094                   21630231.1094
   1343627.34446   1078053.42243  24127438.1884                   24127438.8524
  -7418933.25047  -5746324.90245  21372351.3134                   21372348.0394
   4172463.09846   3927234.66443  23811378.1174                   23811377.7974
  -6466426.45346  -4324950.60243  23182117.5474                   23182116.1094
  -1144866.99247   -869779.51646  20087150.9304                   20087147.7664
   5874072.10945   4620919.44142  23909925.1254                   23909926.9024
  -4622817.08247  -3572297.55545  20838271.1334                   20838266.6604
   6923572.50445   5407591.88343  23533287.6254                   23533286.7814
   6014334.00847   4695410.95345  21210014.0314                   21210009.3324
  10273647.37146   8003787.06642  24289466.9144                   24289464.8324
 11  8  1 17 58 30.0000000  0 11G03G10G07G28G08G13G11G19G06G23G16
   4167641.28147   3260938.77744  21623280.4144                   21623277.6804
   1274377.50845   1024092.42643  24114260.6804                   24114261.2114
  -7580922.47347  -5872550.25845  21341526.0234                   21341522.5984
   4000309.18446   3793088.93043  23778618.2114                   23778618.2584
  -6648165.85546  -4466565.64543  23147533.4144                   23147532.3794
  -1223088.35947   -930731.25446  20072266.1334                   20072262.7814
   5684524.36346   4473220.08642  23873855.6644                   23873857.2074
  -4729240.26247  -3655224.69545  20818019.9224                   20818015.0704
   6899969.67646   5389200.02043  23528796.7734                   23528795.1054
   5988864.01247   4675564.13745  21205166.4924                   21205162.3444
  10252571.23446   7987364.04743  24285456.4304                   24285453.5864
 11  8  1 17 59  0.0000000  0 11G03G10G07G28G08G13G11G19G06G23G16
   4131411.23847   3232707.55544  21616385.8594                   21616383.6054
   1205297.80545    970263.97342  24101114.0084                   24101115.4184
  -7742958.01247  -5998811.71545  21310691.5474                   21310688.3634
   3828225.78146   3658998.05143  23745872.0944                   23745871.2114
  -6830096.57846  -4608329.82043  23112913.2504                   23112911.4654
  -1300872.16047   -991342.03146  20057464.5704                   20057461.4694
   5494810.21146   4325391.08643  23837753.3284                   23837755.2624
  -4835191.89847  -3737784.39845  20797858.1024                   20797853.1884
   6876518.04746   5370925.96543  23524334.0084                   23524332.3134
   5963651.28147   4655917.79345  21200368.9224                   21200364.5664
  10231274.66046   7970769.21943  24281404.1174                   24281401.2584
 11  8  1 17 59 30.0000000  0 11G03G10G07G28G08G13G11G19G06G23G16
   5670916.97347   4432322.39544  21909343.7894                   21909341.6524
   2711814.20745   2144172.76242  24387794.8914                   24387796.4654
  -6329607.03947  -4897499.24645  21579643.3364                   21579640.2194
   5231644.55146   4752571.27743  24012933.1804                   24012933.2504
  -5436785.77346  -3522633.04344  23378051.1724                   23378049.9104
    197209.53147    175994.32846  20342539.9144                   20342536.6214
   6880365.04746   5405044.40243  24101415.6724                   24101416.9574
  -3365242.14847  -2592369.00445  21077579.8524                   21077575.1094
   8428642.01646   6580373.18043  23819693.4774                   23819691.4884
   7514120.22747   5864075.35245  21495413.9924                   21495409.5744
  11785184.10946   9181607.64843  24577103.0164                   24577100.7114
 11  8  1 18  0  0.0000000  0 11G03G10G07G28G08G13G11G19G06G23G16
   5635316.60247   4404581.80544  21902569.3754                   21902567.1414
   2643083.04745   2090615.93042  24374715.4304                   24374717.7894
  -6491715.72747  -5023817.69945  21548794.9304                   21548791.9224
   5059717.65646   4618602.39143  23980215.8984                   23980216.7464
  -5619081.45346  -3664681.57043  23343362.0084                   23343360.4494
    120314.50447    116076.10246  20327907.4454                   20327904.0704
   6690342.51646   5256975.07843  24065255.4614                   24065256.6954
  -3470234.84047  -2674181.48045  21057600.7974                   21057595.8754
   8405501.00046   6562341.18843  23815289.9774                   23815288.4224
   7489429.96147   5844836.12145  21490714.6484                   21490710.8244
  11763460.71946   9164680.35243  24572969.1414                   24572967.6254
 11  8  1 18  0 30.0000000  0 11G03G10G07G28G08G13G11G19G06G23G16
   5600029.23847   4377085.12144  21895854.6334                   21895851.9454
   2574524.49645   2037193.58242  24361670.7114                   24361671.6484
  -6653856.76647  -5150161.35545  21517940.8204                   21517937.5354
   4887870.86346   4484695.92143  23947514.6724                   23947514.9064
  -5801556.20346  -3806869.66043  23308637.7814                   23308636.6254
     43864.92647     56504.98446  20313359.3134                   20313356.2304
   6500172.00446   5108790.44942  24029066.8674                   24029068.5554
  -3574745.87947  -2755618.64545  21037712.5944                   21037707.7624
   8382513.80946   6544429.03143  23810915.6094                   23810914.7934
   7464999.62547   5825799.42245  21486066.2894                   21486062.0664
  11741524.38346   9147587.02342  24568794.8204                   24568792.7704
 11  8  1 18  1  0.0000000  0 11G03G10G07G28G08G13G11G19G06G23G16
   5565062.30547   4349838.11744  21889200.4304                   21889198.5634
   2506146.22345   1983911.68442  24348657.9844                   24348659.4414
  -6816018.79747  -5276521.36345  21487082.3984                   21487078.7734
   4716114.35246   4350859.77343  23914831.0164                   23914830.7974
  -5984199.58246  -3949189.13343  23273881.9454                   23273880.4144
    -32130.30947     -2712.10246  20298897.5554                   20298894.5204
   6309866.30146   4960500.44543  23992853.3594                   23992854.0904
  -3678765.54347  -2836672.91845  21017918.4454                   21017913.3244
   8359687.73446   6526642.44143  23806572.2344                   23806570.7624
   7440836.66447   5806971.07045  21481468.0944                   21481464.0274
  11719383.60946   9130334.39542  24564581.4224                   24564579.8244
 11  8  1 18  1 30.0000000  0 11G03G10G07G28G08G13G11G19G06G23G16
   5530427.53547   4322849.93444  21882609.8834                   21882607.8444
   2437960.14846   1930779.56343  24335682.7114                   24335683.9304
  -6978185.88347  -5402885.34045  21456222.9844                   21456219.2424
   4544462.62946   4217105.27043  23882166.9534                   23882166.3244
  -6166996.37547  -4091628.15243  23239097.4304                   23239095.2584
   -107657.03947    -61564.12546  20284525.8524                   20284522.0044
   6119442.91446   4812118.77043  23956615.8524                   23956617.8954
  -3782279.27047  -2917332.95345  20998220.3834                   20998215.5084
   8337034.96946   6508990.90643  23802261.2974                   23802259.8404
   7416953.48047   5788360.72345  21476923.5704                   21476919.2664
  11697052.63345   9112933.60542  24560331.6414                   24560331.1134
 11  8  1 18  2  0.0000000  0 11G03G10G07G28G08G13G11G19G06G23G16
   5496115.92647   4296113.55944  21876080.8444                   21876078.7664
   2369957.45346   1877790.35943  24322742.3524                   24322743.5904
  -7140363.00847  -5529257.10945  21425361.4614                   21425358.5904
   4372908.93046   4083427.15643  23849520.9774                   23849520.3284
  -6349952.38346  -4234191.24644  23204281.9144                   23204279.9534
   -182722.52747   -120056.73446  20270240.8594                   20270237.6134
   5928897.96146   4663642.31643  23920356.8594                   23920357.6174
  -3885293.70747  -2997603.94145  20978617.3364                   20978612.2504
   8314546.65246   6491467.50443  23797982.0784                   23797980.7304
   7393340.80147   5769961.16045  21472430.1334                   21472426.3524
  11674523.93446   9095378.75842  24556044.5554                   24556043.3754
 11  8  1 18  2 30.0000000  0 11G03G10G07G28G08G13G11G19G06G23G16
   5462134.66447   4269634.63344  21869613.3444                   21869611.7304
   2302145.41846   1824949.71542  24309837.5704                   24309839.1054
  -7302539.34447  -5655628.26245  21394500.9224                   21394497.2034
   4201462.91846   3949832.98043  23816895.2894                   23816895.0984
  -6533057.05546  -4376870.15644  23169437.6724                   23169436.2544
   -257317.73447   -178182.89146  20256046.3674                   20256042.9804
   5738244.21146   4515081.10242  23884077.0634                   23884076.9534
  -3987799.27347  -3077478.40245  20959111.4844                   20959106.6254
   8292229.91046   6474077.81343  23793736.1094                   23793734.0204
   7370006.11347   5751778.19945  21467990.1644                   21467985.9454
  11651806.10245   9077676.55542  24551721.3204                   24551721.1174
 11  8  1 18  3  0.0000000  0 11G03G10G07G28G08G13G11G19G06G23G16
   5428483.09047   4243412.61344  21863209.9144                   21863208.7274
   2234523.07846   1772256.91043  24296970.5004                   24296971.1374
  -7464711.64147  -5781996.26245  21363639.8444                   21363636.9264
   4030126.15646   3816323.93843  23784291.7034                   23784290.9104
  -6716307.93047  -4519663.03143  23134566.7034                   23134564.2664
   -331441.86747   -235941.97346  20241940.5634                   20241937.7114
   5547486.28146   4366438.68843  23847776.2194                   23847777.1094
  -4089794.44547  -3156955.15645  20939702.2344                   20939697.2734
   8270084.02746   6456821.22743  23789521.2894                   23789519.7034
   7346948.69547   5733811.30945  21463602.0704                   21463597.7544
  11628900.07046   9059827.61342  24547364.7584                   24547363.0664
 11  8  1 18  3 30.0000000  0 10G03G10G07G28G08G13G11G19G06G23
   5395155.66847   4217443.14544  21856868.4304                   21856866.4104
   2167085.66846   1719708.17243  24284137.8204                   24284138.0234
  -7626880.93447  -5908361.92645  21332780.4144                   21332776.9454
   3858896.50046   3682898.30943  23751707.7504                   23751706.9024
  -6899706.59047  -4662571.02043  23099667.3524                   23099665.1644
   -405097.99247   -293336.37546  20227924.6094                   20227921.3244
   5356624.53946   4217715.39143  23811456.4614                   23811457.2704
  -4191282.10947  -3236036.44945  20920390.0634                   20920384.6374
   8248103.90646   6439693.85243  23785338.3594                   23785337.1134
   7324163.58247   5716056.59445  21459266.7194                   21459262.5274
 11  8  1 18  4  0.0000000  0 10G03G10G07G28G08G13G11G19G06G23
   5362151.74247   4191725.77044  21850587.9614                   21850585.8834
   2099831.89546   1667302.52043  24271339.7584                   24271340.2584
  -7789044.53147  -6034723.16445  21301921.6804                   21301918.6564
   3687774.93846   3549556.96143  23719144.3594                   23719143.3134
  -7083250.94147  -4805592.54344  23064739.3364                   23064737.4774
   -478286.01247   -350366.02046  20213997.3204                   20213994.4064
   5165663.07846   4068914.41443  23775117.5234                   23775118.4384
  -4292261.15647  -3314721.43445  20901174.0864                   20901169.0744
   8226288.64546   6422694.93443  23781186.2114                   23781185.0904
   7301649.53947   5698513.09445  21454982.2664                   21454977.7234
 11  8  1 18  4 30.0000000  0 10G03G10G07G28G08G13G11G19G06G23
   5329494.35247   4166278.43844  21844373.2344                   21844371.6454
   2032785.41046   1615058.43843  24258581.2664                   24258582.2974
  -7951174.41447  -6161058.12145  21271069.1414                   21271066.1254
   3516787.82446   3416320.35943  23686607.1254                   23686605.3484
  -7266913.80147  -4948706.42244  23029789.8284                   23029787.8324
   -550980.19147   -407010.85546  20200164.2894                   20200160.6254
   4974631.14546   3920058.48842  23738764.8754                   23738765.9734
  -4392705.33647  -3392989.62145  20882060.7814                   20882055.4024
   8204661.91046   6405842.88743  23777072.0944                   23777070.3834
   7279430.59447   5681199.55145  21450754.4224                   21450750.2774
 11  8  1 18  5  0.0000000  0 10G03G10G07G28G08G13G11G19G06G23
   5297184.98447   4141102.28944  21838225.7894                   21838223.3054
   1965948.02346   1562977.24643  24245863.0864                   24245863.3054
  -8113265.18747  -6287362.60945  21240224.1174                   21240221.1914
   3345939.02746   3283191.53943  23654094.7194                   23654093.7704
  -7450690.42247  -5091908.92643  22994818.2344                   22994816.4534
   -623177.46947   -463268.49246  20186425.1174                   20186422.0784
   4783536.14146   3771153.45743  23702401.1174                   23702402.2424
  -4492610.95347  -3470838.15245  20863048.9534                   20863043.6254
   8183225.41846   6389139.09843  23772992.6724                   23772991.0084
   7257508.29347   5664117.15245  21446582.6024                   21446578.5944
 11  8  1 18  5 30.0000000  0 10G03G10G07G28G08G13G11G19G06G23
   5265224.52747   4116198.00444  21832142.8834                   21832140.5664
   1899320.30546   1511059.44143  24233183.9144                   24233184.7814
  -8275312.20747  -6413633.00045  21209387.7664                   21209384.5394
   3175231.58246   3150172.86743  23621609.8524                   23621608.7194
  -7634576.92647  -5235197.07844  22959825.4304                   22959823.4734
   -694875.55947   -519137.14846  20172781.7194                   20172778.6994
   4592383.82846   3622203.78543  23666025.9614                   23666026.9734
  -4591974.97747  -3548264.65245  20844140.1334                   20844135.2894
   8161979.90646   6372584.10243  23768950.2114                   23768947.9024
   7235883.62547   5647266.66845  21442467.5864                   21442463.4694
 11  8  1 18  6  0.0000000  0 10G03G10G07G28G08G13G11G19G06G23
   5233614.44947   4091566.74244  21826128.2424                   21826125.7734
   1832904.12146   1459306.48443  24220545.2814                   24220545.5354
  -8437309.65647  -6539864.75845  21178560.8524                   21178557.5904
   3004669.85546   3017267.78943  23589153.1414                   23589151.7934
  -7818568.13347  -5378566.80543  22924813.1484                   22924811.2274
   -766070.94547   -574614.09046  20159234.0394                   20159230.1214
   4401181.39846   3473215.02043  23629641.3834                   23629642.4384
  -4690793.68447  -3625266.23045  20825335.8204                   20825330.8364
   8140927.17646   6356179.32043  23764943.2894                   23764942.0664
   7214558.15247   5630649.33245  21438409.4534                   21438405.8714
 11  8  1 18  6 30.0000000  0 10G03G10G07G28G08G13G11G19G06G23
   6777768.48847   5294803.63744  22119971.7344                   22119968.6414
   3342114.00046   2635314.10543  24507738.9144                   24507738.8634
  -7023835.55947  -5438456.34845  21447536.0474                   21447532.6684
   4409674.35246   4112076.59043  23856516.7664                   23856515.4654
  -6427242.00847  -4294416.53144  23189573.6024                   23189571.4924
    738652.70747    597897.82046  20445573.4694                   20445570.1334
   5785353.28146   4551790.66443  23893040.3674                   23893041.4384
  -3213648.89847  -2474244.30545  21106426.5164                   21106421.9414
   9695480.59046   7567519.62943  24060764.8364                   24060763.9414
   8768945.38747   6841860.06645  21734199.7584                   21734195.7504
 11  8  1 18  7  0.0000000  0 10G03G10G07G28G08G13G11G19G06G23
   6746842.67247   5270705.56344  22114086.1884                   22114083.5274
   3276104.39546   2583877.96143  24495176.6954                   24495178.4104
  -7185737.92647  -5564614.03145  21416726.5864                   21416723.4924
   4239394.52046   3979391.14543  23824112.6724                   23824112.1374
  -6611448.78946  -4437954.22744  23154520.4844                   23154518.6374
    668450.50847    543194.78946  20432213.9304                   20432210.8364
   5594050.38346   4402723.62543  23856636.4454                   23856636.7774
  -3311386.55947  -2550403.51245  21087828.3444                   21087823.4024
   9674797.25046   7551402.66043  24056829.2974                   24056827.8634
   8748202.21947   6825696.48045  21730252.3284                   21730248.2894
 11  8  1 18  7 30.0000000  0 10G03G10G07G28G08G13G11G19G06G23
   6716256.53947   5246872.18044  22108265.9534                   22108263.5554
   3210295.56646   2532598.23843  24482654.8524                   24482655.6054
  -7347589.64847  -5690732.23845  21385927.6414                   21385924.1884
   4069256.72746   3846816.36743  23791736.8754                   23791735.7974
  -6795760.37547  -4581573.60243  23119446.6644                   23119444.3914
    598744.85547    488878.67246  20418950.1334                   20418946.9844
   5402703.17246   4253622.07043  23820224.4064                   23820224.6484
  -3408582.95747  -2626140.95345  21069332.3984                   21069327.2464
   9654296.21146   7535427.77043  24052928.1334                   24052926.8754
   8727747.63747   6809757.75445  21726360.0944                   21726356.1484
 11  8  1 18  8  0.0000000  0 10G03G10G07G28G08G13G11G19G06G23
   6686004.87547   5223299.43844  22102508.8284                   22102506.9184
   3144683.12946   2481471.59843  24470168.7584                   24470169.6334
  -7509390.73047  -5816810.98845  21355138.1414                   21355134.3834
   3899259.00846   3714350.72743  23759387.1414                   23759386.3244
  -6980178.13346  -4725275.70744  23084353.6174                   23084351.8014
    529532.75447    434947.13746  20405779.3284                   20405775.9534
   5211312.64146   4104486.76243  23783803.5004                   23783803.9064
  -3505240.67647  -2701458.63746  21050939.3204                   21050934.2704
   9633973.16046   7519591.61342  24049060.2664                   24049059.3134
   8707577.30147   6794040.51644  21722521.9384                   21722517.8634
 11  8  1 18  8 30.0000000  0 10G03G10G07G28G08G13G11G19G06G23
   6656082.61747   5199983.35244  22096815.7034                   22096812.8594
   3079261.49246   2430493.59443  24457720.2344                   24457720.1764
  -7671142.68447  -5942851.45745  21324357.2424                   21324353.9774
   3729398.49646   3581991.98043  23727063.1484                   23727062.6914
  -7164704.23847  -4869062.25044  23049238.5704                   23049237.3324
    460810.65647    381397.42646  20392701.6644                   20392698.5864
   5019879.10946   3955317.93843  23747375.0944                   23747375.3554
  -3601362.94947  -2776359.11745  21032647.8754                   21032642.7814
   9613822.75046   7503889.93442  24045227.7504                   24045225.0314
   8687685.84847   6778540.60545  21718736.6884                   21718732.4304
 11  8  1 18  9  0.0000000  0 10G03G10G07G28G08G13G11G19G06G23
   6626486.53147   5176921.43444  22091183.1414                   22091180.9414
   3014027.71146   2379661.97343  24445306.6804                   24445306.9414
  -7832844.25847  -6068852.66445  21293586.2424                   21293583.2424
   3559674.12146   3449739.35243  23694766.5554                   23694764.8524
  -7349337.80147  -5012932.51244  23014104.4774                   23014102.7504
    392576.38347    328227.84046  20379717.4144                   20379714.1294
   4828405.11746   3806117.59443  23710938.2504                   23710938.9344
  -3696950.72347  -2850843.08645  21014457.9454                   21014453.0044
   9593841.97346   7488320.42243  24041424.0784                   24041422.6954
   8668070.17647   6763255.57045  21715003.9844                   21714999.9534
 11  8  1 18  9 30.0000000  0 10G03G10G07G28G08G13G11G19G06G23
   6597209.44147   5154108.08244  22085611.4384                   22085610.2344
   2948974.97346   2328971.46543  24432926.5164                   24432927.9494
  -7994498.18747  -6194816.75445  21262824.6724                   21262821.4264
   3390081.32046   3317589.20743  23662493.5004                   23662492.6024
  -7534082.75446  -5156889.57443  22978949.1884                   22978946.5704
    324824.74247    275434.32446  20366824.3834                   20366821.3754
   4636888.74646   3656884.20743  23674493.3674                   23674494.2974
  -3792008.93447  -2924914.42645  20996369.1884                   20996363.7584
   9574024.14546   7472877.93043  24037653.2584                   24037652.1134
   8648723.39847   6748180.06344  21711322.6414                   21711318.6414
 11  8  1 18 10  0.0000000  0 10G03G10G07G28G08G13G11G19G06G23
   6568240.97747   5131535.23044  22080098.8284                   22080097.1484
   2884093.16846   2278414.08643  24420579.9064                   24420580.6884
  -8156110.60547  -6320748.48845  21232071.3594                   21232067.5434
   3220613.06346   3185536.12143  23630245.1644                   23630243.8634
  -7718945.64846  -5300938.53944  22943770.6954                   22943768.7114
    257547.09047    223010.15246  20354022.4384                   20354018.3054
   4445325.73046   3507614.50043  23638041.2584                   23638040.5824
  -3886545.36747  -2998579.18745  20978379.2344                   20978374.2074
   9554359.20746   7457554.57443  24033911.3594                   24033909.5354
   8629635.56347   6733306.34844  21707690.1644                   21707686.2814
 11  8  1 18 10 30.0000000  0 10G03G10G07G28G08G13G11G19G06G23
   6539578.11347   5109200.51644  22074644.7114                   22074643.1604
   2819378.85546   2227987.26643  24408265.5944                   24408266.9694
  -8317680.69947  -6446647.24245  21201325.3364                   21201322.2194
   3051268.28546   3053579.26243  23598020.2114                   23598018.6174
  -7903926.12947  -5445079.14144  22908570.1334                   22908567.5044
    190741.40648    170953.74245  20341309.1644                   20341305.6954
   4253718.47346   3358310.34843  23601578.9924                   23601579.0394
  -3980561.62947  -3071838.61345  20960488.8364                   20960483.9064
   9534844.01646   7442347.89543  24030197.2194                   24030195.8284
   8610803.31647   6718631.78144  21704106.4144                   21704102.8954
 11  8  1 18 11  0.0000000  0 10G03G10G07G28G08G13G11G19G06G23
   6511220.18447   5087103.38744  22069248.7424                   22069246.7624
   2754831.44546   2177690.48443  24395982.8834                   24395983.5434
  -8479204.76247  -6572510.12545  21170587.8914                   21170585.0634
   2882048.36746   2921719.68043  23565818.2424                   23565816.9804
  -8089021.07047  -5589308.93744  22873347.5004                   22873345.4454
    124408.89847    119266.04746  20328686.6254                   20328683.8874
   4062071.57046   3208975.23843  23565109.9694                   23565109.7274
  -4074056.54747  -3144691.80545  20942697.3914                   20942692.4654
   9515477.88346   7427257.39543  24026512.1954                   24026510.2114
   8592226.09847   6704155.94544  21700571.3444                   21700567.7774
 11  8  1 18 11 30.0000000  0 10G03G10G07G28G08G13G11G19G06G23
   6483155.26247   5065234.59844  22063908.6254                   22063905.9494
   2690439.62546   2127514.95343  24383729.7584                   24383731.4414
  -8640689.75047  -6698342.56645  21139858.8134                   21139854.8714
   2712944.59046   2789950.62543  23533638.5164                   23533637.2344
  -8274238.01247  -5733633.79344  22838101.7344                   22838099.3324
     58539.33648     67939.08645  20316152.3984                   20316148.9454
   3870379.63746   3059605.09442  23528631.1414                   23528631.7624
  -4167039.26647  -3217145.87945  20925003.1724                   20924998.3164
   9496249.90646   7412274.55143  24022853.1334                   24022851.1094
   8573892.67247   6689870.05544  21697082.9064                   21697079.1724
 11  8  1 18 12  0.0000000  0 10G03G10G07G28G08G13G11G19G06G23
   6455380.60947   5043591.98044  22058622.9144                   22058620.6094
   2626200.71546   2077458.57043  24371506.0004                   24371506.6174
  -8802134.46147  -6824143.62145  21109136.7194                   21109133.2384
   2543956.66846   2658271.81643  23501481.4844                   23501479.7464
  -8459576.31247  -5878053.19544  22802833.0394                   22802830.8834
     -6868.33647     16972.03545  20303705.2274                   20303701.8524
   3678645.79746   2910202.31643  23492145.9924                   23492144.9574
  -4259510.42647  -3289201.33245  20907406.5704                   20907401.5984
   9477157.46146   7397397.30943  24019220.4924                   24019218.3094
   8555800.37547   6675772.07444  21693640.6484                   21693636.5234
 11  8  1 18 12 30.0000000  0 10G03G10G07G28G08G13G11G19G06G23
   6427896.51647   5022175.77343  22053392.9614                   22053390.7034
   2562115.08246   2027521.61342  24359310.6254                   24359311.3134
  -8963534.71147  -6949910.03545  21078423.2814                   21078419.8164
   2375087.14546   2526685.25843  23469346.4384                   23469344.8674
  -8645032.55147  -6022564.51244  22767541.5004                   22767539.3914
    -71812.71547    -33634.00045  20291346.6484                   20291343.6564
   3486875.44146   2760771.05943  23455652.9614                   23455652.1724
  -4351467.97747  -3360856.57845  20889907.6804                   20889902.6024
   9458200.74246   7382625.79343  24015612.9384                   24015611.6094
   8537949.04747   6661861.85544  21690243.1334                   21690239.7544
 11  8  1 18 13  0.0000000  0 10G03G10G07G28G08G13G11G19G06G23
   6400692.84847   5000978.05944  22048215.6564                   22048214.0474
   2498172.68446   1977696.25842  24347142.2664                   24347143.9224
  -9124896.00447  -7075646.08645  21047717.3524                   21047713.6374
   2206328.22346   2395184.89543  23437232.3834                   23437231.6054
  -8830613.14147  -6167172.73043  22732227.3054                   22732225.0554
   -136302.81247    -83886.05546  20279074.8674                   20279071.6134
   3295064.23046   2611308.02343  23419152.4304                   23419152.0434
  -4442920.09047  -3432117.96545  20872505.2114                   20872499.6334
   9439369.87946   7367952.36743  24012029.6174                   24012027.9574
   8520328.87547   6648131.76644  21686890.3524                   21686886.4454
 11  8  1 18 13 30.0000000  0 10G03G10G07G28G08G13G11G19G06G23
   7949187.00047   6207596.85244  22342885.2504                   22342883.0594
   4009792.01846   3155581.34642  24634794.8364                   24634795.2704
  -7710792.16047  -5973746.96945  21316812.2664                   21316808.6804
   3613104.55546   3491374.34043  23704932.7974                   23704931.8754
  -7440891.44147  -5084272.68044  22996681.9454                   22996679.7424
   1375081.41447   1093815.91446  20566681.5164                   20566678.5664
   4678640.71546   3689419.78143  23682438.1724                   23682437.7664
  -2958445.31647  -2275384.36745  21154990.5004                   21154986.4804
  10996082.13346   8580974.83643  24308261.2974                   24308260.7034
  10078357.03147   7862179.57844  21983373.2194                   21983369.6454
 11  8  1 18 14  0.0000000  0 10G03G10G07G28G08G13G11G19G06G23
   7922538.18846   6186831.49244  22337814.2664                   22337811.7774
   3946130.12546   3105974.59842  24622680.5314                   24622681.8484
  -7872068.51247  -6099416.84445  21286122.0634                   21286119.3954
   3444568.50446   3360047.64543  23672862.1094                   23672860.6524
  -7626714.68747  -5229069.99244  22961321.3204                   22961319.1214
   1311498.41047   1044270.68446  20554582.5634                   20554578.9924
   4486758.94146   3539901.70743  23645923.1254                   23645923.6644
  -3048886.86747  -2345858.30545  21137780.2974                   21137775.1954
  10977497.77346   8566493.47743  24304725.4774                   24304724.2074
  10061193.28547   7848805.14544  21980107.0164                   21980103.9614
 11  8  1 18 14 30.0000000  0 10G03G10G07G28G08G13G11G19G06G23
   7896164.48447   6166280.52344  22332795.4534                   22332793.1214
   3882606.69146   3056475.79742  24610591.6334                   24610593.8244
  -8033298.10247  -6225050.27345  21255441.4144                   21255438.2814
   3276145.64146   3228809.18043  23640811.3204                   23640810.3674
  -7812656.14147  -5373959.39144  22925937.4454                   22925935.1724
   1248369.28147    995079.12946  20542569.1414                   20542566.1334
   4294848.82046   3390361.53143  23609404.2424                   23609404.3364
  -3138822.02747  -2415937.63745  21120667.0554                   21120661.7034
  10959035.29746   8552107.07043  24301211.9774                   24301210.7624
  10044256.25847   7835607.35544  21976884.1644                   21976880.3874
 11  8  1 18 15  0.0000000  0 10G03G10G07G28G08G13G11G19G06G23
   7870060.29347   6145939.57444  22327828.4144                   22327825.7934
   3819216.10546   3007080.31642  24598529.2274                   24598531.6684
  -8194482.16047  -6350648.23045  21224769.3524                   21224765.5554
   3107832.46146   3097656.14843  23608782.4774                   23608781.6484
  -7998717.61747  -5518942.31644  22890531.5084                   22890529.2974
   1185689.49247    946237.70346  20530641.7344                   20530638.6334
   4102909.81646   3240798.89843  23572879.0084                   23572879.7934
  -3228255.01647  -2485625.67245  21103648.2974                   21103642.5744
  10940688.93046   8537811.12143  24297720.5554                   24297719.5744
  10027539.98047   7822581.59044  21973703.4694                   21973699.5394
 11  8  1 18 15 30.0000000  0 10G03G10G07G28G08G13G11G19G06G23
   7844225.46947   6125808.50844  22322911.3914                   22322909.3134
   3755957.90245   2957788.16442  24586492.7274                   24586494.1644
  -8355616.98847  -6476207.82445  21194106.2424                   21194102.8554
   2939631.21146   2966590.32443  23576775.6884                   23576774.0904
  -8184895.54747  -5664015.97344  22855102.8054                   22855101.0084
   1123459.80547    897747.00845  20518800.0004                   20518797.1094
   3910947.57046   3091218.10543  23536350.5084                   23536350.3014
  -3317184.27347  -2554921.18445  21086724.8674                   21086720.0904
  10922458.73446   8523605.68443  24294252.5634                   24294250.5824
  10011044.16847   7809727.60945  21970564.2584                   21970561.2544
 11  8  1 18 16  0.0000000  0 10G03G10G07G28G08G13G11G19G06G23
   7818650.88347   6105880.22344  22318045.0704                   22318042.6914
   3692823.56645   2908592.52042  24574478.6024                   24574481.0784
  -8516706.41847  -6601732.04745  21163451.7504                   21163448.4024
   2771535.53546   2835606.78143  23544787.0394                   23544786.7664
  -8371194.70747  -5809184.11744  22819650.6254                   22819649.2154
   1061673.00447    849601.42246  20507042.3204                   20507039.3954
   3718959.12946   2941616.87543  23499815.9064                   23499815.6524
  -3405616.45347  -2623829.35545  21069896.7814                   21069892.0944
  10904336.10546   8509484.08643  24290803.3054                   24290802.2934
   9994760.34847   7797038.80544  21967465.3754                   21967462.5234
 11  8  1 18 16 30.0000000  0 10G03G10G07G28G08G13G11G19G06G23
   7793339.41846   6086156.99643  22313228.8444                   22313226.2234
   3629816.137 5                  24562487.023
  -8677743.38347  -6727215.37945  21132807.3834                   21132803.9064
   2603550.83246   2704709.75443  23512820.8054                   23512819.6564
  -8557608.59447  -5954441.64844  22784177.7034                   22784175.9224
   1000333.19947    801804.13746  20495370.1024                   20495366.2584
   3526953.26646   2792002.08243  23463278.2344                   23463278.1294
  -3493546.86347  -2692346.54345  21053164.4454                   21053159.3984
  10886324.23845   8495448.82443  24287375.7664                   24287374.8404
   9978691.25047   7784517.33244  21964407.4384                   21964404.6454
 11  8  1 18 17  0.0000000  0 10G03G10G07G28G08G13G11G19G06G23
   7768285.16446   6066634.18444  22308460.0314                   22308458.4734
   3566929.938 5                  24550521.742
  -8838729.25447  -6852658.90245  21102172.6644                   21102169.6294
   2435674.11746   2573896.80543  23480875.3134                   23480873.7234
  -8744139.09847  -6099790.06644  22748682.3364                   22748680.3754
    939435.95347    754351.71546  20483781.3284                   20483778.0664
   3334929.83646   2642373.59043  23426737.4304                   23426737.0514
  -3580979.21147  -2760475.62945  21036526.3444                   21036521.3834
  10868417.83246   8481495.69143  24283968.8674                   24283966.8634
   9962831.48047   7772158.96544  21961389.6884                   21961386.5514
 11  8  1 18 17 30.0000000  0 10G03G10G07G28G08G13G11G19G06G23
   7743482.20346   6047307.18044  22303740.9064                   22303738.4064
   3504158.617 5                  24538576.242
  -8999665.68747  -6978063.90645  21071547.5864                   21071544.1214
   2267901.25046   2443164.81643  23448948.7974                   23448947.0554
  -8930788.48447  -6245231.12144  22713163.7194                   22713161.8594
    878976.64147    707240.53545  20472276.3984                   20472273.2234
   3142888.74646   2492731.34443  23390192.9454                   23390192.4924
  -3667918.28147  -2828220.33645  21019982.4614                   21019977.8014
  10850610.82446   8467620.00043  24280580.8914                   24280579.2464
   9947174.71147   7759958.77744  21958411.1484                   21958407.1214
 11  8  1 18 18  0.0000000  0 10G03G10G07G28G08G13G11G19G06G23
   7718932.73046   6028177.68844  22299068.9844                   22299067.0124
   3441504.582 5                  24526653.664
  -9160546.15247  -7103425.29745  21040933.2114                   21040929.8914
   2100236.77746   2312517.30943  23417042.7734                   23417041.9384
  -9117551.02347  -6390760.32444  22677624.2424                   22677622.2934
    818958.37947    660473.03146  20460856.2504                   20460852.3094
   2950837.93046   2343081.50043  23353646.2424                   23353646.3014
  -3754360.22347  -2895577.68445  21003533.0784                   21003528.4654
  10832905.81646   8453823.89142  24277211.4224                   24277209.8914
   9931723.28147   7747918.58644  21955470.2734                   21955467.2504
 11  8  1 18 18 30.0000000  0  9G03G07G28G08G13G11G19G06G23
   7694638.40646   6009247.04344  22294445.7114                   22294444.1604
  -9321364.62947  -7228738.38745  21010330.2814                   21010327.1604
   1932684.94946   2181957.55143  23385158.8834                   23385157.9574
  -9304420.93747  -6536373.21144  22642064.1414                   22642061.9344
    759384.10547    614051.48845  20449518.3984                   20449515.4774
   2758784.52046   2193429.63343  23317100.1804                   23317099.2344
  -3840301.61347  -2962544.98845  20987178.7734                   20987174.0514
  10815304.78546   8440108.75842  24273861.0784                   24273861.0984
   9916478.93047   7736039.76244  21952569.9694                   21952566.0124
 11  8  1 18 19  0.0000000  0  9G03G07G28G08G13G11G19G06G23
   7670584.87946   5990504.01644  22289868.5784                   22289866.9064
  -9482130.71147  -7354010.65645  20979737.5234                   20979734.2034
   1765234.12546   2051476.48843  23353294.1024                   23353292.6134
  -9491408.59847  -6682077.83644  22606481.3204                   22606478.8874
    700240.85548    567965.81345  20438264.0004                   20438260.5904
   2566720.32046   2043769.35943  23280551.6884                   23280550.7504
  -3925754.72747  -3029131.83245  20970917.7034                   20970912.9104
  10797793.78946   8426463.78942  24270529.2034                   24270529.2114
   9901427.39147   7724311.18044  21949705.6094                   21949702.4534
 11  8  1 18 19 30.0000000  0  9G03G07G28G08G13G11G19G06G23
   7646790.46946   5971962.87944  22285341.7504                   22285339.2344
  -9642821.63348  -7479224.34045  20949159.2424                   20949155.8794
   1597905.14546   1921090.38343  23321452.5474                   23321450.9454
  -9678491.39547  -6827856.61744  22570880.8674                   22570878.7274
    641548.23047    522231.27746  20427095.2664                   20427091.8834
   2374669.94946   1894119.88743  23244005.3524                   23244004.5084
  -4010699.25847  -3095322.38745  20954753.2424                   20954748.3794
  10780391.73046   8412903.71142  24267219.0474                   24267216.9884
   9886587.44147   7712747.44944  21946881.9534                   21946878.1454
 11  8  1 18 20  0.0000000  0  9G03G07G28G08G13G11G19G06G23
   7623257.38346   5953625.39544  22280862.3594                   22280860.5434
  -9803430.53947  -7604374.12945  20918595.8524                   20918593.0784
   1430702.46546   1790802.66843  23289634.6724                   23289633.7544
  -9865663.19147  -6973704.72744  22535263.9774                   22535260.8364
    583309.74647    476850.60546  20416012.7034                   20416009.7854
   2182641.35546   1744487.34843  23207463.4774                   23207462.0394
  -4095131.64547  -3161113.86345  20938686.5704                   20938681.3984
  10763101.08246   8399430.44542  24263927.5084                   24263926.9694
   9871961.13747   7701350.22344  21944098.8754                   21944094.8714
 11  8  1 18 20 30.0000000  0  9G03G07G28G08G13G11G19G06G23
   9175404.68446   7163090.80143  22576226.4454                   22576224.3634
  -8388529.87547  -6501854.11745  21187843.0554                   21187839.5234
   2839052.02346   2888218.01643  23557633.9454                   23557633.1844
  -8477496.25447  -5892016.18744  22799423.0944                   22799420.2894
   2100946.24647   1659424.46945  20704809.6884                   20704806.4344
   3566064.46146   2822479.48443  23470720.3984                   23470719.0274
  -2603629.30147  -1998904.26245  21222510.0394                   21222504.7424
  12321340.73846   9613643.14842  24560450.9144                   24560449.7114
  11432967.07047   8917718.37144  22241148.6024                   22241144.5474
 11  8  1 18 21  0.0000000  0  9G03G07G28G08G13G11G19G06G23
   9152385.26646   7145153.56344  22571846.2894                   22571844.2664
  -8548970.60247  -6626872.84445  21157312.5084                   21157308.7894
   2672100.23446   2758125.79343  23525865.0864                   23525863.3984
  -8664843.69547  -6038001.17644  22763771.5784                   22763769.4304
   2043609.91447   1614746.78545  20693898.8364                   20693895.9694
   3374087.34446   2672887.09443  23434187.8054                   23434186.9924
  -2687041.32047  -2063900.67645  21206637.0234                   21206632.5204
  12304264.61746   9600337.05542  24557200.5234                   24557200.1684
  11418759.18047   8906647.17644  22238444.4774                   22238441.1414
 11  8  1 18 21 30.0000000  0  9G03G07G28G08G13G11G19G06G23
   9129625.17646   7127418.36744  22567515.4614                   22567513.0394
  -8709317.80947  -6751818.71945  21126799.0314                   21126795.6564
   2505280.25446   2628136.29743  23494119.6094                   23494118.2114
  -8852270.60947  -6184048.09044  22728105.0864                   22728103.1764
   1986729.19947   1570424.11745  20683074.5704                   20683071.8244
   3182147.69546   2523323.87943  23397662.9614                   23397662.0274
  -2769938.08647  -2128495.57045  21190862.6484                   21190857.5864
  12287298.96946   9587117.03943  24553973.1804                   24553971.8324
  11404763.48047   8895741.30944  22235781.5474                   22235778.3014
 11  8  1 18 22  0.0000000  0  9G03G07G28G08G13G11G19G06G23
   9107120.13346   7109881.94543  22563232.2894                   22563230.2584
  -8869571.52747  -6876691.71945  21096304.0314                   21096300.3054
   2338589.76646   2498247.71143  23462399.6484                   23462397.8204
  -9039777.58247  -6330157.38344  22692423.9774                   22692421.3914
   1930300.82847   1526453.93446  20672337.0474                   20672333.6764
   2990246.77746   2373790.84843  23361145.6804                   23361144.3594
  -2852322.51647  -2192691.24245  21175185.1954                   21175180.2464
  12270439.70746   9573979.91043  24550764.6954                   24550764.0864
  11390975.10947   8884997.02744  22233157.2344                   22233154.4304
 11  8  1 18 22 30.0000000  0  9G03G07G28G08G13G11G19G06G23
   9084877.27046   7092549.81644  22559000.6644                   22558997.6954
  -9029720.06247  -7001482.78545  21065828.8754                   21065824.6954
   2172038.80546   2368467.83243  23430705.8754                   23430704.5904
  -9227352.88347  -6476319.92644  22656729.8134                   22656727.0664
   1874332.91447   1482842.53545  20661686.3284                   20661683.7234
   2798397.82046   2224298.30943  23324637.7814                   23324636.7774
  -2934185.62547  -2256480.69145  21159607.1254                   21159602.3054
  12253694.38146   9560931.57243  24547578.4694                   24547576.8284
  11377401.90647   8874420.37144  22230574.8204                   22230571.8594
 11  8  1 18 23  0.0000000  0  9G03G07G28G08G13G11G19G06G23
   9062885.23446   7075413.12143  22554815.0944                   22554812.9064
  -9189770.08247  -7126197.07445  21035372.0864                   21035368.5434
   2005618.07846   2238789.42643  23399037.4064                   23399035.2584
  -9415003.91447  -6622541.46544  22621020.6254                   22621018.1374
   1818815.10547   1439581.87945  20651121.7114                   20651118.9184
   2606595.04746   2074841.77743  23288138.9454                   23288137.4454
  -3015537.39547  -2319871.68745  21144126.5554                   21144121.7424
  12237052.16846   9547963.57443  24544411.6564                   24544410.7544
  11364032.03547   8864002.16444  22228030.8914                   22228027.2814
 11  8  1 18 23 30.0000000  0  9G03G07G28G08G13G11G19G06G23
   9041139.19946   7058468.14143  22550676.4304                   22550674.5274
  -9349721.51247  -7250834.53945  21004934.5394                   21004930.9304
   1839325.54746   2109210.88343  23367392.5394                   23367391.0554
  -9602731.13347  -6768822.38744  22585297.1334                   22585294.9884
   1763743.93047   1396669.25045  20640642.3284                   20640639.0664
   2414839.90246   1925422.34043  23251648.6024                   23251647.8914
  -3096381.04347  -2382866.74245  21128742.4534                   21128737.9494
  12220508.43046   9535072.30142  24541263.5004                   24541262.2974
  11350861.02747   8853738.91844  22225524.2344                   22225520.9774
 11  8  1 18 24  0.0000000  0  9G03G07G28G08G13G11G19G06G23
   9019634.39146   7041711.12943  22546584.4614                   22546582.5984
  -9509574.87147  -7375395.59045  20974514.9224                   20974511.7584
   1673158.46946   1979730.12943  23335771.8444                   23335770.1684
  -9790536.02047  -6915163.82844  22549559.3914                   22549556.8324
   1709115.39548   1354101.52045  20630246.9064                   20630243.6884
   2223133.16846   1776040.63343  23215168.5234                   23215167.1524
  -3176719.80947  -2445468.37145  21113454.5944                   21113449.4924
  12204058.74245   9522254.37942  24538132.6954                   24538132.5004
  11337884.03947   8843626.85944  22223055.1804                   22223051.7664
 11  8  1 18 24 30.0000000  0  8G03G07G28G08G13G11G19G23
   8998370.72746   7025142.00843  22542538.6724                   22542535.8794
  -9669326.02347  -7499877.00445  20944115.2504                   20944111.7114
   1507119.12946   1850348.94543  23304175.2664                   23304173.5594
  -9978414.81247  -7061562.84844  22513807.0314                   22513804.4774
   1654930.37147   1311879.39545  20619935.4844                   20619932.6564
   2031480.92646   1626701.38743  23178698.1334                   23178696.3054
  -3256552.30547  -2507675.50045  21098263.1094                   21098257.6214
  11325100.92647   8833665.88344  22220622.8284                   22220619.2074
 11  8  1 18 25  0.0000000  0  8G03G07G28G08G13G11G19G23
   8977350.15646   7008762.30543  22538538.9614                   22538535.8014
  -9828968.35247  -7624273.60545  20913736.7734                   20913733.0354
   1341211.87546   1721070.64143  23272604.7344                   23272602.8674
 -10166360.44947  -7208013.94544  22478041.7274                   22478039.7734
   1601191.64547   1270005.03545  20609709.9694                   20609706.5274
   1839890.98946   1477410.69443  23142239.3364                   23142238.0944
  -3335875.34047  -2569485.63745  21083168.2734                   21083163.5664
  11312513.90247   8823857.68444  22218227.7504                   22218224.4774
 11  8  1 18 25 30.0000000  0  8G03G07G28G08G13G11G19G23
   8956566.90246   6992567.55543  22534583.7734                   22534581.2894
  -9988502.73047  -7748586.09845  20883378.2344                   20883374.4734
   1175433.25446   1591892.59843  23241058.4614                   23241056.4654
 -10354375.09847  -7354518.83244  22442263.9454                   22442261.5784
   1547894.79347   1228474.98845  20599566.9844                   20599564.1174
   1648363.14146   1328168.42243  23105791.9144                   23105791.7424
  -3414692.87947  -2630901.89545  21068169.6024                   21068164.4574
  11300117.18047   8814197.75044  22215868.7274                   22215865.6054
 11  8  1 18 26  0.0000000  0  8G03G07G28G08G13G11G19G23
   8936022.99246   6976559.25843  22530674.3284                   22530672.6174
 -10147922.64847  -7872809.39845  20853041.6254                   20853038.0664
   1009787.57846   1462818.12943  23209536.3364                   23209534.8984
 -10542452.81647  -7501072.87144  22406474.0474                   22406471.3874
   1495042.70747   1187291.50445  20589510.0394                   20589507.3164
   1456905.60246   1178980.89543  23069358.2734                   23069357.7704
  -3493001.82847  -2691921.82045  21053267.2814                   21053262.8984
  11287912.55547   8804687.53544  22213545.5784                   22213543.3284
 11  8  1 18 26 30.0000000  0  8G03G07G28G08G13G11G19G23
   8915719.43446   6960738.30143  22526810.7344                   22526808.6294
 -10307222.13747  -7996938.86745  20822727.6094                   20822724.1724
    844278.93846   1333850.46143  23178040.2194                   23178039.5824
 -10730587.80947  -7647671.52744  22370673.2194                   22370670.7934
   1442637.71147   1146456.41845  20579538.0234                   20579534.6254
   1265525.82046   1029853.94943  23032940.1334                   23032939.2194
  -3570799.18047  -2752543.12145  21038463.7734                   21038459.1414
  11275901.94547   8795328.48444  22211260.9224                   22211257.4964
 11  8  1 18 27  0.0000000  0  8G03G07G28G08G13G11G19G23
  10471064.86746   8172695.74243  22822782.5474                   22822780.6024
  -8890983.63347  -6893376.38345  21092228.7424                   21092225.2934
   2254322.90246   2432586.12543  23446363.4844                   23446361.9964
  -9343362.34447  -6566716.58244  22634653.7814                   22634650.9804
   2966090.09447   2333562.12545  20869441.1484                   20869438.0594
   2649643.72346   2108387.53143  23296328.7894                   23296327.8674
  -2072673.28547  -1585172.28545  21323547.7504                   21323542.6024
  12839493.35547  10013711.27344  22508802.1094                   22508799.7464
 11  8  1 18 27 30.0000000  0  8G03G07G28G08G13G11G19G23
  10451226.50446   8157237.22343  22819007.8524                   22819006.1524
  -9050044.78147  -7017320.13345  21061960.4384                   21061956.9844
   2089078.84846   2303824.59443  23414919.0394                   23414917.1564
  -9531616.66847  -6713408.21144  22598829.3524                   22598827.2974
   2914565.65647   2293413.18845  20859636.4144                   20859633.4774
   2458420.74646   1959382.77043  23259940.7584                   23259939.4144
  -2149459.65647  -1645005.80545  21308935.5784                   21308930.5274
  12827854.04347  10004641.52744  22506587.4144                   22506584.7034
 11  8  1 18 28  0.0000000  0  8G03G07G28G08G13G11G19G23
  10431612.09446   8141953.25843  22815274.9224                   22815273.4454
  -9208988.03947  -7141172.00045  21031715.0004                   21031711.2074
   1923962.46546   2175162.57844  23383497.8914                   23383496.4344
  -9719932.25847  -6860147.60944  22562994.3674                   22562991.8444
   2863474.63347   2253601.95745  20849914.3134                   20849910.9104
   2267276.67646   1810439.48843  23223566.8524                   23223566.0664
  -2225746.99647  -1704450.47345  21294418.3054                   21294413.4964
  12816392.20347   9995710.09044  22504406.7664                   22504403.7034
 11  8  1 18 28 30.0000000  0  8G03G07G28G08G13G11G19G23
  10412209.45746   8126834.25043  22811583.7194                   22811581.4184
  -9367821.89147  -7264938.63745  21001489.6484                   21001486.2734
   1758963.16447   2046591.78143  23352099.3444                   23352097.6374
  -9908317.54347  -7006941.29744  22527145.7894                   22527143.0784
   2812804.96947   2214119.07445  20840272.3524                   20840269.0514
   2076204.80546   1661552.43043  23187207.4064                   23187206.1604
  -2301546.60247  -1763515.08645  21279994.5704                   21279989.6724
  12805094.89547   9986906.86744  22502257.6254                   22502254.1604
 11  8  1 18 29  0.0000000  0  8G03G07G28G08G13G11G19G23
  10393024.60246   8111884.96543  22807932.5234                   22807930.5554
  -9526534.93047  -7388611.12545  20971287.9844                   20971284.2704
   1594089.65647   1918119.02744  23320725.0864                   23320723.4224
 -10096762.36347  -7153781.39544  22491286.2504                   22491283.4144
   2762563.79748   2174970.07845  20830711.2814                   20830708.2504
   1885217.50446   1512731.27343  23150863.8204                   23150862.1994
  -2376851.23047  -1822194.01645  21265664.1094                   21265659.0704
  12793968.72347   9978236.97744  22500139.4774                   22500137.1134
 11  8  1 18 29 30.0000000  0  8G03G07G28G08G13G11G19G23
  10374053.21546   8097102.05143  22804323.3594                   22804320.8754
  -9685126.73447  -7512189.14546  20941108.8674                   20941104.8524
   1429340.11747   1789742.85244  23289374.2344                   23289372.3594
 -10285266.75447  -7300667.91044  22455414.5474                   22455412.1914
   2712748.32847   2136152.79345  20821232.4454                   20821229.1174
   1694316.36346   1363977.26243  23114537.2424                   23114534.7464
  -2451662.87947  -1880488.80545  21251427.7974                   21251423.3284
  12783009.54347   9969697.20344  22498054.4844                   22498051.8244
 11  8  1 18 30  0.0000000  0  8G03G07G28G08G13G11G19G23
  10355287.41046   8082479.28943  22800751.4304                   22800749.4494
  -9843601.26647  -7635675.78545  20910951.7344                   20910948.2934
   1264708.56347   1661458.61343  23258045.6954                   23258044.1724
 -10473834.73847  -7447603.94944  22419531.1564                   22419529.0354
   2663350.48447   2097660.93445  20811831.8444                   20811829.2154
   1503499.09847   1215288.56643  23078225.2584                   23078223.7704
  -2525989.19547  -1938405.41845  21237284.3594                   21237279.5434
  12772208.96947   9961281.01244  22495999.6804                   22495996.6254
 11  8  1 18 30 30.0000000  0  8G03G07G28G08G13G11G19G23
  10336733.69546   8068021.82443  22797220.5314                   22797219.0274
 -10001946.84447  -7759061.94145  20880819.8594                   20880816.1374
   1100204.18046   1533273.48843  23226742.0704                   23226740.0864
 -10662455.64147  -7594581.24244  22383637.8524                   22383635.3444
   2614377.88748   2059500.43045  20802512.9774                   20802509.8634
   1312778.23047   1066674.98443  23041932.4534                   23041930.2074
  -2599822.15247  -1995937.60945  21223234.3364                   21223229.8444
  12761573.55547   9952993.53544  22493975.1334                   22493972.6954
 11  8  1 18 31  0.0000000  0  8G03G07G28G08G13G11G19G23
  10318377.91846   8053718.59043  22793727.9694                   22793725.8524
 -10160172.98847  -7882355.03145  20850710.3594                   20850706.9614
    935815.05946   1405178.15243  23195459.4454                   23195457.5004
 -10851138.91047  -7741607.13744  22347732.8134                   22347729.8794
   2565817.76647   2021661.35545  20793272.1484                   20793269.1954
   1122146.00047    918130.46143  23005655.2504                   23005654.0784
  -2673174.58247  -2053095.34845  21209275.7894                   21209271.1724
  12751089.66847   9944824.11744  22491980.7664                   22491977.7624
 11  8  1 18 31 30.0000000  0  8G03G07G28G08G13G11G19G23
  10300223.92246   8039572.59443  22790273.0864                   22790271.3054
 -10318271.32447  -8005548.52745  20820624.7114                   20820621.5984
    771547.22747   1277177.32443  23164200.3204                   23164198.0234
 -11039876.62947  -7888675.47344  22311817.3984                   22311814.8674
   2517673.83647   1984146.55945  20784110.3204                   20784107.6134
    931611.82846    769662.35243  22969398.2344                   22969396.6024
  -2746041.80947  -2109875.00845  21195409.5394                   21195404.6454
  12740760.60547   9936775.34443  22490015.0864                   22490012.5044
 11  8  1 18 32  0.0000000  0  8G03G07G28G08G13G11G19G23
  10282268.99646   8025581.72743  22786856.3594                   22786854.3524
 -10476239.93747  -8128640.95746  20790564.8754                   20790561.3714
    607400.58646   1149270.93843  23132964.1024                   23132962.2114
 -11228667.40647  -8035785.14144  22275891.4534                   22275888.9344
   2469944.62147   1946954.93445  20775027.8674                   20775024.9184
    741179.24246    621273.39143  22933160.2034                   22933157.7234
  -2818424.95747  -2166277.46145  21181635.7114                   21181630.7734
  12730584.27347   9928845.58244  22488079.0004                   22488076.1254
 11  8  1 18 32 30.0000000  0  8G03G07G28G08G13G11G19G23
  10264501.09846   8011736.54343  22783475.3054                   22783473.0474
 -10634086.43747  -8251638.21946  20760527.0864                   20760524.0904
    443364.18046   1021450.45743  23101748.6024                   23101746.6484
 -11417519.18747  -8182942.34044  22239953.9304                   22239951.6254
   2422618.14147   1910077.12145  20766022.2194                   20766019.4264
    550841.40246    472958.28143  22896939.4304                   22896938.2114
  -2890335.76247  -2222311.86745  21167951.5474                   21167946.5434
  12720547.93047   9921024.89144  22486169.2734                   22486166.7194
 11  8  1 18 33  0.0000000  0  8G03G07G28G08G13G11G19G23
  10246924.12546   7998040.16843  22780130.8834                   22780128.7704
 -10791801.93747  -8374533.38746  20730514.8054                   20730511.4494
    279445.21146    893721.46543  23070555.3364                   23070553.8634
 -11606423.44147  -8330140.43044  22204006.7664                   22204004.1724
   2375699.52047   1873517.11745  20757093.5704                   20757090.5514
    360608.54346    324724.96943  22860739.2584                   22860737.8754
  -2961768.62547  -2277973.82445  21154357.9384                   21154353.4344
  12710655.37547   9913316.25444  22484287.4614                   22484284.2584
 11  8  1 18 33 30.0000000  0  8G03G07G28G08G13G11G19G23
  10229523.96546   7984481.57043  22776818.9144                   22776817.8054
 -10949395.72747  -8497333.72745  20700526.1174                   20700522.4614
    115631.96946    766074.88744  23039383.5164                   23039381.3524
 -11795389.97347  -8477387.03144  22168047.5474                   22168044.8674
   2329175.53547   1837264.62545  20748240.5944                   20748237.6884
    170472.91846    176567.43043  22824557.2194                   22824556.4844
  -3032736.18447  -2333273.22345  21140853.3914                   21140848.9884
  12700893.25847   9905709.25044  22482429.2814                   22482426.4104
 11  8  1 18 34  0.0000000  0  8G03G07G28G08G13G11G19G23
  11787723.19946   9198662.73843  23073334.7584                   23073333.2974
  -9531435.88747  -7392429.95346  20970354.8914                   20970351.2704
   1527354.16446   1866118.21944  23308024.9694                   23308022.8204
 -10408986.35247  -7397072.50044  22431871.6414                   22431868.6844
   3858470.53547   3028923.02345  21039255.5474                   21039252.8794
   1555868.61346   1256096.63343  23088188.9844                   23088188.6844
  -1527813.01247  -1160605.80945  21427231.1644                   21427226.2664
  14266683.73447  11125805.56644  22780389.7664                   22780387.1254
 11  8  1 18 34 30.0000000  0  8G03G07G28G08G13G11G19G23
  11770682.63746   9185384.32443  23070092.0554                   23070090.5394
  -9688766.39847  -7515025.14545  20940415.9534                   20940412.2114
   1363764.91446   1738646.14144  23276894.6804                   23276892.7234
 -10598059.20747  -7544401.96944  22395892.1414                   22395889.1644
   3812743.63747   2993291.64545  21030554.3284                   21030551.5664
   1365950.98846   1108108.99643  23052048.8834                   23052048.1054
  -1597841.11747  -1215173.14845  21413905.2034                   21413899.9344
  14257187.96947  11118406.10244  22778582.4144                   22778579.9144
 11  8  1 18 35  0.0000000  0  8G03G07G28G08G13G11G19G23
  11753814.09046   9172239.96943  23066882.9774                   23066880.1914
  -9845966.11347  -7637518.41445  20910501.8914                   20910498.4264
   1200283.02746   1611257.75044  23245785.5394                   23245782.8594
 -10787186.61347  -7691773.93744  22359901.8834                   22359899.2624
   3767408.27347   2957965.35545  21021926.8524                   21021924.1994
   1176143.29346    960207.02043  23015929.5864                   23015928.8324
  -1667406.21947  -1269379.71545  21400667.4694                   21400662.6214
  14247817.47347  11111104.24644  22776799.6334                   22776797.2194
 11  8  1 18 35 30.0000000  0  8G03G07G28G08G13G11G19G23
  11737113.54746   9159226.53143  23063704.8834                   23063702.6374
 -10003034.76647  -7759909.55946  20880612.7034                   20880608.9614
   1036906.79747   1483951.66043  23214696.0944                   23214693.7934
 -10976368.06247  -7839188.03144  22323902.7584                   22323899.6604
   3722460.87947   2922941.36345  21013373.8524                   21013371.3094
    986447.23046    812392.01243  22979831.7034                   22979830.2154
  -1736511.32847  -1323227.83245  21387516.7114                   21387512.1484
  14238567.98447  11103896.67244  22775039.8984                   22775037.2624
 11  8  1 18 36  0.0000000  0  8G03G07G28G08G13G11G19G23
  11720588.78146   9146350.05143  23060559.8284                   23060558.0594
 -10159959.50847  -7882188.57446  20850750.7034                   20850747.2774
    873646.23047   1356735.71544  23183628.5234                   23183626.2344
 -11165591.43747  -7986634.78144  22287894.6804                   22287891.7814
   3677909.97747   2888226.34045  21004896.7194                   21004893.8834
    796876.97746    664675.04343  22943758.0704                   22943756.7034
  -1805147.17647  -1376710.30145  21374456.2664                   21374451.1374
  14229447.39546  11096789.53944  22773303.5784                   22773301.3554
 11  8  1 18 36 30.0000000  0  8G03G07G28G08G13G11G19G23
  11704236.96546   9133608.31343  23057447.9454                   23057446.4224
 -10316738.60947  -8004354.09045  20820916.5864                   20820913.0204
    710500.59847   1229609.32844  23152583.1414                   23152580.5784
 -11354855.47747  -8134113.22344  22251878.2114                   22251876.0864
   3633753.24648   2853818.45345  20996493.7194                   20996490.6414
    607435.12546    517058.12544  22907708.3444                   22907707.0784
  -1873315.94147  -1429828.79745  21361483.5314                   21361479.3914
  14220452.83247  11089780.59444  22771592.0784                   22771589.8954
 11  8  1 18 37  0.0000000  0  8G03G07G28G08G13G11G19G23
  11688058.84046   9121001.93843  23054369.1724                   23054367.5744
 -10473366.54347  -8126401.82046  20791111.4384                   20791107.5824
    547472.66447   1102574.64544  23121559.6724                   23121557.2344
 -11544155.46547  -8281619.68444  22215855.5314                   22215852.9574
   3589991.65247   2819718.46145  20988166.2344                   20988163.5664
    418128.50846    369546.60244  22871684.2584                   22871682.7074
  -1941015.94947  -1482582.03945  21348600.7664                   21348596.1764
  14211584.98447  11082870.41444  22769905.2034                   22769903.3364
 11  8  1 18 37 30.0000000  0  8G03G07G28G08G13G11G19G23
  11672065.00046   9108539.16843  23051325.2734                   23051323.8094
 -10629828.40247  -8248320.13745  20761337.8914                   20761333.8914
    384575.61747    975641.95344  23090560.6024                   23090558.8874
 -11733476.07047  -8429142.20744  22179829.4924                   22179826.3324
   3546636.58647   2785935.26245  20979915.9224                   20979913.2704
    228973.64146    222153.28944  22835689.5164                   22835687.8244
  -2008235.76647  -1534961.10245  21335809.3134                   21335804.2974
  14202854.26646  11076067.05944  22768243.5554                   22768242.0394
 11  8  1 18 38  0.0000000  0  8G03G07G28G08G13G11G19G23
  11656259.52746   9096223.18043  23048318.4844                   23048316.5554
 -10786115.01247  -8370101.89546  20731597.2424                   20731593.6994
    221815.62947    848816.04343  23059589.1804                   23059586.6724
 -11922808.67247  -8576674.08244  22143800.3204                   22143797.8324
   3503692.62547   2752472.39145  20971744.3444                   20971741.8554
     39980.68047     74886.15243  22799725.4064                   22799722.7544
  -2074970.32447  -1586962.04745  21323110.2504                   21323105.0944
  14194264.84446  11069373.82443  22766609.4224                   22766606.9734
 11  8  1 18 38 30.0000000  0  8G03G07G28G08G13G11G19G23
  11640638.82846   9084051.15643  23045345.5634                   23045344.2624
 -10942225.68047  -8491746.55946  20701890.5234                   20701886.6334
     59191.36347    722095.91043  23028642.6094                   23028640.5204
 -12112152.74647  -8724214.89844  22107769.1484                   22107767.1374
   3461156.70347   2719327.46945  20963649.4774                   20963646.9454
   -148848.11347    -72253.07844  22763792.4694                   22763790.5744
  -2141222.42647  -1638587.06645  21310503.6254                   21310498.1914
  14185812.99246  11062787.77743  22765001.0704                   22764999.0514
 11  8  1 18 39  0.0000000  0  8G03G07G28G08G13G11G19G23
  11625206.98846   9072026.29743  23042408.3134                   23042407.6214
 -11098151.32047  -8613247.04346  20672218.8674                   20672215.1094
   -103291.20747    595486.18044  22997723.1334                   22997720.5474
 -12301499.82047  -8871758.03944  22071737.6804                   22071734.7424
   3419033.14147   2686503.87145  20955634.4614                   20955631.3164
   -337502.98046   -219256.77743  22727892.9064                   22727890.2274
  -2206987.28947  -1689832.40645  21297988.2664                   21297983.3204
  14177502.79346  11056312.10944  22763420.1564                   22763417.7384
 11  8  1 18 39 30.0000000  0  8G03G07G28G08G13G11G19G23
  11609962.98446   9060147.84043  23039508.7194                   23039506.5984
 -11253888.00847  -8734600.28145  20642583.3444                   20642579.4804
   -265630.62947    468988.00044  22966830.3914                   22966828.4454
 -12490846.37547  -9019300.77744  22035706.0784                   22035703.6254
   3377321.73447   2654001.43445  20947696.7424                   20947693.8364
   -525978.71547   -366120.87143  22692026.4844                   22692024.5784
  -2272264.71547  -1740697.93045  21285566.5004                   21285561.2034
  14169333.38746  11049946.12943  22761865.6174                   22761863.6334
 11  8  1 18 40  0.0000000  0  8G03G07G28G08G13G11G19G23
  11594917.78146   9048424.25843  23036645.7344                   23036643.6174
 -11409420.76247  -8855794.62946  20612986.3444                   20612982.4654
   -427814.06647    342611.35544  22935968.5704                   22935965.5004
 -12680177.29747  -9166831.35244  21999677.9614                   21999675.0944
   3336033.48048   2621828.72345  20939840.4534                   20939837.0904
   -714258.71947   -512832.48043  22656198.5944                   22656195.9494
  -2337043.36347  -1791174.78945  21273239.0164                   21273234.4024
  14161315.33246  11043698.08243  22760340.5314                   22760337.7034
 11  8  1 18 40 30.0000000  0  8G03G07G28G08G13G11G19G23
  13155488.57846  10264453.42643  23333612.3524                   23333610.8444
  -9989322.57847  -7749224.59846  20883221.7194                   20883218.4454
    985582.96146   1443959.76643  23204928.5784                   23204926.1054
 -11294064.99647  -8086743.80544  22263446.3754                   22263443.7344
   4870586.98847   3817584.66845  21231855.2734                   21231852.5634
    673086.25046    568215.60943  22920200.5704                   22920198.1484
   -825903.34447   -613663.09045  21560799.6564                   21560794.5434
  15728865.59446  12265165.63743  23058635.4144                   23058633.1024
 11  8  1 18 41  0.0000000  0  8G03G07G28G08G13G11G19G23
  13140845.66846  10253043.31343  23330826.4144                   23330824.0744
 -10144427.79747  -7870085.78946  20853706.6024                   20853702.9804
    823723.15247   1317835.31644  23174127.5474                   23174125.9614
 -11483346.44947  -8234235.80544  22227426.6724                   22227424.6054
   4830151.48047   3786076.43445  21224161.5704                   21224158.0124
    485220.34846    421826.66843  22884450.7034                   22884449.0004
   -889676.97347   -663356.84045  21548664.1724                   21548658.9804
  15721154.93046  12259157.14543  23057168.3054                   23057165.9654
 11  8  1 18 41 30.0000000  0  8G03G07G28G08G13G11G19G23
  13126398.03146  10241785.39143  23328076.5864                   23328075.2384
 -10299318.41447  -7990779.76646  20824231.4534                   20824227.8874
    662022.52047   1191834.89144  23143357.2894                   23143354.8524
 -11672602.33647  -8381707.88744  22191413.0944                   22191410.1524
   4790136.93447   3754896.21945  21216546.7424                   21216543.6644
    297564.32046    275601.28943  22848740.1024                   22848739.6254
   -952952.85247   -712662.73445  21536623.2734                   21536618.1414
  15713592.18046  12253263.85543  23055729.7344                   23055727.3404
 11  8  1 18 42  0.0000000  0  8G03G07G28G08G13G11G19G23
  13112143.21946  10230677.68843  23325363.7974                   23325362.0784
 -10453992.26247  -8111304.83245  20794798.0864                   20794794.5904
    500480.25047   1065957.88344  23112616.7504                   23112614.5204
 -11861831.00047  -8529158.76244  22155404.0164                   22155401.4654
   4750540.85947   3724042.08645  21209011.7034                   21209009.1294
    110121.55546    129542.10243  22813071.8054                   22813070.2664
  -1015733.16047   -761582.46145  21524676.3594                   21524671.8324
  15706174.30546  12247483.50043  23054317.5864                   23054315.3594
 11  8  1 18 42 30.0000000  0  8G03G07G28G08G13G11G19G23
  13098086.05946  10219724.02043  23322689.8674                   23322687.4144
 -10608439.41847  -8231653.25045  20765407.3444                   20765404.0274
    339103.74246    940210.02344  23081907.7034                   23081905.2814
 -12051023.22747  -8676581.23444  22119401.9774                   22119399.1454
   4711368.93447   3693518.45345  21201557.8204                   21201555.1644
    -77096.98846    -16342.39144  22777445.2734                   22777443.3444
  -1078011.74247   -810111.23045  21512825.0004                   21512820.1684
  15698906.55946  12241820.09443  23052934.2974                   23052933.1334
 11  8  1 18 43  0.0000000  0  8G03G07G28G08G13G11G19G23
  13084224.85246  10208923.03143  23320051.4694                   23320050.1374
 -10762657.39547  -8351823.08245  20736061.1094                   20736057.4104
    177893.10547    814591.41444  23051230.2194                   23051227.7934
 -12240176.28947  -8823973.19944  22083407.3914                   22083404.3914
   4672619.62547   3663324.14845  21194184.0394                   21194180.9304
   -264087.21146   -162048.96143  22741861.7664                   22741860.2774
  -1139789.94147   -858250.09845  21501068.9534                   21501064.0204
  15691786.97346  12236272.15643  23051579.9144                   23051578.5274
 11  8  1 18 43 30.0000000  0  8G03G07G28G08G13G11G19G23
  13070549.21946  10198266.62943  23317448.9534                   23317447.6804
 -10916651.35547  -8471818.36346  20706757.1724                   20706753.4924
     16840.18447    689095.68844  23020582.6094                   23020580.3484
 -12429295.66047  -8971338.91044  22047419.3204                   22047416.0554
   4634282.98847   3633451.38345  21186888.8134                   21186886.1454
   -450853.77046   -307581.23444  22706321.6334                   22706319.3914
  -1201077.32047   -906006.50045  21489406.5704                   21489401.5044
  15684805.07046  12230831.48843  23050251.7344                   23050250.0634
 11  8  1 18 44  0.0000000  0  8G03G07G28G08G13G11G19G23
  13057066.75846  10187760.81643  23314883.4224                   23314881.6054
 -11070409.36747  -8591629.79745  20677497.9694                   20677493.9694
   -144045.28147    563730.44144  22989967.3134                   22989965.0634
 -12618369.50847  -9118669.15644  22011439.4454                   22011436.5124
   4596366.74247   3603906.22345  21179673.5864                   21179670.8794
   -637383.02046   -452928.57844  22670826.8054                   22670824.6914
  -1261865.72347   -953374.09445  21477838.6024                   21477833.7894
  15677968.32846  12225503.93843  23048951.1174                   23048949.4184
 11  8  1 18 44 30.0000000  0  8G03G07G28G08G13G11G19G23
  13043772.02346  10177401.24643  23312353.7274                   23312352.3674
 -11223932.18047  -8711257.94946  20648283.0234                   20648279.9184
   -304766.50447    438493.19944  22959382.8204                   22959380.4774
 -12807398.82047  -9265964.68744  21975468.5314                   21975465.2664
   4558865.94947   3574684.76645  21172536.6024                   21172534.7424
   -823674.42647   -598090.59444  22635376.1884                   22635374.4534
  -1322159.96147  -1000356.61345  21466365.3984                   21466360.4104
  15671271.01246  12220285.02743  23047676.3054                   23047675.2704
 11  8  1 18 45  0.0000000  0  8G03G07G28G08G13G11G19G23
  13030652.16046  10167177.94143  23309857.3524                   23309855.6174
 -11377228.09447  -8830709.30146  20619112.1024                   20619108.6174
   -465334.43747    313375.37944  22928826.9304                   22928825.6374
 -12996392.25047  -9413232.27045  21939504.2274                   21939501.4144
   4521767.94547   3545777.19145  21165478.0864                   21165475.5704
  -1009735.27347   -743072.96144  22599970.0704                   22599968.3594
  -1381972.34847  -1046963.67245  21454983.4844                   21454978.5394
  15664700.59446  12215164.99643  23046427.1644                   23046424.9064
 11  8  1 18 45 30.0000000  0  8G03G07G28G08G13G11G19G23
  13017705.12946  10157089.32443  23307394.0634                   23307391.3984
 -11530293.98047  -8949981.40246  20589984.8444                   20589980.9654
   -625749.27747    188376.87144  22898302.0864                   22898299.0904
 -13185347.31247  -9560469.96544  21903546.8524                   21903544.2624
   4485070.60947   3517181.81645  21158494.4384                   21158492.1254
  -1195562.12147   -887872.97344  22564608.1174                   22564606.3914
  -1441304.76647  -1093196.72345  21443692.9064                   21443688.1604
  15658254.55546  12210141.88743  23045200.1644                   23045198.8834
 11  8  1 18 46  0.0000000  0  8G03G07G28G08G13G11G19G23
  13004930.16046  10147134.73843  23304962.4534                   23304960.9024
 -11683126.44547  -9069071.63746  20560901.4694                   20560898.0004
   -786009.50047     63498.82844  22867805.0164                   22867802.7154
 -13374260.25447  -9707674.82044  21867597.7034                   21867595.3554
   4448773.40647   3488898.22745  21151587.5004                   21151584.9414
  -1381149.59447  -1032486.46544  22529292.0164                   22529289.6374
  -1500157.00447  -1139055.60545  21432493.6884                   21432488.9024
  15651931.91446  12205214.91844  23043998.0234                   23043995.6484
 11  8  1 18 46 30.0000000  0  8G03G07G28G08G13G11G19G23
  12992319.69546  10137308.34043  23302562.9304                   23302561.4224
 -11835728.01247  -9187981.94946  20531862.2974                   20531858.9304
   -946120.31247    -61262.76644  22837337.5164                   22837334.8094
 -13563133.94947  -9854849.09445  21831656.3834                   21831653.8284
   4412869.37947   3460921.01245  21144755.3134                   21144752.8754
  -1566499.10947  -1176914.55144  22494021.2734                   22494018.5984
  -1558535.63347  -1184545.44945  21421384.3204                   21421379.5634
  15645725.68446  12200378.64844  23042815.9694                   23042814.6844
 11  8  1 18 47  0.0000000  0  8G03G07G28G08G13G11G19G23
  12979878.35546  10127613.66443  23300194.7344                   23300193.9804
 -11988089.86347  -9306705.46546  20502869.0474                   20502865.3094
  -1106075.58647   -185903.18044  22806898.5864                   22806896.0274
 -13751959.87547 -10001986.15245  21795724.4144                   21795721.4804
   4377362.74247   3433253.44945  21137998.9614                   21137996.5824
  -1751600.82447  -1321149.55144  22458797.8364                   22458794.9924
  -1616436.35547  -1229662.89545  21410366.3204                   21410361.2774
  15639639.67646  12195636.06643  23041658.3204                   23041656.8404
 11  8  1 18 47 30.0000000  0  8G03G07G28G08G13G11G19G23
  14543020.73846  11345646.64143  23597652.0474                   23597649.9144
 -10564788.05147  -8197639.10246  20773714.2194                   20773711.1054
    309546.12147    917178.74244  23076282.1804                   23076279.5434
 -12365312.62147  -8921481.78145  22059594.5864                   22059591.5004
   5917669.19547   4633492.19545  21431109.4774                   21431107.0004
   -361028.65247   -237586.71544  22723413.7194                   22723411.6954
    -98442.37947    -46810.45345  21699231.2734                   21699225.8634
  17209088.10546  13418582.66043  23340315.0474                   23340313.5084
 11  8  1 18 48  0.0000000  0  8G03G07G28G08G13G11G19G23
  14530899.28546  11336201.30143  23595345.2504                   23595343.3284
 -10716674.84447  -8315992.43446  20744811.3914                   20744807.5944
    149889.52047    792771.07444  23045901.0314                   23045898.3794
 -12554047.27047  -9068547.71545  22023679.6884                   22023676.6804
   5882939.43847   4606429.99645  21424500.4924                   21424497.6094
   -545635.52046   -381436.10944  22688284.2274                   22688281.8014
   -155403.84047    -91196.00845  21688391.8834                   21688386.3324
  17203223.76646  13414012.80143  23339199.5164                   23339197.6094
 11  8  1 18 48 30.0000000  0  8G03G07G28G08G13G11G19G23
  14518925.68046  11326871.14543  23593066.0004                   23593065.7664
 -10868328.78547  -8434164.30546  20715952.4144                   20715949.0434
     -9626.50847    668472.93444  23015545.8834                   23015543.4534
 -12742741.59047  -9215582.22345  21987771.8444                   21987769.5124
   5848586.71547   4579661.59445  21417963.5944                   21417960.8754
   -729998.32447   -525095.32444  22653201.2114                   22653199.3164
   -211906.91047   -135224.37545  21677639.2974                   21677634.3164
  17197458.43446  13409520.11743  23338102.0314                   23338100.6174
 11  8  1 18 49  0.0000000  0  8G03G07G28G08G13G11G19G23
  14507104.13746  11317659.45743  23590817.3524                   23590816.0234
 -11019741.39547  -8552148.15246  20687139.5004                   20687135.6174
   -168995.78947    544289.15244  22985218.4774                   22985216.1954
 -12931387.15647  -9362578.74245  21951873.4694                   21951870.9454
   5814615.13747   4553190.19545  21411498.9614                   21411496.2624
   -914106.74247   -668556.35544  22618166.2034                   22618163.7504
   -267946.91847   -178891.91045  21666975.9064                   21666969.9924
  17191795.99646  13405107.57443  23337024.9224                   23337023.6294
 11  8  1 18 49 30.0000000  0  8G03G07G28G08G13G11G19G23
  14495436.84846  11308567.96542  23588596.4304                   23588595.5704
 -11170905.69547  -8669938.50846  20658373.6254                   20658370.1954
   -328213.97747    420223.08244  22954920.6804                   22954917.9344
 -13119976.61747  -9509531.55145  21915985.9614                   21915983.3444
   5781027.05147   4527017.60545  21405107.1414                   21405104.8054
  -1097953.18047   -811813.21943  22583181.9144                   22583179.1294
   -323521.09447   -222196.47345  21656399.9924                   21656394.7464
  17186238.60746  13400776.88743  23335966.6564                   23335966.1724
 11  8  1 18 50  0.0000000  0  9G03G24G07G28G08G13G11G19G23
  14483908.47746  11299584.82443  23586403.3674                   23586401.8524
                                  23313170.03916                  24069450.977
 -11321832.82447  -8787544.05945  20629653.1724                   20629650.0204
   -487295.19147    296263.74244  22924648.6414                   22924645.8364
 -13308521.73847  -9656449.80545  21880107.6174                   21880104.9264
   5747806.63347   4501131.50845  21398785.9694                   21398783.1254
  -1281547.62947   -954873.76644  22548244.3754                   22548242.6054
   -378645.10947   -265150.25845  21645910.8834                   21645904.8204
  17180770.23046  13396515.53143  23334927.1094                   23334925.6804
 11  8  1 18 50 30.0000000  0  9G03G24G07G28G08G13G11G19G23
  14472525.06346  11290714.54743  23584237.2114                   23584235.2344
  23120191.87146  18382597.57452  24032728.5314                   24032732.0394
 -11472511.91047  -8904956.32846  20600980.1094                   20600976.7194
   -646231.14147    172417.61344  22894404.1564                   22894400.9574
 -13497011.57047  -9803324.96945  21844239.0634                   21844236.3094
   5714960.09047   4475536.75845  21392535.1804                   21392532.3054
  -1464877.87946  -1097728.42244  22513358.1414                   22513355.7934
   -433312.49647   -307748.23845  21635507.6564                   21635502.4454
  17175396.76646  13392328.17643  23333905.1024                   23333903.7384
 11  8  1 18 51  0.0000000  0  9G03G24G07G28G08G13G11G19G23
  14461280.66846  11281952.69943  23582097.2974                   23582095.5394
  22927185.22346  18232203.09442  23996000.8754                   23996004.2074
 -11622943.77347  -9022175.96146  20572353.6254                   20572350.3914
   -805025.47347     48681.82044  22864186.6094                   22864183.4064
 -13685447.15247  -9950157.86345  21808380.8914                   21808378.2154
   5682482.12947   4450229.20745  21386355.0944                   21386352.5744
  -1647943.97347  -1240377.24244  22478521.6174                   22478519.6254
   -487528.09447   -349994.16045  21625190.3834                   21625185.3714
  17170112.71546  13388210.44543  23332899.4614                   23332898.5634
 11  8  1 18 51 30.0000000  0  9G03G24G07G28G08G13G11G19G23
  14450165.88346  11273291.79743  23579983.0004                   23579980.8134
  22734146.21946  18081783.43442  23959266.0004                   23959269.7384
 -11773133.61347  -9139206.99246  20543774.0864                   20543769.9964
   -963685.56247    -74949.34844  22833993.7974                   22833991.7034
 -13873833.68047 -10096952.52345  21772532.2114                   21772529.5394
   5650363.06647   4425201.31645  21380243.0554                   21380240.3714
  -1830749.77347  -1382823.23444  22443734.8134                   22443732.7194
   -541301.55547   -391895.57045  21614957.4844                   21614953.0434
  17164908.28546  13384154.77743  23331909.3134                   23331908.3284
 11  8  1 18 52  0.0000000  0  9G03G24G07G28G08G13G11G19G23
  14439177.96946  11264729.79342  23577891.8674                   23577890.3054
  22541077.70746  17931340.78943  23922526.2584                   23922529.5904
 -11923079.35247  -9256047.83245  20515239.9534                   20515236.2704
  -1122212.39847   -198476.70344  22803827.8594                   22803824.9534
 -14062169.25047 -10243707.48445  21736692.8054                   21736690.6054
   5618600.12147   4400450.91045  21374198.9694                   21374196.0864
  -2013292.21947  -1525064.02344  22408997.9614                   22408995.8714
   -594634.87547   -433454.01245  21604808.9384                   21604803.9534
  17159780.57046  13380158.90643  23330933.5634                   23330932.3364
 11  8  1 18 52 30.0000000  0  9G03G24G07G28G08G13G11G19G23
  14428320.36346  11256269.25842  23575824.7194                   23575823.6724
  22347988.47746  17780881.98443  23885782.1414                   23885785.4924
 -12072773.32047  -9372692.47745  20486753.7814                   20486750.3134
  -1280600.93047   -321896.28544  22773687.1884                   22773684.4734
 -14250445.84047 -10390416.48445  21700865.5004                   21700862.2664
   5587196.45747   4375980.47345  21368222.7114                   21368220.3364
  -2195562.74247  -1667092.89844  22374313.2344                   22374311.1724
   -647524.84847   -474666.99245  21594744.0234                   21594739.0634
  17154732.65646  13376225.21143  23329972.7734                   23329972.2504
 11  8  1 18 53  0.0000000  0  9G03G24G07G28G08G13G11G19G23
  14417583.94546  11247903.16843  23573781.7664                   23573780.6524
  22154875.47746  17630404.68043  23849034.1804                   23849037.1214
 -12222219.62547  -9489144.15246  20458315.3444                   20458311.8984
  -1438858.09047   -445213.50444  22743571.3984                   22743568.5554
 -14438668.14147 -10537083.18045  21665047.7274                   21665044.9774
   5556143.11747   4351783.02345  21362313.9224                   21362311.2624
  -2377564.00847  -1808911.98844  22339679.7344                   22339677.2894
   -699979.93047   -515541.09045  21584762.5394                   21584757.7424
  17149755.50046  13372346.60543  23329025.3674                   23329025.1724
 11  8  1 18 53 30.0000000  0  9G03G24G07G28G08G13G11G19G23
  14406972.04346  11239634.09842  23571762.2424                   23571761.4964
  21961747.23046  17479915.47343  23812282.3674                   23812285.2774
 -12371410.96947  -9605397.14546  20429924.3754                   20429921.0634
  -1596979.03147   -568424.56644  22713482.1024                   22713479.6484
 -14626828.77047 -10683701.84445  21629241.4224                   21629238.7464
   5525443.09047   4327860.86345  21356471.9224                   21356468.6134
  -2559287.71547  -1950514.77744  22305098.5234                   22305096.0904
   -751996.94147   -556073.84045  21574863.8984                   21574858.8484
  17144851.80546  13368525.25443  23328092.7974                   23328092.4884
 11  8  1 18 54  0.0000000  0  9G03G24G07G28G08G13G11G19G23
  15971900.76246  12459059.07042  23869558.8524                   23869557.6024
  23344031.92646  18557020.73843  24075322.0864                   24075325.1374
 -10944921.70347  -8493847.05546  20701377.4924                   20701373.5124
   -179540.52747    536073.02744  22983211.4534                   22983209.0164
 -13239500.62947  -9602666.91045  21893241.5944                   21893238.5824
   7070513.24647   5531811.58245  21650489.3444                   21650486.3484
  -1165306.15647   -864295.28544  22570364.0474                   22570361.8554
    771841.94547    631333.08245  21864840.4384                   21864836.1334
  18715437.77046  14592358.20343  23626965.8914                   23626965.5704
 11  8  1 18 54 30.0000000  0  9G03G24G07G28G08G13G11G19G23
  15961537.52046  12450983.73043  23867587.0704                   23867585.5784
  23150890.69546  18406521.37543  24038568.6724                   24038571.2154
 -11093588.91447  -8609691.62546  20673086.7274                   20673083.1024
   -337382.64147    413079.21144  22953175.0944                   22953172.3364
 -13427523.68447  -9749178.34445  21857461.7814                   21857459.4964
   7040519.98047   5508440.15645  21644781.8834                   21644778.9384
  -1346457.34047  -1005451.95744  22535892.2814                   22535890.0784
    720701.81347    591483.61745  21855109.1484                   21855104.2154
  18710680.93046  14588651.26243  23626061.3444                   23626060.4414
 11  8  1 18 55  0.0000000  0  9G03G24G07G28G08G13G11G19G23
  15951283.53546  12442993.59443  23865635.9924                   23865634.3714
  22957736.33246  18256011.79742  24001812.0394                   24001815.1254
 -11242002.36347  -8725338.45746  20644844.4774                   20644841.1454
   -495098.03547    290184.16044  22923163.8204                   22923160.5474
 -13615485.93747  -9895642.42245  21821693.6024                   21821691.0084
   7010864.77747   5485332.14545  21639138.7194                   21639135.5784
  -1527329.21947  -1146390.98044  22501473.2504                   22501471.2974
    669985.30547    551964.25045  21845458.1024                   21845453.3204
  18705981.99646  14584989.46543  23625167.1094                   23625166.5124
 11  8  1 18 55 30.0000000  0  9G03G24G07G28G08G13G11G19G23
  15941144.12946  12435092.71543  23863706.6254                   23863705.9654
  22764579.68446  18105500.39843  23965055.7974                   23965059.0704
 -11390152.02347  -8840779.74646  20616652.4224                   20616649.1954
   -652678.99247    167393.85544  22893176.5314                   22893173.3554
 -13803377.81247 -10042051.63745  21785939.4774                   21785936.5634
   6981552.94547   5462491.70745  21633560.2114                   21633557.7704
  -1707910.48847  -1287103.56244  22467109.9924                   22467107.4384
    619698.34447    512779.58245  21835888.2584                   21835883.6524
  18701346.29746  14581376.94543  23624285.2114                   23624285.0704
 11  8  1 18 56  0.0000000  0  9G03G24G07G28G08G13G11G19G23
  15931118.79746  12427280.70342  23861797.8984                   23861797.2544
  22571425.60246  17954990.97343  23928299.1884                   23928302.4494
 -11538033.91047  -8956012.38346  20588511.7664                   20588508.0984
   -810124.69547     44708.94144  22863215.6724                   22863212.6644
 -13991195.29747 -10188402.90645  21750198.7344                   21750195.8634
   6952583.52747   5439918.07445  21628047.6254                   21628044.8444
  -1888196.40647  -1427586.00444  22432802.3204                   22432800.1174
    569839.97347    473928.87945  21826401.2274                   21826396.3284
  18696772.66846  14577812.73043  23623415.0164                   23623414.7894
 11  8  1 18 56 30.0000000  0  9G03G24G07G28G08G13G11G19G23
  15921207.96946  12419557.92642  23859912.4064                   23859910.9384
  22378280.19146  17804488.25443  23891545.0004                   23891547.7734
 -11685643.41047  -9071032.76246  20560422.3524                   20560418.8484
   -967433.01647    -77868.91444  22833280.7034                   22833277.7814
 -14178933.59847 -10334692.46945  21714473.8984                   21714470.6564
   6923956.71547   5417611.41045  21622600.9064                   21622597.8794
  -2068181.05947  -1567833.69944  22398552.4614                   22398550.6804
    520410.89547    435412.71545  21816994.9454                   21816990.2704
  18692261.67246  14574297.37543  23622557.5084                   23622556.5704
 11  8  1 18 57  0.0000000  0  9G03G24G07G28G08G13G11G19G23
  15911402.75445  12411917.49642  23858046.9924                   23858046.0354
  22185140.35946  17653989.93843  23854792.4304                   23854794.6564
 -11832984.69547  -9185844.14146  20532384.2894                   20532380.6294
  -1124610.74247   -200345.00844  22803370.4694                   22803368.0164
 -14366596.88747 -10480923.59045  21678762.0554                   21678759.3754
   6895663.53147   5395564.71544  21617215.8834                   21617213.8794
  -2247867.32447  -1707848.90644  22364359.3524                   22364356.6134
    471401.95747    397223.92645  21807668.7894                   21807664.0274
  18687803.97346  14570823.50043  23621709.2894                   23621708.8714
 11  8  1 18 57 30.0000000  0  8G24G07G28G08G13G11G19G23
  21992009.60546  17503498.64543  23818039.1254                   23818042.3834
 -11980055.53547  -9300444.78146  20504397.1884                   20504393.8014
  -1281658.04747   -322719.47344  22773485.2894                   22773482.6954
 -14554182.77347 -10627094.38745  21643065.2974                   21643063.0784
   6867701.75047   5373776.26245  21611894.9224                   21611892.8164
  -2427252.12947  -1847629.19944  22330223.4454                   22330221.2704
    422811.58647    359361.30545  21798422.5314                   21798417.6414
  18683397.41046  14567389.47743  23620870.0944                   23620870.1254
 11  8  1 18 58  0.0000000  0  8G24G07G28G08G13G11G19G23
  21798887.36346  17353013.98443  23781289.4924                   23781292.9734
 -12126857.30547  -9414835.77346  20476462.1804                   20476458.6884
  -1438579.35247   -444995.74644  22743624.3754                   22743621.3284
 -14741692.96147 -10773206.20745  21607383.8134                   21607380.7544
   6840065.12547   5352241.16445  21606635.9534                   21606633.7194
  -2606336.11347  -1987175.10244  22296145.1024                   22296141.7074
    374633.82447    321820.19545  21789254.7194                   21789249.5664
  18679035.39146  14563990.17243  23620040.8834                   23620040.1884
 11  8  1 18 58 30.0000000  0  8G24G07G28G08G13G11G19G23
  21605782.11746  17202542.54742  23744542.4844                   23744546.0084
 -12273383.08647  -9529011.69146  20448579.0004                   20448575.6604
  -1595370.51247   -567170.62544  22713787.4454                   22713784.8054
 -14929120.18447 -10919253.37545  21571717.4614                   21571714.7344
   6812755.62947   5330960.97745  21601439.4844                   21601437.1564
  -2785111.09447  -2126480.21544  22262125.5864                   22262122.3164
    326871.14547    284602.51645  21780165.8754                   21780160.8874
  18674720.37546  14560627.49642  23619220.0704                   23619219.8484
 11  8  1 18 59  0.0000000  0  8G24G07G28G08G13G11G19G23
  21412699.52746  17052088.78943  23707800.5004                   23707802.8054
 -12419628.27047  -9642968.97346  20420749.4534                   20420746.2344
  -1752029.33647   -689242.39844  22683976.2974                   22683973.7774
 -15116459.71947 -11065232.21945  21536067.8284                   21536065.2814
   6785773.43447   5309935.81644  21596305.0944                   21596302.8914
  -2963571.29747  -2265540.06644  22228165.3914                   22228162.6954
    279523.63747    247708.35545  21771155.3444                   21771150.7344
  18670452.37546  14557301.43443  23618407.6724                   23618407.6764
 11  8  1 18 59 30.0000000  0  8G24G07G28G08G13G11G19G23
  21219642.44946  16901654.92643  23671063.4454                   23671064.8714
 -12565590.88747  -9756706.06646  20392973.5474                   20392969.9264
  -1908556.77747   -811211.76644  22654190.7274                   22654187.3714
 -15303709.78547 -11211141.33245  21500434.9694                   21500432.6254
   6759115.26247   5289163.15644  21591232.1094                   21591229.6214
  -3141714.16447  -2404352.63744  22194265.8054                   22194262.6884
    232588.66847    211135.65645  21762223.8444                   21762219.0664
  18666228.17646  14554009.55543  23617604.4924                   23617603.5784
 11  8  1 19  0  0.0000000  0  8G24G07G28G08G13G11G19G23
  21026605.84046  16751237.02043  23634328.2974                   23634331.0824
 -12711277.04347  -9870227.74646  20365250.5554                   20365246.8014
  -2064961.45747   -933085.49644  22624427.8594                   22624424.6374
 -15490876.24647 -11356985.31645  21464818.6724                   21464815.8164
   6732770.80947   5268634.94544  21586218.9614                   21586216.8674
  -3319544.48047  -2542921.65644  22160425.1414                   22160422.5824
    186055.91447    174876.36345  21753369.2584                   21753364.2034
  18662037.43046  14550743.68043  23616807.4844                   23616806.9614
 11  8  1 19  0 30.0000000  0  8G24G07G28G08G13G11G19G23
  22409021.60946  17828444.30643  23897393.5394                   23897395.9614
 -11281257.41247  -8755926.73146  20637374.2734                   20637370.6604
   -645816.76147    172741.60844  22894481.7274                   22894478.8524
 -14102528.43047 -10275155.83345  21729012.4454                   21729009.3984
   8282160.42947   6475951.47344  21881057.8834                   21881055.7074
  -1921631.19847  -1453638.51144  22426439.8364                   22426437.3014
   1715346.52347   1366531.37745  22044383.8444                   22044378.9384
  20233299.73646  15775103.56943  23915809.0234                   23915809.5594
 11  8  1 19  1  0.0000000  0  8G24G07G28G08G13G11G19G23
  22216037.67646  17678067.39543  23860670.1884                   23860671.8874
 -11426381.82447  -8869010.68046  20609758.0784                   20609754.6334
   -801976.10247     51059.05944  22864765.2894                   22864762.8444
 -14289518.64147 -10420862.46545  21693429.6024                   21693426.3594
   8256437.36747   6455907.46545  21876163.6644                   21876160.9384
  -2098825.35247  -1591711.82444  22392720.7424                   22392717.8914
   1669612.68447   1330894.60945  22035681.1724                   22035675.8554
  20229170.12946  15771885.33243  23915023.0084                   23915024.0744
 11  8  1 19  1 30.0000000  0  8G24G07G28G08G13G11G19G23
  22023070.19546  17527703.34443  23823949.2424                   23823951.1374
 -11571237.55147  -8981885.27046  20582192.9694                   20582189.2384
   -958028.54747    -70540.21144  22835069.3444                   22835067.0984
 -14476432.77347 -10566509.82045  21657861.3524                   21657857.9844
   8231005.60247   6436090.44145  21871324.0474                   21871321.3714
  -2275711.64147  -1729545.23844  22359060.0234                   22359057.5164
   1624259.75847   1295554.66445  22027050.7274                   22027045.7194
  20225051.77346  15768675.83643  23914240.3284                   23914240.6844
 11  8  1 19  2  0.0000000  0  8G24G07G28G08G13G11G19G23
  21830138.49246  17377367.20743  23787236.0314                   23787236.8594
 -11715806.74647  -9094536.57846  20554682.4304                   20554678.7114
  -1113958.77047   -192044.21944  22805397.2584                   22805394.4064
 -14663252.06247 -10712083.27045  21622310.5164                   21622307.7304
   8205878.79347   6416511.05145  21866542.2664                   21866539.8984
  -2452271.39847  -1867124.19144  22325461.4774                   22325459.1094
   1579301.37947   1260522.12145  22018495.1414                   22018490.0204
  20220958.27046  15765485.68843  23913460.3134                   23913462.5704
 11  8  1 19  2 30.0000000  0  8G24G07G28G08G13G11G19G23
  21637238.38346  17227055.67643  23750527.3284                   23750529.6884
 -11860094.35947  -9206968.48846  20527225.5084                   20527221.8834
  -1269774.84847   -313459.30144  22775745.9694                   22775743.3874
 -14849982.02747 -10857587.10945  21586777.2664                   21586774.1214
   8181046.88747   6397161.44545  21861817.3674                   21861815.2894
  -2628508.84047  -2004452.00444  22291925.2424                   22291922.0744
   1534727.82847   1225789.46945  22010013.2034                   22010008.8954
  20216879.76246  15762307.19542  23912685.4224                   23912686.5744
 11  8  1 19  3  0.0000000  0  8G24G07G28G08G13G11G19G23
  21444369.09846  17076768.13743  23713825.6484                   23713827.5274
 -12004102.14847  -9319182.34046  20499821.6954                   20499818.4654
  -1425481.36747   -434789.00044  22746116.2424                   22746113.1214
 -15036624.35547 -11003022.66845  21551259.9144                   21551257.2154
   8156502.96947   6378036.23844  21857146.3674                   21857144.1334
  -2804424.63347  -2141529.16844  22258448.9454                   22258446.9384
   1490532.57047   1191351.59845  22001603.1804                   22001598.4654
  20212809.46146  15759135.10943  23911911.8674                   23911912.0784
 11  8  1 19  3 30.0000000  0  8G24G07G28G08G13G11G19G23
  21251530.00046  16926504.11343  23677128.3444                   23677131.1254
 -12147832.05547  -9431179.67246  20472470.7034                   20472467.1844
  -1581082.94547   -556036.92644  22716505.9384                   22716503.7544
 -15223180.66847 -11148391.19945  21515759.0474                   21515756.6914
   8132240.58647   6359130.40645  21852529.5314                   21852527.3014
  -2980019.94947  -2278356.60244  22225034.1484                   22225031.9884
   1446709.37947   1157203.65245  21993263.7664                   21993259.1644
  20208741.02746  15755964.46543  23911137.1884                   23911138.2584
 11  8  1 19  4  0.0000000  0  8G24G07G28G08G13G11G19G23
  21058729.86746  16776270.49243  23640439.9064                   23640442.4414
 -12291276.63347  -9542954.66846  20445174.1564                   20445170.5824
  -1736574.61747   -677199.22744  22686916.7894                   22686914.1994
 -15409642.94147 -11293686.46145  21480277.1724                   21480273.8914
   8108262.54347   6340446.15644  21847966.6804                   21847964.8244
  -3155286.03147  -2414927.52044  22191682.8754                   22191680.0904
   1403261.01247   1123347.76245  21984996.0864                   21984990.6804
  20204677.41846  15752797.64543  23910364.0474                   23910365.4844
 11  8  1 19  4 30.0000000  0  8G24G07G28G08G13G11G19G23
  20865966.62146  16626065.58242  23603758.8134                   23603760.1644
 -12434439.12147  -9654509.85246  20417931.3204                   20417927.8484
  -1891962.55147   -798280.68444  22657348.6174                   22657345.3054
 -15596014.94547 -11438911.37145  21444811.2894                   21444808.8594
   8084560.77047   6321977.18044  21843456.5864                   21843454.5004
  -3330225.62547  -2551244.02344  22158392.7584                   22158389.8594
   1360179.71147   1089777.91045  21976798.1884                   21976793.0704
  20200610.43446  15749628.14543  23909590.7584                   23909591.4264
 11  8  1 19  5  0.0000000  0  8G24G07G28G08G13G11G19G23
  20673245.59846  16475893.57443  23567083.5944                   23567086.9884
 -12577315.48047  -9765842.09046  20390742.9304                   20390739.2854
  -2047244.92647   -919279.89844  22627798.7194                   22627795.8524
 -15782292.04747 -11584062.33245  21409364.0314                   21409361.1334
   8061134.26647   6303722.68844  21838999.3914                   21838996.6254
  -3504833.45747  -2687302.00844  22125166.2194                   22125163.1254
   1317465.35247   1056493.95745  21968669.0704                   21968664.7934
  20196539.66846  15746455.71143  23908816.4454                   23908817.4414
 11  8  1 19  5 30.0000000  0  8G24G07G28G08G13G11G19G23
  20480567.01246  16325754.62943  23530419.4384                   23530421.2424
 -12719906.35947  -9876951.85246  20363608.5784                   20363604.9844
  -2202425.37947  -1040199.66844  22598268.8984                   22598265.8484
 -15968474.60247 -11729139.61745  21373934.7584                   21373931.4964
   8037977.78947   6285678.61344  21834592.2114                   21834589.7154
  -3679109.34447  -2823101.34844  22092002.5164                   22091999.2274
   1275112.64547   1023491.85245  21960610.0394                   21960605.2624
  20192459.76246  15743276.18843  23908039.7424                   23908041.4614
 11  8  1 19  6  0.0000000  0  8G24G07G28G08G13G11G19G23
  20287945.51246  16175660.19943  23493765.0394                   23493766.2774
 -12862198.65647  -9987828.96546  20336531.3834                   20336527.9384
  -2357493.60247  -1161032.00844  22568760.0864                   22568757.1844
 -16154549.03947 -11874132.67645  21338526.0394                   21338523.3554
   8015099.50847   6267851.30544  21830238.4614                   21830236.9414
  -3853039.20747  -2958631.05544  22058904.3984                   22058901.5824
   1233130.05947    990778.13745  21952620.9064                   21952616.3014
  20188379.40246  15740096.30942  23907263.4064                   23907265.0274
 11  8  1 19  6 30.0000000  0  8G24G07G28G08G13G11G19G23
  20095368.00446  16025599.98043  23457116.9774                   23457119.5904
 -13004206.46547 -10098484.41046  20309508.6334                   20309504.7814
  -2512466.41847  -1281790.00844  22539269.8674                   22539266.3714
 -16340529.75447 -12019052.69545  21303134.8054                   21303131.8834
   7992480.55547   6250226.07444  21825934.5084                   21825932.2304
  -4026636.32847  -3093901.48844  22025870.4384                   22025867.2664
   1191498.89547    958338.25045  21944699.1884                   21944694.1294
  20184279.53146  15736901.19943  23906483.7974                   23906485.5904
 11  8  1 19  7  0.0000000  0  8G24G07G28G08G13G11G19G23
  19902852.55146  15875588.16043  23420483.5004                   23420485.0664
 -13145913.35947 -10208905.35946  20282542.5084                   20282538.7734
  -2667330.01647  -1402462.89144  22509799.8674                   22509796.7544
 -16526399.70347 -12163886.41445  21267765.1094                   21267762.1484
   7970132.46147   6232811.90644  21821681.7194                   21821679.8444
  -4199883.43047  -3228899.17244  21992901.9924                   21992899.5234
   1150230.96947    926181.41445  21936845.8834                   21936840.9964
  20180172.02346  15733700.10242  23905702.5234                   23905704.7424
 11  8  1 19  7 30.0000000  0  8G24G07G28G08G13G11G19G23
  21285820.36346  16953225.63343  23683652.8754                   23683654.5474
 -11711900.47347  -9091492.71946  20555425.7344                   20555422.2774
  -1246668.00847   -295453.48444  22780143.0864                   22780139.8874
 -15136738.71147 -11081033.68045  21532208.5084                   21532205.7384
   9523464.98447   7443200.81644  22117270.7584                   22117269.1684
  -2797360.03147  -2136023.73044  22259793.5314                   22259791.1024
   2684737.00447   2121900.38745  22228852.7814                   22228847.6724
  21751466.41445  16958084.91442  24204709.6024                   24204712.4694
 11  8  1 19  8  0.0000000  0  8G24G07G28G08G13G11G19G23
  21093424.49246  16803306.98043  23647040.8914                   23647042.7384
 -11853013.38747  -9201450.83646  20528573.6724                   20528569.6954
  -1401329.14147   -415968.62944  22750712.3364                   22750709.2774
 -15322393.90647 -11225700.05545  21496879.6174                   21496876.6254
   9501636.77047   7426191.74244  22113117.5784                   22113115.6484
  -2969911.84447  -2270479.62544  22226957.6564                   22226955.2114
   2644174.47347   2090293.19545  22221133.8984                   22221129.0044
  21747322.50845  16954855.46542  24203921.7194                   24203924.8484
 11  8  1 19  8 30.0000000  0  8G24G07G28G08G13G11G19G23
  20901098.59046  16653442.86743  23610443.3054                   23610443.9024
 -11993820.69547  -9311170.80146  20501778.0784                   20501774.5824
  -1555884.39847   -536401.25044  22721301.4304                   22721298.1724
 -15507932.73447 -11370275.75045  21461572.8444                   21461569.9104
   9480069.85947   7409386.28544  22109013.4774                   22109011.4024
  -3142106.34447  -2404657.08644  22194190.6954                   22194187.5594
   2603965.87947   2058961.81345  22213482.5004                   22213477.8164
  21743161.55946  16951612.70342  24203129.7974                   24203133.0984
 11  8  1 19  9  0.0000000  0  8G24G07G28G08G13G11G19G23
  20708846.55146  16503636.28143  23573858.1954                   23573859.7234
 -12134320.03147  -9420650.79346  20475041.7664                   20475038.5824
  -1710333.77047   -656751.36744  22691910.3284                   22691907.3094
 -15693352.75847 -11514758.86745  21426288.5164                   21426285.3714
   9458761.67647   7392782.43444  22104958.4454                   22104956.5354
  -3313940.32447  -2538553.62144  22161491.2034                   22161488.6294
   2564109.56647   2027904.92245  22205898.0314                   22205893.2504
  21738981.55546  16948355.04342  24202335.3674                   24202338.6214
 11  8  1 19  9 30.0000000  0  7G24G07G28G08G13G11G19
  20516666.52746  16353885.82443  23537287.3674                   23537288.3284
 -12274514.74647  -9529893.43046  20448363.5784                   20448360.2584
  -1864683.68747   -777024.00044  22662538.4924                   22662534.9964
 -15878656.86747 -11659151.65645  21391026.4064                   21391023.1994
   9437704.20347   7376373.93844  22100952.0634                   22100949.4734
  -3485415.99247  -2672170.97744  22128859.9224                   22128857.6844
   2524597.90647   1997116.59045  22198379.5234                   22198374.2854
 11  8  1 19 10  0.0000000  0  7G24G07G28G08G13G11G19
  20324573.73846  16204203.35943  23500732.7894                   23500733.6374
 -12414390.50047  -9638887.52046  20421746.1564                   20421742.7384
  -2018922.55547   -897210.09044  22633188.2974                   22633184.3324
 -16063830.48047 -11803442.77345  21355788.7034                   21355785.9534
   9416906.67647   7360167.98444  22096993.5944                   22096991.8204
  -3656518.37547  -2805497.43444  22096300.6724                   22096297.8134
   2485440.02347   1966603.93445  22190928.0784                   22190923.1884
 11  8  1 19 10 30.0000000  0  7G24G07G28G08G13G11G19
  20132571.05546  16054591.09043  23464195.5634                   23464196.9184
 -12553946.08647  -9747632.11746  20395189.6094                   20395186.3094
  -2173051.37547  -1017310.43044  22603858.3754                   22603854.9614
 -16248871.53947 -11947630.59845  21320577.1564                   21320574.3204
   9396365.81647   7344162.05144  22093085.7114                   22093083.6564
  -3827245.00047  -2938531.09844  22063813.1024                   22063809.6294
   2446633.25447   1936364.88345  22183543.4304                   22183538.3134
 11  8  1 19 11  0.0000000  0  7G24G07G28G08G13G11G19
  19940671.89146  15905059.52743  23427677.7974                   23427679.5944
 -12693169.10947  -9856117.58246  20368696.1644                   20368693.2464
  -2327060.89147  -1137317.79744  22574550.6804                   22574547.8554
 -16433767.89547 -12091705.66445  21285392.0784                   21285389.2894
   9376088.94547   7328361.81344  22089227.0314                   22089225.2234
  -3997583.01247  -3071261.96944  22031398.2584                   22031395.4414
   2408184.90247   1906405.10245  22176227.3284                   22176221.8444
 11  8  1 19 11 30.0000000  0  7G24G07G28G08G13G11G19
  19748888.15246  15755617.88343  23391181.9844                   23391184.4924
 -12832048.87547  -9964335.57446  20342268.8364                   20342265.0314
  -2480942.96947  -1257225.87144  22545268.5234                   22545264.4844
 -16618508.17247 -12235659.11345  21250237.6254                   21250234.4734
   9356081.98047   7312771.91844  22085420.3444                   22085417.4064
  -4167521.07047  -3203681.17644  21999060.1564                   21999057.0234
   2370101.06647   1876729.35545  22168979.4774                   22168974.7424
 11  8  1 19 12  0.0000000  0  7G24G07G28G08G13G11G19
  19557229.74646  15606273.90243  23354710.6254                   23354713.0904
 -12970576.87947 -10072279.47746  20315907.8444                   20315904.1454
  -2634691.68747  -1377030.02744  22516010.7034                   22516007.4534
 -16803083.71547 -12379484.19145  21215113.8834                   21215110.7894
   9336348.87147   7297395.39844  22081664.8204                   22081662.5434
  -4337049.58247  -3335781.25044  21966799.5704                   21966796.9494
   2332385.99247   1847340.96145  22161802.6804                   22161797.8324
 11  8  1 19 12 30.0000000  0  7G24G07G28G08G13G11G19
  19365706.34046  15457035.15243  23318265.3594                   23318267.6524
 -13108744.96947 -10179942.90246  20289615.1564                   20289611.5634
  -2788301.57847  -1496726.00444  22486779.3984                   22486776.0004
 -16987485.71547 -12523174.04745  21180022.7974                   21180020.3954
   9316892.75847   7282234.73444  22077962.0784                   22077960.2734
  -4506159.55947  -3467555.20344  21934619.2114                   21934616.3714
   2295043.09047   1818242.58245  22154697.0084                   22154691.9884
 11  8  1 19 13  0.0000000  0  7G24G07G28G08G13G11G19
  19174317.55146  15307901.26243  23281845.0474                   23281846.8674
 -13246554.95347 -10287327.32446  20263390.9384                   20263387.2814
  -2941777.05947  -1616317.23844  22457574.3134                   22457570.9104
 -17171715.24647 -12666729.50445  21144966.1644                   21144962.6214
   9297707.22347   7267284.88344  22074311.7274                   22074309.7194
  -4674851.85547  -3599003.69144  21902518.1804                   21902515.2624
   2258066.30547   1789429.46545  22147660.0314                   22147655.5784
 11  8  1 19 13 30.0000000  0  7G24G07G28G08G13G11G19
  18983068.08646  15158875.94543  23245451.9384                   23245452.8754
 -13384003.34047 -10394429.93746  20237235.1724                   20237231.2664
  -3095117.23047  -1735803.03544  22428395.5234                   22428391.5204
 -17355768.69947 -12810147.75445  21109941.2734                   21109937.9734
   9278790.71147   7252544.67644  22070711.9384                   22070709.8094
  -4843122.17647  -3730123.36744  21870497.0164                   21870494.8794
   2221454.39147   1760900.68045  22140693.3754                   22140688.3554
 11  8  1 19 14  0.0000000  0  7G24G07G28G08G13G11G19
  20367389.48046  16237568.17243  23508879.7974                   23508880.1724
 -11945661.79747  -9273644.32046  20510942.6484                   20510939.0744
  -1672895.77747   -627578.49244  22699034.2034                   22699031.0274
 -15964215.84047 -11725820.83645  21374744.7424                   21374741.9024
  10835562.97747   8465613.89844  22366956.0004                   22366954.0784
  -3435540.78947  -2633306.66844  22138350.7504                   22138347.8364
   3760628.07847   2960256.77745  22433588.6884                   22433583.8714
 11  8  1 19 14 30.0000000  0  7G24G07G28G08G13G11G19
  20176433.14846  16088771.24643  23472540.7274                   23472542.0394
 -12082376.64547  -9380175.35946  20484926.4224                   20484922.6294
  -1825962.93047   -746851.55144  22669906.3284                   22669902.6334
 -16147905.54747 -11868955.64145  21339789.3444                   21339786.7274
  10817180.80147   8451290.03944  22363458.0394                   22363455.8014
  -3602954.91447  -2763759.19144  22106492.8524                   22106489.8984
   3724742.87947   2932294.26645  22426759.6804                   22426754.8244
 11  8  1 19 15  0.0000000  0  7G24G07G28G08G13G11G19
  19985624.33246  15940089.27043  23436231.5084                   23436232.1024
 -12218725.78547  -9486421.44546  20458979.8054                   20458976.4104
  -1978898.47347   -866022.06244  22640803.9064                   22640800.8094
 -16331413.58647 -12011948.89145  21304869.6644                   21304866.7384
  10799057.33247   8437167.78144  22360009.0164                   22360007.1994
  -3769940.64547  -2893877.89844  22074716.7664                   22074714.0204
   3689212.79347   2904608.46545  22419998.1644                   22419993.7624
 11  8  1 19 15 30.0000000  0  7G24G07G28G08G13G11G19
  19794984.23846  15791538.78543  23399953.1024                   23399954.2304
 -12354689.35247  -9592367.07446  20433107.0704                   20433103.2854
  -2131684.96947   -985076.43044  22611729.3674                   22611725.8204
 -16514719.47747 -12154784.62545  21269987.2194                   21269984.9024
  10781207.98047   8423259.12544  22356612.5234                   22356610.5474
  -3936477.35247  -3023646.70344  22043025.5944                   22043023.0204
   3654053.46547   2877211.57045  22413307.6334                   22413303.1054
 11  8  1 19 16  0.0000000  0  7G24G07G28G08G13G11G19
  19604511.67646  15643118.81643  23363707.2584                   23363707.9184
 -12490269.55547  -9698014.00446  20407306.9454                   20407303.5514
  -2284327.77347  -1104018.83244  22582682.1334                   22582678.8954
 -16697825.16047 -12297464.34845  21235143.5634                   21235140.7544
  10763625.40647   8409558.35244  22353266.7504                   22353264.8984
  -4102566.58647  -3153066.82844  22011419.8364                   22011417.5124
   3619258.10547   2850098.27044  22406686.7664                   22406681.8094
 11  8  1 19 16 30.0000000  0  7G24G07G28G08G13G11G19
  19414201.03946  15494825.02343  23327492.5634                   23327493.1954
 -12625473.74647  -9803367.93446  20381578.6094                   20381574.7194
  -2436836.58647  -1222856.82444  22553661.0004                   22553657.7464
 -16880737.62947 -12439993.52345  21200336.2424                   21200333.7424
  10746297.64147   8396056.11744  22349969.0704                   22349967.5314
  -4268214.93047  -3282143.41444  21979898.2114                   21979895.3324
   3584814.71147   2823259.24245  22400132.3834                   22400127.6844
 11  8  1 19 17  0.0000000  0  7G24G07G28G08G13G11G19
  19224057.34846  15346661.30543  23291309.5474                   23291310.0944
 -12760298.39847  -9908426.12146  20355922.5004                   20355918.5164
  -2589210.65647  -1341589.82444  22524665.1804                   22524661.6374
 -17063452.49647 -12582368.72745  21165566.8364                   21165563.7194
  10729223.58647   8382751.58644  22346720.5474                   22346718.7704
  -4433418.40247  -3410873.34444  21948460.9844                   21948457.9574
   3550722.28147   2796693.69144  22393644.7424                   22393640.3714
 11  8  1 19 17 30.0000000  0  8G17G24G07G28G08G13G11G19
  29619992.40656  23126717.27353  24305598.7344                   24305601.1884
  19034080.83646  15198627.82043  23255157.6254                   23255158.2384
 -12894744.50047 -10013189.31246  20330338.2734                   20330334.5554
  -2741453.01647  -1460220.18444  22495693.9694                   22495691.6214
 -17245970.36747 -12724590.41445  21130835.0394                   21130831.6254
  10712397.28947   8369640.10244  22343518.5704                   22343516.9264
  -4598176.53547  -3539256.25444  21917108.9304                   21917105.3754
   3516975.60547   2770397.55544  22387222.8834                   22387218.0084
 11  8  1 19 18  0.0000000  0  8G17G24G07G28G08G13G11G19
  29397646.13345  22953460.79343  24263286.5864                   24263289.5434
  18844266.16446  15050720.49643  23219037.2274                   23219037.5594
 -13028818.78547 -10117662.77346  20304824.3984                   20304820.6604
  -2893573.41447  -1578755.52344  22466746.9454                   22466743.6764
 -17428297.23047 -12866663.28545  21096139.3204                   21096135.9264
  10695807.19947   8356712.68444  22340361.7034                   22340359.3204
  -4762495.60547  -3667297.03144  21885840.1644                   21885836.6374
   3483563.47347   2744362.10544  22380865.0704                   22380860.0274
 11  8  1 19 18 30.0000000  0  8G17G24G07G28G08G13G11G19
  29175433.34446  22780308.34443  24221002.3204                   24221003.8204
  18654619.04346  14902943.66043  23182947.3134                   23182948.5044
 -13162516.68447 -10221842.94946  20279382.9384                   20279379.1334
  -3045569.82047  -1697194.24244  22437822.2814                   22437819.4144
 -17610428.04347 -13008583.37545  21061481.0944                   21061478.0474
  10679452.95746   8343969.03944  22337249.8594                   22337248.1454
  -4926370.81647  -3794991.92644  21854655.3834                   21854651.6484
   3450485.48447   2718587.01644  22374570.2814                   22374565.8444
 11  8  1 19 19  0.0000000  0  8G17G24G07G28G08G13G11G19
  28953338.02746  22607247.41043  24178737.8204                   24178739.9494
  18465124.64146  14755285.86343  23146888.7814                   23146888.9144
 -13295855.14847 -10325743.03946  20254009.1564                   20254005.4924
  -3197461.49647  -1815551.35544  22408918.6174                   22408915.2384
 -17792379.10947 -13150363.41445  21026857.1884                   21026853.7814
  10663313.18447   8331392.51644  22334178.5784                   22334176.6134
  -5089817.67647  -3922353.05544  21823552.3284                   21823548.9344
   3417720.45747   2693055.79744  22368335.5314                   22368330.9804
 11  8  1 19 19 30.0000000  0  8G17G24G07G28G08G13G11G19
  28731371.60246  22434286.93443  24136498.6094                   24136501.1254
  18275795.50446  14607756.81343  23110861.1954                   23110860.2774
 -13428822.89547 -10429354.26246  20228706.0084                   20228702.5394
  -3349239.74647  -1933820.07444  22380035.9614                   22380032.6524
 -17974138.44947 -13291994.05545  20992269.4534                   20992266.3204
  10647394.51647   8318988.28144  22331149.2814                   22331147.6724
  -5252824.55947  -4049371.33644  21792533.0944                   21792529.5314
   3385274.87547   2667773.51644  22362160.7664                   22362156.1134
 11  8  1 19 20  0.0000000  0  8G17G24G07G28G08G13G11G19
  28509542.27046  22261433.23843  24094285.1884                   24094287.9804
  18086641.08646  14460363.87943  23074865.5944                   23074866.1484
 -13561411.59847 -10532670.12146  20203475.7034                   20203471.6214
  -3500899.32847  -2051996.33244  22351176.2114                   22351173.0744
 -18155697.64847 -13433468.73845  20957719.6414                   20957715.9694
  10631700.29747   8306758.92644  22328162.7664                   22328161.4144
  -5415382.70347  -4176039.94144  21761599.1884                   21761595.7424
   3353153.04347   2642743.48844  22356048.4774                   22356043.8524
 11  8  1 19 20 30.0000000  0  8G17G24G07G28G08G13G11G19
  29863284.34046  23316297.53543  24351894.1804                   24351895.8444
  19473095.00446  15540717.65643  23338699.8134                   23338699.1954
 -12118190.85247  -9408082.52346  20478111.6094                   20478107.8134
  -2077011.28547   -942473.14144  22622133.1564                   22622129.4774
 -16761623.41847 -12347177.11345  21223002.2584                   21223000.2774
  12191652.19147   9522305.78144  22625011.6564                   22625010.1454
  -4002059.44147  -3074749.02045  22030545.8914                   22030542.5204
   4896777.10247   3845567.41044  22649790.1804                   22649785.4104
 11  8  1 19 21  0.0000000  0  8G17G24G07G28G08G13G11G19
  29641745.01646  23143669.87543  24309736.3594                   24309737.8794
  19284308.05946  15393611.07443  23302774.0394                   23302774.3984
 -12250007.60547  -9510796.87146  20453027.5084                   20453023.7814
  -2228426.51247  -1060459.00044  22593319.1724                   22593316.3284
 -16942765.12947 -12488326.47745  21188533.0554                   21188529.9414
  12176406.77047   9510426.13744  22622110.5314                   22622109.2464
  -4163703.18047  -3200705.11344  21999785.8674                   21999782.5944
   4865302.62147   3821041.82044  22643800.5864                   22643796.1414
 11  8  1 19 21 30.0000000  0  8G17G24G07G28G08G13G11G19
  29420357.11346  22971160.16843  24267608.3754                   24267609.3364
  19095713.30946  15246654.23443  23266885.3594                   23266885.8554
 -12381432.17247  -9613205.61346  20428017.9384                   20428014.1844
  -2379717.34847  -1178347.91844  22564530.2274                   22564526.9304
 -17123691.39147 -12629307.97745  21154103.7734                   21154100.7464
  12161384.73447   9498720.56344  22619252.2424                   22619250.4064
  -4324882.80147  -3326299.55944  21969113.9534                   21969111.0904
   4834151.32447   3796768.05544  22637873.2894                   22637868.4344
 11  8  1 19 22  0.0000000  0  8G17G24G07G28G08G13G11G19
  29199125.14546  22798772.00043  24225507.9304                   24225509.5904
  18907316.37146  15099851.52343  23231035.1884                   23231034.9144
 -12512460.85947  -9715305.87946  20403084.2504                   20403080.4734
  -2530882.03147  -1296138.53944  22535763.9144                   22535761.0824
 -17304397.57047 -12770117.96545  21119716.5704                   21119714.0634
  12146584.73447   9487188.00444  22616436.5634                   22616434.4844
  -4485593.73047  -3451528.80945  21938531.7274                   21938528.5944
   4803322.20747   3772745.35944  22632006.2814                   22632001.6564
 11  8  1 19 22 30.0000000  0  8G17G24G07G28G08G13G11G19
  28978051.68446  22626507.30543  24183438.2344                   24183440.6214
  18719120.45346  14953205.44543  23195221.7734                   23195221.6334
 -12643091.38347  -9817095.89546  20378226.0394                   20378222.1724
  -2681921.04747  -1413831.25844  22507023.0084                   22507019.1804
 -17484880.88347 -12910754.30145  21085371.6254                   21085368.8874
  12132004.83647   9475826.95344  22613661.3914                   22613660.3954
  -4645833.23047  -3576390.70345  21908039.4064                   21908036.2624
   4772813.44947   3748972.27744  22626200.8834                   22626196.1844
 11  8  1 19 23  0.0000000  0  8G17G24G07G28G08G13G11G19
  28757148.50446  22454375.32043  24141401.9694                   24141403.8914
  18531138.49246  14806726.10243  23159450.4304                   23159450.0044
 -12773312.36747  -9918566.78546  20353445.7584                   20353441.8134
  -2832825.82447  -1531419.35244  22478306.2504                   22478303.3284
 -17665129.09047 -13051207.43045  21051071.2424                   21051068.5234
  12117651.14547   9464642.15644  22610930.3204                   22610928.8874
  -4805589.40247  -3700875.98044  21877638.6724                   21877635.1884
   4742631.79347   3725454.07444  22620457.5944                   22620452.4614
 11  8  1 19 23 30.0000000  0  8G17G24G07G28G08G13G11G19
  28536415.45746  22282375.90943  24099397.6334                   24099399.4614
  18343371.83646  14660414.53543  23123719.5864                   23123719.5744
 -12903124.04747 -10019718.73846  20328743.1724                   20328739.4494
  -2983598.78547  -1648904.73844  22449615.2274                   22449612.1214
 -17845141.87147 -13191477.11745  21016816.4454                   21016813.1374
  12103519.13747   9453630.10244  22608241.0784                   22608239.7814
  -4964861.46947  -3824984.05144  21847330.2584                   21847326.8714
   4712772.77047   3702187.29344  22614775.5554                   22614771.0204
 11  8  1 19 24  0.0000000  0  8G17G24G07G28G08G13G11G19
  28315855.30146  22110511.16843  24057425.5004                   24057427.5044
  18155824.05946  14514273.50443  23088029.7274                   23088029.6374
 -13032524.63747 -10120550.33246  20304119.3284                   20304115.3714
  -3134240.73447  -1766288.04744  22420948.6884                   22420945.7704
 -18024916.27747 -13331561.05145  20982605.8284                   20982603.2304
  12089606.21147   9442788.76244  22605594.0164                   22605591.7274
  -5123646.79347  -3948712.82844  21817114.6414                   21817110.7344
   4683233.63347   3679169.75844  22609153.8204                   22609150.0514
 11  8  1 19 24 30.0000000  0  8G17G24G07G28G08G13G11G19
  28095469.41446  21938782.23843  24015488.0704                   24015489.1684
  17968497.57446  14368304.95343  23052382.9224                   23052382.6254
 -13161513.03547 -10221060.76646  20279573.7734                   20279570.1374
  -3284752.78947  -1883570.12144  22392306.9454                   22392304.4144
 -18204450.95347 -13471458.18045  20948441.9844                   20948438.9574
  12075908.41047   9432115.05143  22602987.3524                   22602985.4104
  -5281943.90247  -4072061.18444  21786991.5314                   21786988.2344
   4654011.05147   3656398.88344  22603594.1954                   22603589.3954
 11  8  1 19 25  0.0000000  0  8G17G24G07G28G08G13G11G19
  27875261.72346  21767192.16043  23973584.3204                   23973584.6914
  17781397.66446  14222512.93443  23016778.5554                   23016778.9414
 -13290085.52047 -10321247.10546  20255107.1564                   20255103.3134
  -3435133.74247  -2000750.05144  22363690.7194                   22363687.3834
 -18383741.01647 -13611164.69945  20914324.0084                   20914321.0274
  12062425.02347   9421608.42244  22600421.3594                   22600419.8204
  -5439748.50447  -4195025.77045  21756962.1724                   21756958.7114
   4625104.07447   3633873.91444  22598093.2194                   22598088.6484
 11  8  1 19 25 30.0000000  0  8G17G24G07G28G08G13G11G19
  27655232.03246  21595740.74143  23931713.1954                   23931714.4454
  17594525.28146  14076898.26243  22981218.3984                   22981218.2974
 -13418242.60247 -10421109.76246  20230719.5314                   20230715.7544
  -3585386.80947  -2117830.34045  22335098.7274                   22335094.7234
 -18562786.37947 -13750680.53545  20880253.1884                   20880249.9884
  12049150.96547   9411264.88343  22597896.0004                   22597894.2074
  -5597060.66447  -4317606.63344  21727026.6414                   21727023.2704
   4596508.14847   3611591.35544  22592651.3754                   22592646.8324
 11  8  1 19 26  0.0000000  0  8G17G24G07G28G08G13G11G19
  27435380.07846  21424427.84443  23889877.2344                   23889877.4654
  17407881.09846  13931461.39843  22945700.3134                   22945701.5204
 -13545984.85547 -10520649.17646  20206411.0164                   20206407.5904
  -3735514.91447  -2234813.24245  22306530.4064                   22306527.0634
 -18741586.81247 -13890005.52345  20846228.4454                   20846225.4454
  12036080.25047   9401079.79343  22595408.6094                   22595406.9774
  -5753880.30947  -4439803.71144  21697184.7274                   21697181.7234
   4568217.85947   3589546.93844  22587267.8594                   22587263.4024
 11  8  1 19 26 30.0000000  0  8G17G24G07G28G08G13G11G19
  27215718.67646  21253263.37543  23848076.1094                   23848077.0744
  17221479.03546  13786213.19143  22910228.8134                   22910229.2114
 -13673300.09447 -10619855.84446  20182183.8054                   20182179.9614
  -3885508.00447  -2351690.93044  22277986.9454                   22277983.9064
 -18920129.35947 -14029129.55545  20812252.7894                   20812249.5864
  12023221.13747   9391059.60943  22592961.1564                   22592959.9494
  -5910194.48847  -4561606.94544  21667438.4774                   21667435.8754
   4540241.28147   3567746.98444  22581943.7344                   22581939.7154
 11  8  1 19 27  0.0000000  0  8G17G24G07G28G08G13G11G19
  28571664.72346  22309844.96143  24106104.3134                   24106104.8284
  18610735.87946  14868751.18443  23174595.7114                   23174596.1844
 -12224775.07047  -9491135.03546  20457828.9224                   20457824.8484
  -2459954.66847  -1240870.11345  22549261.1024                   22549257.2664
 -17522997.96547 -12940455.72345  21078117.8914                   21078114.9414
  13585978.43847  10608792.46544  22890344.3054                   22890342.5784
  -4490588.27047  -3455420.23445  21937581.2504                   21937577.8404
   6087984.21947   4773780.43044  22876469.9844                   22876465.2624
 11  8  1 19 27 30.0000000  0  8G17G24G07G28G08G13G11G19
  28352372.27046  22138967.99643  24064374.3594                   24064374.7854
  18424809.04746  14723873.28143  23139214.8914                   23139215.3244
 -12351249.91847  -9589686.86746  20433761.5004                   20433757.7074
  -2609698.81247  -1357553.83244  22520765.8364                   22520762.4804
 -17701035.42647 -13079186.18045  21044238.8914                   21044235.7974
  13573515.10547  10599080.65644  22887973.0084                   22887971.3874
  -4645903.15647  -3576444.78944  21908025.5554                   21908022.0744
   6060608.42246   4752448.62944  22871260.6644                   22871255.7664
 11  8  1 19 28  0.0000000  0  8G17G24G07G28G08G13G11G19
  28133263.71946  21968234.30943  24022679.2664                   24022679.3134
  18239120.90646  14579181.41443  23103880.2114                   23103879.9804
 -12477305.62947  -9687912.08646  20409773.7664                   20409770.3404
  -2759323.43447  -1474144.41045  22492293.0164                   22492289.7664
 -17878820.58647 -13217720.05545  21010407.2194                   21010404.0204
  13561240.98047  10589516.26643  22885637.0634                   22885635.9224
  -4800719.05947  -3697080.53145  21878565.1254                   21878562.1024
   6033525.06347   4731344.69144  22866106.2814                   22866102.2934
 11  8  1 19 28 30.0000000  0  8G17G24G07G28G08G13G11G19
  27914343.39546  21797647.29743  23981019.5084                   23981020.0554
  18053677.11746  14434679.92243  23068591.0314                   23068590.9024
 -12602938.33647  -9785807.69946  20385866.8364                   20385862.6484
  -2908826.94547  -1590640.60944  22463843.2274                   22463840.0164
 -18056348.40647 -13356053.39845  20976625.2274                   20976621.5824
  13549155.42247  10580098.83243  22883337.6644                   22883336.5744
  -4955031.46947  -3817323.94144  21849200.0314                   21849196.9574
   6006734.16846   4710468.63744  22861008.5704                   22861003.9104
 11  8  1 19 29  0.0000000  0  8G17G24G07G28G08G13G11G19
  27695611.28946  21627206.93043  23939395.1414                   23939396.5164
  17868479.06646  14290369.89143  23033348.8054                   23033348.6994
 -12728148.16447  -9883373.78546  20362040.1484                   20362036.4104
  -3058211.85947  -1707044.41844  22435416.2664                   22435412.8954
 -18233618.50047 -13494185.91045  20942891.5944                   20942888.4304
  13537253.80147  10570824.69543  22881072.0944                   22881071.7544
  -5108839.82847  -3937174.58244  21819931.5474                   21819928.3244
   5980230.67647   4689816.55544  22855965.4454                   22855960.1914
 11  8  1 19 29 30.0000000  0  9G17G24G07G28G08G13G11G19G26
  27477058.93846  21456906.64543  23897806.7344                   23897807.0594
  17683519.01246  14146245.29743  22998151.9694                   22998151.4224
 -12852944.65647  -9980617.79746  20338292.0704                   20338288.5004
  -3207489.69147  -1823364.76644  22407009.2814                   22407005.9534
 -18410638.79747 -13632123.78145  20909205.5234                   20909202.4804
  13525522.59447  10561683.35544  22878840.1174                   22878839.4184
  -5262152.92247  -4056639.31644  21790756.8444                   21790753.8364
   5954001.39547   4669378.15244  22850973.9924                   22850969.4454
  32752575.41446  25564382.43442  23978395.0634                   23978393.6414
 11  8  1 19 30  0.0000000  0  9G17G24G07G28G08G13G11G19G26
  27258678.14546  21286740.05143  23856249.5314                   23856250.5234
  17498789.66446  14002300.48043  22962999.6884                   22962998.8914
 -12977336.69147 -10077546.64846  20314621.5084                   20314617.6484
  -3356671.43047  -1939610.24645  22378621.0784                   22378617.5234
 -18587417.40247 -13769873.33245  20875565.6254                   20875562.6054
  13513948.27047  10552664.28143  22876638.0004                   22876637.2114
  -5414978.75047  -4175724.35944  21761675.3594                   21761672.2234
   5928033.02746   4649143.02044  22846032.2504                   22846027.4884
  32552038.27746  25408119.79742  23940233.0784                   23940232.6844
 11  8  1 19 30 30.0000000  0  9G17G24G07G28G08G13G11G19G26
  27040467.00846  21116705.62943  23814725.1094                   23814726.3404
  17314290.49646  13858535.02044  22927890.2034                   22927889.4224
 -13101326.33247 -10174161.94946  20291026.7194                   20291022.9104
  -3505761.59447  -2055784.37144  22350250.4844                   22350246.9574
 -18763955.21147 -13907435.23845  20841971.6334                   20841968.4614
  13502524.10247  10543762.18043  22874464.5084                   22874463.4694
  -5567319.27047  -4294431.23345  21732685.9224                   21732682.2234
   5902318.94147   4629106.06644  22841139.4454                   22841134.1724
  32351917.82845  25252181.80142  23902152.0394                   23902151.8954
 11  8  1 19 31  0.0000000  0  9G17G24G07G28G08G13G11G19G26
  26822425.88746  20946803.66043  23773233.2974                   23773233.7544
  17130023.14846  13714950.17643  22892824.9774                   22892824.5744
 -13224913.31247 -10270463.48446  20267508.9614                   20267505.3754
  -3654762.53947  -2171888.98444  22321896.3914                   22321893.1094
 -18940251.65247 -14044809.07445  20808423.6254                   20808420.1804
  13491245.65247  10534973.62143  22872317.3754                   22872317.3244
  -5719173.85547  -4412759.45744  21703789.4454                   21703785.9104
   5876855.33247   4609264.27044  22836293.7344                   22836288.8484
  32152214.82446  25096569.13742  23864149.4534                   23864150.3794
 11  8  1 19 31 30.0000000  0  9G17G24G07G28G08G13G11G19G26
  26604538.19146  20777021.24643  23731770.5634                   23731770.8914
  16945971.75446  13571533.62543  22857800.6414                   22857800.7854
 -13348115.21147 -10366464.96146  20244064.5004                   20244060.4414
  -3803694.07047  -2287939.50045  22293556.3444                   22293552.4304
 -19116323.25847 -14182007.71145  20774918.3524                   20774915.0514
  13480090.59847  10526281.23443  22870195.3364                   22870194.8834
  -5870559.33247  -4530722.14145  21674981.1884                   21674978.0204
   5851620.27347   4589600.55144  22831491.8284                   22831486.9494
  31952913.13746  24941269.18842  23826224.2114                   23826224.5904
 11  8  1 19 32  0.0000000  0  9G17G24G07G28G08G13G11G19G26
  26386812.94946  20607365.40643  23690339.1334                   23690338.8834
  16762146.78146  13428293.49643  22822820.0864                   22822819.6564
 -13470923.05147 -10462159.36746  20220694.9064                   20220690.9654
  -3952549.41847  -2403930.65245  22265229.8914                   22265226.1334
 -19292159.73447 -14319023.12945  20741457.7274                   20741454.7704
  13469063.67647  10517688.68043  22868097.3674                   22868096.4304
  -6021466.29347  -4648311.96144  21646264.6254                   21646261.0514
   5826618.15247   4570118.33644  22826733.4064                   22826728.9144
  31754022.78946                  23788375.6094
 11  8  1 19 32 30.0000000  0  9G17G24G07G28G08G13G11G19G26
  26169250.98846  20437836.79343  23648938.1174                   23648937.9654
  16578550.12146  13285231.26243  22787882.9614                   22787882.2814
 -13593336.36348 -10557546.35546  20197400.5864                   20197396.3594
  -4101330.74247  -2519864.11745  22236917.8364                   22236914.0274
 -19467759.93047 -14455854.43745  20708041.9694                   20708038.6764
  13458160.53547  10509192.58643  22866021.9694                   22866021.5314
  -6171893.83647  -4765528.18745  21617638.8674                   21617635.7894
   5801845.05147   4550814.59444  22822019.9064                   22822014.9224
  31555545.49246  24722443.17642  23750607.4304                   23750606.1884
 11  8  1 19 33  0.0000000  0  9G17G24G07G28G08G13G11G19G26
  25951854.41846  20268437.05143  23607568.6174                   23607569.1054
  16395184.88746  13142349.36343  22752988.7584                   22752988.9224
 -13715353.93447 -10652624.98046  20174180.9774                   20174177.3204
  -4250038.88347  -2635740.56645  22208619.2344                   22208616.0664
 -19643121.51247 -14592499.80545  20674671.7894                   20674668.5554
  13447378.14847  10500790.55943  22863971.2274                   22863969.8404
  -6321840.23047  -4882369.50845  21589105.3364                   21589102.1914
   5777298.26247   4531687.18844  22817348.2274                   22817344.2464
  31357483.82846  24568109.44542  23712917.2734                   23712916.3984
 11  8  1 19 33 30.0000000  0  9G17G24G07G28G08G13G11G19G26
  25734621.53146  20099164.86743  23566230.0554                   23566230.7544
  16212050.47346  12999647.32443  22718140.5394                   22718140.3364
 -13836978.14547 -10747397.08646  20151036.6564                   20151032.9964
  -4398678.03547  -2751563.25445  22180334.1484                   22180330.5514
 -19818245.28547 -14728959.87945  20641346.7584                   20641343.9614
  13436709.84446  10492477.43843  22861940.7664                   22861939.8634
  -6471307.44147  -4998837.43045  21560662.7504                   21560659.2544
   5752971.68446   4512731.38344  22812718.9534                   22812714.4884
  31159836.65646  24414098.73043  23675306.5784                   23675305.1214
 11  8  1 19 34  0.0000000  0  9G17G24G07G28G08G13G11G19G26
  27092981.48846  21157627.35944  23824717.6564                   23824717.7974
  17604576.38346  14084732.53543  22983128.4144                   22983128.5004
 -12382782.93747  -9614257.95746  20427760.6564                   20427757.0354
  -2971823.81647  -1639728.75845  22451855.3834                   22451851.8524
 -18417703.21547 -13637628.37945  20907860.7584                   20907857.9804
  15001573.38346  11711851.44943  23159724.7114                   23159723.8364
  -5044868.10247  -3887326.23045  21832105.0634                   21832102.0634
   7304283.46146   5721545.71944  23107924.6954                   23107919.2974
  32538033.25846  25488018.17243  23937569.0634                   23937567.1134
 11  8  1 19 34 30.0000000  0  9G17G24G07G28G08G13G11G19G26
  26876079.69946  20988613.18443  23783443.0394                   23783442.2704
  17421911.36746  13942396.25043  22948369.0004                   22948368.0904
 -12503617.28547  -9708414.59046  20404767.4224                   20404763.2114
  -3120329.05947  -1755447.11745  22423595.4774                   22423592.2504
 -18592346.41048 -13773713.96946  20874627.5554                   20874624.8484
  14991122.60546  11703707.84043  23157735.5634                   23157734.9414
  -5193372.17247  -4003043.66045  21803845.7974                   21803842.3244
   7280386.83246   5702924.93844  23103377.1024                   23103371.6684
  32341221.13746  25334658.13743  23900116.6804                   23900115.5474
 11  8  1 19 35  0.0000000  0  9G17G24G07G28G08G13G11G19G26
  26659347.80146  20819731.36744  23742199.5634                   23742199.3324
  17239486.84446  13800247.35243  22913654.8054                   22913654.1294
 -12624053.45347  -9802260.94946  20381848.5864                   20381845.1994
  -3268767.23047  -1871113.19944  22395348.9614                   22395345.5394
 -18766744.30147 -13909608.41046  20841440.7894                   20841437.9804
  14980777.07847  11695646.20343  23155767.6024                   23155766.4614
  -5341391.08247  -4118383.05145  21775678.8444                   21775674.8594
   7256702.28547   5684469.39844  23098870.1804                   23098864.9734
  32144831.60546  25181627.40243  23862744.4144                   23862743.1524
 11  8  1 19 35 30.0000000  0  9G17G24G07G28G08G13G11G19G26
  26442782.34046  20650979.27043  23700988.3134                   23700988.3134
  17057300.78546  13658284.27343  22878986.2734                   22878984.9884
 -12744095.32447  -9895800.06246  20359005.6254                   20359001.6954
  -3417144.59447  -1986731.89845  22367113.5864                   22367110.0394
 -18940899.84848 -14045314.02046  20808300.4534                   20808297.1214
  14970528.68846  11687660.28143  23153817.5314                   23153816.5744
  -5488927.78947  -4233346.69145  21747603.3984                   21747599.8594
   7233221.79747   5666172.90244  23094401.7734                   23094397.0864
  31948862.05946  25028923.91443  23825452.8834                   23825451.1644
 11  8  1 19 36  0.0000000  0  9G17G24G07G28G08G13G11G19G26
  26226381.53146  20482355.46943  23659807.8914                   23659807.8554
  16875352.49246  13516506.48843  22844362.5314                   22844361.2974
 -12863745.21947  -9989033.75046  20336236.9384                   20336233.1134
  -3565465.50447  -2102306.60945  22338889.0474                   22338885.6214
 -19114814.14547 -14180831.63345  20775205.5164                   20775202.2814
  14960370.55146  11679744.64843  23151884.8284                   23151883.6294
  -5635984.24647  -4347936.11345  21719619.2664                   21719615.9654
   7209939.03147   5648030.43444  23089970.7814                   23089966.2464
  31753311.15646  24876546.68443  23788240.2424                   23788239.4844
 11  8  1 19 36 30.0000000  0  9G17G24G07G28G08G13G11G19G26
  26010150.29746  20313863.77343  23618660.9384                   23618661.1804
  16693648.26647  13374918.85243  22809784.2584                   22809783.7734
 -12982998.70747 -10081958.53946  20313544.0394                   20313539.9224
  -3713727.88347  -2217835.70745  22310675.9064                   22310672.4224
 -19288481.34847 -14316156.71946  20742157.6334                   20742154.0394
  14950302.87146  11671899.52743  23149969.0474                   23149968.0664
  -5782555.71947  -4462147.62545  21691727.9304                   21691724.4964
   7186854.01247   5630042.08244  23085578.4534                   23085573.4454
  31558184.93446  24724500.32843  23751109.6564                   23751108.8594
 11  8  1 19 37  0.0000000  0  9G17G24G07G28G08G13G11G19G26
  25794094.52346  20145508.81643  23577546.9924                   23577546.9184
  16512194.99246  13233526.77043  22775255.1414                   22775254.4184
 -13101850.35947 -10174570.21146  20290926.9304                   20290922.8524
  -3861928.10247  -2333316.37544  22282474.2734                   22282470.6174
 -19461895.16448 -14451284.35245  20709158.0084                   20709154.8914
  14940326.47346  11664125.53543  23148070.7034                   23148069.9964
  -5928636.17247  -4575976.51245  21663929.1334                   21663925.8014
   7163967.72346   5612208.56344  23081223.1954                   23081218.3054
  31363489.67246  24572789.79343  23714060.5394                   23714058.9184
 11  8  1 19 37 30.0000000  0  9G17G24G07G28G08G13G11G19G26
  25578205.22346  19977283.59843  23536464.0634                   23536463.7544
  16330984.84046  13092324.15644  22740772.5234                   22740771.3634
 -13220309.33247 -10266875.91046  20268384.8914                   20268381.1954
  -4010077.89847  -2448757.75845  22254282.0004                   22254278.7384
 -19635064.00447 -14586221.10246  20676204.9534                   20676201.7894
  14930427.62946  11656411.94943  23146186.9384                   23146186.0434
  -6074235.27747  -4689430.31245  21636222.8364                   21636219.5944
   7141267.36347   5594519.95344  23076903.6564                   23076898.6214
  31169216.99246  24421408.56643  23677091.0164                   23677090.3524
 11  8  1 19 38  0.0000000  0  9G17G24G07G28G08G13G11G19G26
  25362477.11346  19809183.96144  23495412.6484                   23495411.8914
  16150013.38746  12951307.52043  22706334.2194                   22706333.5434
 -13338382.15247 -10358880.71146  20245916.2894                   20245912.7304
  -4158185.43047  -2564166.19145  22226098.2424                   22226094.6294
 -19807992.99247 -14720970.94545  20643297.2974                   20643294.6484
  14920595.95746  11648750.71543  23144315.7894                   23144316.2344
  -6219358.16447  -4802513.04745  21608607.1094                   21608603.6844
   7118742.57446   5576968.14544  23072617.2194                   23072612.6134
  30975362.16446  24270352.91843  23640201.5394                   23640200.5744
 11  8  1 19 38 30.0000000  0  9G17G24G07G28G08G13G11G19G26
  25146911.15246  19641210.68444  23454391.9064                   23454391.0704
  15969282.43846  12810478.28943  22671941.8914                   22671941.5824
 -13456068.59047 -10450584.43046  20223520.9774                   20223517.4774
  -4306252.53947  -2679543.13345  22197921.8524                   22197918.3634
 -19980680.28548 -14855532.45346  20610436.5004                   20610433.1134
  14910827.35946  11641138.59043  23142457.7114                   23142457.0744
  -6364004.16447  -4915224.17645  21581081.0864                   21581078.2074
   7096389.17246   5559549.87544  23068363.6174                   23068358.8244
  30781926.21546  24119623.69543  23603391.8364                   23603390.7664
 11  8  1 19 39  0.0000000  0  9G17G24G07G28G08G13G11G19G26
  24931510.90646  19473366.50844  23413401.3914                   23413401.3874
  15788797.39846  12669840.69143  22637597.5634                   22637596.5944
 -13573365.18047 -10541984.37546  20201200.6724                   20201197.1804
  -4454277.93047  -2794887.56245  22169752.8914                   22169749.8984
 -20153121.38748 -14989902.13346  20577621.7194                   20577618.6994
  14901120.81646  11633574.87143  23140610.4224                   23140609.6374
  -6508169.71947  -5027560.93445  21553647.7814                   21553644.5944
   7074206.94946   5542265.00044  23064141.8914                   23064137.6374
  30588913.99246  23969224.60943  23566662.9144                   23566661.6954
 11  8  1 19 39 30.0000000  0  9G17G24G07G28G08G13G11G19G26
  24716272.55047  19305648.51744  23372443.3444                   23372442.5824
  15608555.55146  12529392.57843  22603298.8204                   22603297.9184
 -13690276.02047 -10633083.73846  20178953.5084                   20178949.6684
  -4602267.92247  -2910204.40644  22141591.9454                   22141588.0084
 -20325319.36748 -15124082.35946  20544853.2974                   20544850.2194
  14891467.91446  11626052.93443  23138772.9534                   23138773.2664
  -6651858.44147  -5139526.12145  21526304.5004                   21526301.2584
   7052187.31346   5525106.82044  23059952.1024                   23059947.4304
  30396322.36746  23819153.27043  23530014.3364                   23530012.7384
 11  8  1 19 40  0.0000000  0  9G17G24G07G28G08G13G11G19G26
  24501194.43047  19138055.36744  23331515.1954                   23331514.5704
  15428555.71546  12389133.03943  22569045.9844                   22569044.4924
 -13806803.85247 -10723884.65646  20156779.0004                   20156775.3094
  -4750227.17647  -3025497.30945  22113436.4924                   22113432.8094
 -20497276.00048 -15258074.53145  20512131.8524                   20512128.2424
  14881861.43846  11618567.11343  23136945.1724                   23136945.1764
  -6795072.98847  -5251121.82445  21499051.9144                   21499048.2814
   7030323.57846   5508070.11743  23055791.4224                   23055786.9494
  30204149.51646  23669408.24243  23493444.3284                   23493443.2934
 11  8  1 19 40 30.0000000  0  9G17G24G07G28G08G13G11G19G26
  25861717.98446  20198203.78544  23590413.8444                   23590413.3634
  16824240.19146  13476679.49644  22834635.0314                   22834633.9304
 -12347510.88347  -9586773.24646  20434472.8134                   20434469.2584
  -3322718.72347  -1913153.03545  22385081.8524                   22385078.7194
 -19093549.97348 -14164262.02346  20779251.4694                   20779248.2854
  16447731.61346  12838725.47743  23434921.6254                   23434920.7154
  -5362374.15247  -4134733.09445  21771685.1804                   21771681.1884
   8584046.63346   6718763.37144  23351455.3984                   23351450.8364
  31587837.55946  24747606.76643  23756751.2034                   23756749.8634
 11  8  1 19 41  0.0000000  0  9G17G24G07G28G08G13G11G19G26
  25646996.94546  20030888.88744  23549553.8984                   23549553.3594
  16644766.07046  13336829.61343  22800482.0944                   22800481.5634
 -12463237.45747  -9676949.80546  20412451.0784                   20412447.3014
  -3470586.96947  -2028375.02345  22356943.6254                   22356940.0394
 -19264984.09448 -14297847.03146  20746628.9614                   20746625.5984
  16438240.80546  12831329.81343  23433115.2504                   23433114.8914
  -5504603.69547  -4245561.26245  21744619.5864                   21744616.2974
   8562518.20746   6701987.93444  23347358.3594                   23347353.6454
  31396542.05946  24598545.40643  23720348.7504                   23720348.5664
 11  8  1 19 41 30.0000000  0  9G17G24G07G28G08G13G11G19G26
  25432461.06346  19863718.24244  23508729.5314                   23508727.9414
  16465562.77046  13197190.78543  22766380.1804                   22766380.0204
 -12578557.53947  -9766809.61746  20390506.1804                   20390502.4104
  -3618407.28147  -2143559.64845  22328814.4384                   22328811.0864
 -19436149.55148 -14431222.69946  20714056.9694                   20714053.9344
  16428807.42646  12823978.90643  23431320.3524                   23431320.3954
  -5646334.54747  -4356000.85545  21717649.3674                   21717646.0004
   8541157.02046   6685342.82444  23343293.4454                   23343289.8014
  31205692.47346  24449831.49243  23684031.5234                   23684030.5514
 11  8  1 19 42  0.0000000  0  9G17G24G07G28G08G13G11G19G26
  25218120.51246  19696699.82843  23467940.7894                   23467939.8554
  16286641.48047  13057771.69944  22732333.0704                   22732332.5234
 -12693461.91447  -9856345.50046  20368640.5314                   20368637.2464
  -3766171.84447  -2258700.84045  22300695.3834                   22300692.0234
 -19607035.72748 -14564380.74246  20681538.5234                   20681535.0554
  16419436.55546  12816676.67243  23429537.3444                   23429537.3954
  -5787556.94947  -4466044.26245  21690775.8284                   21690771.7734
   8519968.80946   6668832.50844  23339261.3834                   23339257.5274
  31015299.32046  24301473.25843  23647800.6414                   23647799.5594
 11  8  1 19 42 30.0000000  0  9G17G24G07G28G08G13G11G19G26
  25003978.94946  19529836.45743  23427191.6024                   23427190.1334
  16108007.40646  12918576.38744  22698339.6564                   22698338.8164
 -12807947.26247  -9945554.86346  20346855.1414                   20346850.9384
  -3913879.41447  -2373797.63345  22272587.6414                   22272584.0434
 -19777638.00448 -14697317.56246  20649073.8594                   20649070.3954
  16410127.33246  12809422.52043  23427766.1174                   23427765.8554
  -5928267.38747  -4575688.73445  21663999.4304                   21663996.1294
   8498952.97346   6652456.46944  23335262.1884                   23335258.1684
  30825367.06346  24153474.12943  23611659.1724                   23611657.4884
 11  8  1 19 43  0.0000000  0  9G17G24G07G28G08G13G11G19G26
  24790041.86746  19363132.40643  23386480.7274                   23386479.4884
  15929667.15646  12779610.05144  22664403.0474                   22664402.5394
 -12922008.62547 -10034433.85546  20325149.6484                   20325145.8754
  -4061527.18447  -2488847.82044  22244490.8834                   22244487.7664
 -19947950.19948 -14830028.35246  20616664.5234                   20616661.6724
  16400880.19146  12802216.73443  23426006.0234                   23426006.1024
  -6068460.52747  -4684930.09845  21637321.1644                   21637317.8674
   8478110.25446   6636215.35243  23331296.5394                   23331292.2894
  30635901.75046  24005838.92243  23575604.2814                   23575603.2194
 11  8  1 19 43 30.0000000  0  9G17G24G07G28G08G13G11G19G26
  24576321.05946  19196596.85544  23345810.0394                   23345809.5864
  15751633.50847  12640882.60944  22630524.4534                   22630523.7424
 -13035635.11747 -10122973.97746  20303527.3914                   20303523.6604
  -4209105.86347  -2603844.18045  22216408.1414                   22216404.6174
 -20117959.71947 -14962503.29345  20584312.8444                   20584309.6644
  16391701.82846  12795064.49643  23424260.7504                   23424259.7814
  -6208125.19147  -4793759.67245  21610744.0394                   21610740.3524
   8457447.59446   6620114.53944  23327364.6094                   23327359.8834
  30446915.43446  23858576.91443  23539641.3134                   23539640.3014
 11  8  1 19 44  0.0000000  0  9G17G24G07G28G08G13G11G19G26
  24362823.21146  19030235.04744  23305183.6644                   23305181.9654
  15573914.60947  12502400.43444  22596706.0704                   22596704.9184
 -13148820.44547 -10211170.33646  20281988.7114                   20281984.8524
  -4356611.27347  -2718783.43045  22188338.7344                   22188335.0864
 -20287659.25447 -15094736.68746  20552019.9534                   20552016.9774
  16382594.71546  12787967.80543  23422527.5944                   23422526.8484
  -6347254.72747  -4902172.27045  21584268.4694                   21584264.9184
   8436967.89846   6604156.28544  23323466.8984                   23323463.2464
  30258415.62146  23711693.98043  23503771.3754                   23503769.8134
 11  8  1 19 44 30.0000000  0  9G17G24G07G28G08G13G11G19G26
  24149544.50046  18864044.00843  23264596.8914                   23264596.4064
  15396507.33247  12364161.05944  22562946.1254                   22562945.1414
 -13261569.57847 -10299026.80946  20260534.0394                   20260529.4184
  -4504049.76247  -2833670.54345  22160282.3984                   22160278.7194
 -20457052.38747 -15226731.32846  20519785.6644                   20519782.4454
  16373549.95746  12780919.69943  23420806.1254                   23420806.1094
  -6485853.65647  -5010171.39545  21557894.2734                   21557890.2854
   8416662.46146   6588333.84444  23319602.7034                   23319599.0904
  30070398.70746  23565187.34443  23467992.3134                   23467990.7544
 11  8  1 19 45  0.0000000  0  9G17G24G07G28G08G13G11G19G26
  23936492.66046  18698029.72744  23224053.9304                   23224053.6454
  15219420.79347  12226171.60544  22529247.9064                   22529246.4614
 -13373874.95747 -10386537.48846  20239162.5784                   20239158.5354
  -4651415.99647  -2948501.35945  22132239.2034                   22132235.4104
 -20626130.00047 -15358480.10245  20487611.1024                   20487608.1954
  16364570.71946  12773922.66443  23419098.7034                   23419098.0634
  -6623914.35947  -5117751.12945  21531621.9924                   21531618.1334
   8396534.61746   6572649.76244  23315773.6024                   23315768.9344
  29882872.98846  23419063.47343  23432307.9534                   23432305.6844
 11  8  1 19 45 30.0000000  0  9G17G24G07G28G08G13G11G19G26
  23723674.85546  18532197.80943  23183556.4454                   23183555.4064
  15042663.46147  12088438.68844  22495612.1564                   22495610.4224
 -13485729.89547 -10473697.18046  20217877.2034                   20217873.0984
  -4798705.10947  -3063272.07845  22104211.2584                   22104206.9454
 -20794884.29747 -15489976.94946  20455498.1804                   20455495.2234
  16355659.55146  12766978.63343  23417403.0864                   23417402.3284
  -6761430.09047  -5224906.21545  21505453.8754                   21505449.6174
   8376587.15646   6557106.24244  23311977.3984                   23311973.3014
  29695846.39546  23273328.53543  23396717.5004                   23396715.7384
 11  8  1 19 46  0.0000000  0  9G17G24G07G28G08G13G11G19G26
  23511087.15246  18366545.20343  23143102.6484                   23143101.4064
  14866232.28147  11950959.89844  22462038.3284                   22462036.5124
 -13597139.22747 -10560509.64146  20196676.8674                   20196672.9104
  -4945923.73047  -3177987.85945  22076196.3364                   22076192.9184
 -20963318.28547 -15621224.20346  20423446.3524                   20423443.1804
  16346807.53546  12760080.69543  23415717.7034                   23415718.3794
  -6898405.10247  -5331639.94945  21479387.9224                   21479384.2344
   8356811.55946   6541696.64844  23308214.0234                   23308209.9064
  29509315.31346  23127979.65242  23361221.7344                   23361219.7194
 11  8  1 19 46 30.0000000  0  9G17G24G07G28G08G13G11G19G26
  23298734.12546  18201075.44544  23102692.7114                   23102691.7274
  14690132.86347  11813739.62943  22428527.7894                   22428525.7624
 -13708099.09847 -10646971.87546  20175561.6884                   20175557.8594
  -5093069.94547  -3292647.23845  22048194.5634                   22048191.3164
 -21131427.23848 -15752218.18746  20391456.5394                   20391452.9384
  16338014.44946  12753228.68843  23414045.1564                   23414045.1094
  -7034835.59447  -5437949.37945  21453425.8364                   21453422.5394
   8337208.10946   6526421.16844  23304484.3134                   23304479.4804
  29323284.68046  22983020.77343  23325821.2194                   23325819.5204
 11  8  1 19 47  0.0000000  0  9G17G24G07G28G08G13G11G19G26
  24662043.87546  19263394.87544  23362121.0634                   23362120.9614
  16089793.62147  12904384.39844  22694874.0394                   22694872.5634
 -12243185.21547  -9505480.52046  20454325.2344                   20454321.6684
  -3664719.73447  -2179647.04745  22320001.1884                   22319997.4304
 -19723783.68047 -14655353.05945  20659321.8364                   20659319.0704
  17904697.09046  13974020.11743  23712173.8834                   23712175.0434
  -5595295.96547  -4316230.16845  21727361.2034                   21727357.6684
   9893193.89146   7738877.58644  23600578.3914                   23600573.6094
  30713182.25846  24066057.91043  23590310.0234                   23590308.0704
 11  8  1 19 47 30.0000000  0  9G17G24G07G28G08G13G11G19G26
  24450168.87947  19098297.61344  23321803.4144                   23321802.4924
  15914370.32047  12767690.98044  22661491.8914                   22661490.4454
 -12353239.24647  -9591236.91046  20433382.7584                   20433379.2934
  -3811719.15247  -2294192.03945  22292027.8284                   22292023.9264
 -19891231.05147 -14785831.52346  20627457.6174                   20627454.8794
  17896016.79346  13967255.96943  23710523.1644                   23710523.7854
  -5730629.11347  -4421684.53545  21701608.0944                   21701604.3714
   9873929.98446   7723866.71143  23596912.3524                   23596907.6764
  30528162.74646                  23921886.90643  23555101.6254   23555099.9144
 11  8  1 19 48  0.0000000  0  9G17G24G07G28G08G13G11G19G26
  24238537.82446  18933390.45744  23281531.2584                   23281530.3054
  15739291.62147  12631266.05543  22628175.4384                   22628173.9064
 -12462836.59447  -9676637.44146  20412527.2274                   20412523.1914
  -3958644.24647  -2408679.09045  22264068.9924                   22264065.0824
 -20058341.63747 -14916047.55146  20595657.7664                   20595654.4964
  17887390.61346  13960533.99643  23708881.6174                   23708882.0004
  -5865410.14847  -4526708.68445  21675960.5314                   21675956.9344
   9854834.15246   7708986.78143  23593278.8984                   23593273.9494
  30343654.08646                  23778113.98043  23519990.8054   23519989.2424
 11  8  1 19 48 30.0000000  0  9G17G24G07G28G08G13G11G19G26
  24027157.02047  18768678.24644  23241306.3914                   23241305.5124
  15564565.19146  12495115.63343  22594926.2814                   22594925.0234
 -12571971.90247  -9761677.94146  20391759.4064                   20391755.4924
  -4105490.60547  -2523104.81244  22236124.9694                   22236121.4534
 -20225108.02347 -15045995.37546  20563923.2504                   20563920.0984
  17878820.46146  13953855.69942  23707251.4454                   23707251.8324
  -5999632.48847  -4631297.48445  21650418.6094                   21650414.5124
   9835908.27746   7694239.31643  23589677.4064                   23589672.4264
  30159663.31346                  23634744.58643  23484978.6254   23484976.7584
 11  8  1 19 49  0.0000000  0  9G17G24G07G28G08G13G11G19G26
  23816029.35546  18604163.32444  23201130.2664                   23201129.3094
  15390195.19546  12359242.94143  22561744.0234                   22561743.2234
 -12680642.32447  -9846356.19146  20371080.0634                   20371076.5354
  -4252257.64847  -2637468.71145  22208196.1414                   22208192.4104
 -20391526.89147 -15175672.41446  20532254.3284                   20532251.1414
  17870304.68046  13947219.77343  23705630.6884                   23705631.7114
  -6133293.41847  -4735448.82445  21624983.8834                   21624979.8984
   9817151.26646   7679623.41843  23586107.9924                   23586103.6134
  29976193.87946                  23491781.44143  23450064.9384   23450063.8444
 11  8  1 19 49 30.0000000  0  9G17G24G07G28G08G13G11G19G26
  23605158.02747  18439848.13744  23161002.0164                   23161001.4574
  15216185.73046  12223651.20344  22528631.0004                   22528630.4804
 -12788845.80547  -9930670.58246  20350489.3914                   20350485.8244
  -4398944.74647  -2751770.33245  22180282.3594                   22180279.0124
 -20557594.45747 -15305075.69946  20500652.8914                   20500650.0824
  17861841.54346  13940624.77343  23704020.6724                   23704021.5394
  -6266391.08647  -4839161.26645  21599656.0554                   21599651.9694
   9798561.85246   7665138.11343  23582570.3284                   23582566.2894
  29793249.20346                  23349227.17643  23415252.2274   23415250.4804
 11  8  1 19 50  0.0000000  0  9G17G24G07G28G08G13G11G19G26
  23394551.21947  18275739.06344  23120925.5784                   23120924.1054
  15042546.19546  12088347.70743  22495589.1254                   22495588.0124
 -12896574.74647 -10014615.21946  20329989.6414                   20329985.6214
  -4545546.14547  -2866005.16445  22152385.0784                   22152381.4344
 -20723301.53147 -15434198.08646  20469120.4844                   20469116.7854
  17853434.54746  13934073.60243  23702421.5944                   23702422.0314
  -6398917.11747  -4942428.28545  21574437.3914                   21574433.2384
   9780143.87146   7650786.37943  23579065.7114                   23579061.3674
  29610837.93846                  23207088.57843  23380540.1724   23380538.5234
 11  8  1 19 50 30.0000000  0  9G17G24G07G28G08G13G11G19G26
  23184205.43446  18111833.38344  23080897.6024                   23080896.6604
  14869273.82447  11953330.34844  22462616.1334                   22462615.1724
 -13003833.68047 -10098193.60946  20309579.1484                   20309575.0864
  -4692067.91847  -2980177.96545  22124502.8284                   22124499.5354
 -20888650.67247 -15563041.56646  20437655.2194                   20437651.7544
  17845075.33246  13927559.64142  23700831.1644                   23700831.3984
  -6530876.44947  -5045253.71145  21549325.9144                   21549322.2814
   9761888.99246   7636561.76243  23575592.5314                   23575587.3984
  29428956.66446                  23065362.96143  23345929.3674   23345927.7424
 11  8  1 19 51  0.0000000  0  9G17G24G07G28G08G13G11G19G26
  22974130.08246  17948138.44944  23040921.9774                   23040920.5704
  14696379.42647  11818607.48444  22429715.3754                   22429714.5004
 -13110613.46947 -10181398.64146  20289259.7194                   20289255.7814
  -4838502.78947  -3094283.03545  22096637.8594                   22096633.5784
 -21053631.79748 -15691598.28546  20406260.3914                   20406257.1644
  17836769.32446  13921087.12142  23699250.8364                   23699251.0514
  -6662259.68747  -5147630.23445  21524324.8674                   21524320.9224
   9743802.78546   7622468.57443  23572150.1094                   23572145.5474
  29247615.30546                  22924058.07843  23311421.4144   23311419.6294
 11  8  1 19 51 30.0000000  0  9G17G24G07G28G08G13G11G19G26
  22764322.09047  17784651.82044  23000996.0084                   23000994.9414
  14523861.14547  11684177.72744  22396886.3984                   22396885.2624
 -13216918.03547 -10264233.37146  20269029.9384                   20269026.2234
  -4984855.91447  -3208324.42645  22068787.1334                   22068783.3984
 -21218247.20347 -15819870.01246  20374935.3134                   20374932.4344
  17828508.77746  13914650.03943  23697678.5944                   23697678.7544
  -6793070.29747  -5249560.57445  21499432.7194                   21499428.5084
   9725878.13746   7608501.27343  23568739.6414                   23568734.8284
  29066811.32046                  22783171.88743  23277014.7734   23277013.4844
 11  8  1 19 52  0.0000000  0  9G17G24G07G28G08G13G11G19G26
  22554780.89846  17621373.10244  22961121.0704                   22961120.6294
  14351719.53147  11550041.46944  22364129.1024                   22364128.1884
 -13322749.00847 -10346699.07046  20248891.2664                   20248887.1524
  -5131130.54347  -3322304.62945  22040951.8134                   22040948.5744
 -21382496.51248 -15947856.48446  20343679.0394                   20343676.3364
  17820288.57846  13908244.38743  23696114.5864                   23696115.5554
  -6923309.71547  -5351045.80944  21474648.5944                   21474644.7194
   9708109.80546   7594655.77044  23565358.0704                   23565353.9574
  28886544.50046                  22642704.25043  23242712.3444   23242710.1684
 11  8  1 19 52 30.0000000  0  9G17G24G07G28G08G13G11G19G26
  22345502.34446  17458299.03944  22921297.6334                   22921296.1524
  14179951.96547  11416196.69544  22331442.7584                   22331441.7814
 -13428110.78547 -10428799.16046  20228841.5084                   20228837.6644
  -5277332.56647  -3436228.27045  22013131.2194                   22013127.1524
 -21546382.72747 -16075560.02046  20312493.0554                   20312489.7544
  17812100.02346  13901863.38743  23694556.9064                   23694557.1414
  -7052982.38747  -5452089.43445  21449972.2194                   21449968.7734
   9690489.68446   7580925.76243  23562005.2344                   23562000.7464
  28706811.07446                  22502652.28543  23208508.8594   23208508.0274
 11  8  1 19 53  0.0000000  0  9G17G24G07G28G08G13G11G19G26
  22136488.46946  17295431.21544  22881523.3444                   22881521.9694
  14008561.10247  11282645.45344  22298828.1024                   22298827.0084
 -13533002.53947 -10510533.00046  20208881.4924                   20208877.3444
  -5423462.82047  -3550095.98045  21985323.2894                   21985319.6954
 -21709903.48048 -16202978.78146  20281375.3594                   20281372.4534
  17803940.14146  13895504.73442  23693004.4924                   23693004.8954
  -7182087.16047  -5552690.54345  21425404.5944                   21425401.1294
   9673015.27046   7567309.27743  23558680.0004                   23558675.5744
  28527613.17646                  22363017.62943  23174408.4534   23174407.2424
 11  8  1 19 53 30.0000000  0  9G17G24G07G28G08G13G11G19G26
  23503161.32846  18360371.22344  23141592.7034                   23141591.1884
  15412968.96147  12376989.32844  22566077.7974                   22566077.0354
 -12062006.23847  -9364302.12946  20488802.3524                   20488798.8134
  -3994103.22347  -2436309.26645  22257321.4614                   22257317.6764
 -20297636.94948 -15102511.35246  20550121.4614                   20550118.2704
  19371220.59846  15116761.87543  23991248.0554                   23991248.7704
  -5735205.11747  -4425249.96945  21700737.0084                   21700733.6484
  11231098.35546   8781399.95743  23855172.5784                   23855169.0164
  29924372.44146                  23451401.51243  23440203.5394   23440202.1094
 11  8  1 19 54  0.0000000  0  9G17G24G07G28G08G13G11G19G26
  23294660.32446  18197903.02344  23101916.1564                   23101914.4264
  15242318.59047  12244015.10244  22533604.2664                   22533603.1954
 -12165976.19147  -9445317.67646  20469017.7194                   20469013.9574
  -4140112.57447  -2550082.77045  22229536.7114                   22229533.0084
 -20460440.46148 -15229371.22346  20519140.6644                   20519137.4654
  19363088.94146  15110425.18843  23989700.6484                   23989702.0594
  -5863192.37947  -4524980.28545  21676381.9924                   21676378.7704
  11213886.69546   8767988.22343  23851898.4844                   23851893.4264
  29746230.46146                  23312589.60543  23406303.8444   23406302.7774
 11  8  1 19 54 30.0000000  0  9G17G24G07G28G08G13G11G19G26
  23086410.35946  18035630.43844  23062287.0554                   23062285.6844
  15072034.66447  12111326.40244  22501200.4774                   22501198.8634
 -12269491.85947  -9525979.24646  20449319.8984                   20449315.7304
  -4286070.06647  -2663815.87545  22201762.2274                   22201758.2734
 -20622889.53947 -15355954.91046  20488227.4774                   20488224.5004
  19354959.18846  15104089.95343  23988154.5314                   23988155.0514
  -5990627.38747  -4624280.26245  21652131.8594                   21652127.9774
  11196794.50846   8754669.55943  23848645.2664                   23848641.3164
  29568611.34046                  23174185.13743  23372504.6094   23372503.0274
 11  8  1 19 55  0.0000000  0  9G17G24G07G28G08G13G11G19G26
  22878425.64546  17873564.52344  23022709.0784                   23022707.1414
  14902132.63747  11978935.30944  22468868.0704                   22468867.6134
 -12372540.00047  -9606276.51646  20429710.3284                   20429706.4064
  -4431964.01247  -2777499.46145  22173999.2584                   22173995.3484
 -20784969.17248 -15482250.72346  20457384.8364                   20457382.0514
  19346840.99246  15097763.77042  23986608.8754                   23986610.4304
  -6117496.59847  -4723139.37945  21627989.7344                   21627985.6214
  11179832.23046   8741452.15243  23845417.7664                   23845413.5004
  29391529.64546                  23036199.43843  23338806.5784   23338804.6954
 11  8  1 19 55 30.0000000  0  9G17G24G07G28G08G13G11G19G26
  22670704.26246  17711703.81644  22983180.4614                   22983179.6484
  14732611.90247  11846841.30544  22436610.1564                   22436609.0554
 -12475123.06247  -9686211.37546  20410189.3674                   20410185.2544
  -4577798.43047  -2891136.64845  22146248.1174                   22146244.1764
 -20946679.95348 -15608259.11746  20426612.2734                   20426609.5554
  19338728.00046  15091441.58242  23985065.3524                   23985067.2934
  -6243802.42647  -4821559.48045  21603954.0944                   21603950.2154
  11162993.68046   8728331.16843  23842214.1724                   23842209.7234
  29214983.84046                  22898631.32843  23305212.0004   23305210.0274
 11  8  1 19 56  0.0000000  0  9G17G24G07G28G08G13G11G19G26
  22463238.05546  17550041.94144  22943700.9844                   22943699.6884
  14563465.25047  11715038.79344  22404422.1724                   22404421.3324
 -12577250.28547  -9765791.03946  20390754.9694                   20390751.1414
  -4723583.62147  -3004735.48445  22118505.3984                   22118501.9414
 -21108029.50447 -15733986.03146  20395908.5784                   20395905.3754
  19330607.36746  15085113.48442  23983520.9774                   23983522.6454
  -6369554.00847  -4919547.70345  21580024.3204                   21580020.5474
  11146266.34446   8715296.83243  23839030.1644                   23839026.4574
  29038965.87946                  22761474.51243  23271715.7734   23271715.0164
 11  8  1 19 56 30.0000000  0  9G17G24G07G28G08G13G11G19G26
  22256039.45347  17388588.57444  22904272.6334                   22904271.1134
  14394706.31347  11583538.40644  22372308.6884                   22372307.0354
 -12678910.02047  -9845006.41846  20371409.8364                   20371406.2194
  -4869309.29347  -3118287.94145  22090774.9064                   22090770.9224
 -21269004.60548 -15859421.16446  20365275.8594                   20365273.1024
  19322487.30146  15078785.77042  23981975.6644                   23981978.3794
  -6494739.39147  -5017094.72744  21556202.3674                   21556198.9924
  11129658.74246   8702355.77043  23835870.6484                   23835865.9304
  28863488.53546                  22624738.98443  23238323.2344   23238322.3094
 11  8  1 19 57  0.0000000  0  9G17G24G07G28G08G13G11G19G26
  22049104.82846  17227340.91844  22864894.1724                   22864892.4454
  14226332.58247  11452338.16844  22340267.8284                   22340266.8284
 -12780106.32047  -9923860.69146  20352152.6804                   20352148.9694
  -5014981.23047  -3231798.53145  22063054.6254                   22063050.8204
 -21429608.07048 -15984566.70746  20334714.3364                   20334711.3244
  19314360.09446  15072452.50042  23980430.0164                   23980431.9024
  -6619362.87547  -5114203.92645  21532487.5314                   21532483.7814
  11113163.14146   8689501.98043  23832731.4304                   23832727.0434
  28688548.54346                  22488422.11743  23205034.4534   23205032.3134
 11  8  1 19 57 30.0000000  0  9G17G24G07G28G08G13G11G19G26
  21842433.71947  17066298.58244  22825566.0784                   22825564.6214
  14058344.29347  11321438.27044  22308300.9614                   22308299.2664
 -12880841.00047 -10002355.27746  20332983.4304                   20332980.0084
  -5160602.14847  -3345269.35245  22035344.0394                   22035340.2504
 -21589839.37948 -16109422.26646  20304223.1334                   20304220.1914
  19306220.53946  15066109.66442  23978880.8834                   23978882.5164
  -6743425.98447  -5210876.46945  21508879.7504                   21508875.6994
  11096774.91046   8676731.86743  23829612.6804                   23829608.5824
  28514145.31346                  22352523.52743  23171845.2894   23171844.7934
 11  8  1 19 58  0.0000000  0  9G17G24G07G28G08G13G11G19G26
  21636025.90647  16905461.41844  22786288.2974                   22786286.5864
  13890742.54747  11190839.57044  22276407.2194                   22276405.7854
 -12981114.80147 -10080490.71546  20313902.2034                   20313898.5314
  -5306174.34447  -3458702.21544  22007642.7194                   22007638.6564
 -21749698.20748 -16233987.57046  20273803.2344                   20273800.0664
  19298064.04346  15059753.59442  23977329.5164                   23977330.9024
  -6866929.89847  -5307113.27345  21485377.3204                   21485373.3714
  11080489.64546   8664041.98043  23826513.6254                   23826510.0904
  28340278.94146                  22217043.28943  23138760.0864   23138758.3094
 11  8  1 19 58 30.0000000  0  9G17G24G07G28G08G13G11G19G26
  21429874.18847  16744823.80544  22747058.1724                   22747056.9574
  13723521.38347  11060537.42644  22244586.0784                   22244584.5744
 -13080935.75447 -10158273.28146  20294906.7114                   20294902.9104
  -5451706.91047  -3572104.19545  21979948.3914                   21979944.8794
 -21909190.29348 -16358267.10246  20243452.7894                   20243449.8594
  19289879.16846  15053375.41043  23975771.6024                   23975774.0784
  -6989882.23047  -5402920.28145  21461979.6724                   21461975.9304
  11064296.36346   8651423.78543  23823433.2424                   23823428.1604
  28166942.68046                  22081976.08243  23105775.1644   23105773.3984
 11  8  1 19 59  0.0000000  0  9G17G24G07G28G08G13G11G19G26
  21223991.04747  16584395.44944  22707879.6564                   22707878.5864
  13556694.29347  10930542.36744  22212839.8524                   22212837.6214
 -13180292.41047 -10235694.07046  20275999.8364                   20275996.3284
  -5597189.79747  -3685467.46945  21952263.9304                   21952259.9574
 -22068303.01648 -16482251.04346  20213174.4924                   20213171.4264
  19281673.87946  15046981.26242  23974209.7894                   23974213.1054
  -7112271.58247  -5498288.60545  21438690.2974                   21438686.2704
  11048203.25046   8638883.64143  23820370.2584                   23820365.9804
  27994148.86346                  21947331.59843  23072893.4774   23072892.2114
 11  8  1 19 59 30.0000000  0  9G17G24G07G28G08G13G11G19G26
  21018371.69947  16424172.67644  22668752.5704                   22668750.3874
  13390257.48047  10800851.39544  22181168.0164                   22181166.4844
 -13279190.04347 -10312757.16846  20257180.3444                   20257176.6844
  -5742629.48847  -3798797.08645  21924587.7974                   21924584.2114
 -22227039.31648 -16605941.64846  20182968.2424                   20182965.1334
  19273439.06646  15040564.14842  23972644.2034                   23972647.0274
  -7234103.30947  -5593222.42645  21415506.5944                   21415502.4104
  11032201.86746   8626414.99643  23817325.1334                   23817320.6994
  27821893.27746                  21813106.48043  23040115.1724   23040113.2114
 11  8  1 20  0  0.0000000  0  9G17G24G07G28G08G13G11G19G26
  22388435.32847  17491754.80544  22929466.2194                   22929464.8674
  14799630.19947  11899063.97744  22449362.5314                   22449360.5314
 -11802214.37548  -9161867.04746  20538239.6484                   20538235.8054
  -4312610.95347  -2684496.90645  22196710.8984                   22196707.5744
 -20809981.01248 -15501740.36346  20452625.2584                   20452622.3164
  20840583.09846  16261714.96542  24270861.5634                   24270865.0234
  -5779961.94147  -4460125.25445  21692220.1094                   21692216.2664
  12591700.96546   9841609.07043  24114087.7664                   24114083.3914
  29225593.96146                  22906899.27343  23307230.0944   23307227.9964
 11  8  1 20  0 30.0000000  0  9G17G24G07G28G08G13G11G19G26
  22183338.01647  17331938.79744  22890437.5164                   22890435.7194
  14633971.98447  11769979.71544  22417838.7274                   22417837.0354
 -11900202.93748  -9238221.77346  20519592.7194                   20519589.2154
  -4457976.32847  -2797768.61745  22169049.0474                   22169045.2504
 -20967967.87948 -15624847.01646  20422561.3524   20422558.5944   20832270.98746
  16255237.52942                  24269281.2114                   24269283.6524
  -5900686.66847  -4554196.45345  21669246.9614                   21669242.9184
  12575865.06646   9829269.37143  24111074.3284                   24111070.1884
  29054409.46546                  22773508.79743  23274654.4224   23274653.1484
 11  8  1 20  1  0.0000000  0  9G17G24G07G28G08G13G11G19G26
  21978506.00047  17172329.51644  22851459.1334                   22851458.0274
  14468708.78947  11641203.25044  22386390.8054                   22386388.5744
 -11997733.80148  -9314219.85546  20501033.6644                   20501030.0354
  -4603303.37547  -2911010.45345  22141394.2114                   22141390.2894
 -21125574.99248 -15747657.74246  20392569.8364   20392566.5044   20823918.16846
  16248728.46542                  24267691.3364                   24267694.5904
  -6020854.94147  -4647834.06244  21646379.7664                   21646375.9064
  12560110.11346   9816992.74643  24108076.7344                   24108072.3134
  28883764.84446                  22640539.00643  23242182.2194   23242179.6374
 11  8  1 20  1 30.0000000  0  9G17G24G07G28G08G13G11G19G26
  21773940.73047  17012928.08244  22812531.9064                   22812529.8444
  14303843.34047  11512736.71544  22355017.3914                   22355015.5904
 -12094806.50047  -9389860.94546  20482561.6254                   20482557.5554
  -4748592.56247  -3024222.79745  22113746.7974                   22113742.7584
 -21282799.49648 -15870170.33246  20362651.1334   20362647.8954   20815521.45346
  16242185.18042                  24266093.1174                   24266097.0204
  -6140466.41847  -4741037.81644  21623619.4304                   21623614.0554
  12544433.89146   9804777.46143  24105093.2664                   24105089.1374
  28713661.82846                  22507991.21943  23209813.1174   23209809.9614
 11  8  1 20  2  0.0000000  0  9G17G24G07G28G08G13G11G19G26
  21569637.93447  16853731.18044  22773654.1564                   22773652.6024
  14139372.60247  11384577.75044  22323719.3984                   22323717.6844
 -12191425.96947  -9465148.85246  20464175.2504                   20464171.2814
  -4893849.92247  -3137410.32445  22086105.6024                   22086101.0664
 -21439644.55148 -15992387.25446  20332804.2194   20332801.4774   20807072.73846
  16235601.32842                  24264486.6724                   24264490.5394
  -6259525.66047  -4833811.23045  21600962.5394                   21600958.3444
  12528828.36746   9792617.25843  24102124.3594                   24102120.0084
  28544096.30946                  22375862.24643  23177545.5864   23177543.2664
 11  8  1 20  2 30.0000000  0  9G17G24G07G28G08G13G11G19G26
  21365600.47347  16694741.05144  22734827.3754                   22734825.4264
  13975299.91047  11256728.94544  22292497.8594                   22292496.0274
 -12287590.56247  -9540082.31246  20445875.6094                   20445872.0394
  -5039075.21947  -3250572.88745  22058469.5944                   22058465.9184
 -21596106.87148 -16114305.93446  20303030.2734   20303027.4304   20798570.29346
  16228975.58242                  24262869.1094                   24262872.3164
  -6378031.36747  -4926153.33245  21578411.1484                   21578406.8914
  12513292.14146   9780511.05143  24099167.4614                   24099163.4304
  28375070.99246                  22244154.27043  23145380.6954   23145378.9964
 11  8  1 20  3  0.0000000  0  9G17G24G07G28G08G13G11G19G26
  21161828.06647  16535957.43844  22696050.3524                   22696048.6054
  13811626.07847  11129190.95344  22261351.3674                   22261349.7934
 -12383301.81648  -9614662.52746  20427662.3524                   20427658.6484
  -5184270.39547  -3363711.97745  22030839.7504                   22030836.0084
 -21752185.65248 -16235925.76646  20273329.3364   20273326.7034   20790009.73445
  16222304.54742                  24261240.2034                   24261243.5704
  -6495984.82047  -5018065.09845  21555965.9064                   21555961.3054
  12497820.95346   9768455.51643  24096223.4454                   24096219.4494
  28206585.59046                  22112866.96943  23113318.5944   23113317.4614
 11  8  1 20  3 30.0000000  0  9G17G24G07G28G08G13G11G19G26
  20958324.71947  16377383.48444  22657324.8674                   22657323.0434
  13648356.73447  11001968.12544  22230282.5864                   22230280.8284
 -12478556.00047  -9688886.59046  20409536.1484                   20409532.3364
  -5329432.85947  -3476825.56645  22003216.6724                   22003212.6954
 -21907875.65648 -16357242.64546  20243702.8594   20243699.9964   20781391.08246
  16215588.29342                  24259600.3444                   24259603.8524
  -6613382.43447  -5109543.75045  21533625.2274                   21533621.5204
  12482415.50046   9756451.18843  24093291.4614                   24093287.5664
  28038644.65646                  21982003.92643  23081360.8984   23081358.5704
 11  8  1 20  4  0.0000000  0  9G17G24G07G28G08G13G11G19G26
  20755096.80147  16219024.14544  22618651.4694                   22618650.0314
  13485499.25847  10875066.23844  22199291.6414                   22199290.5234
 -12573347.56247  -9762750.16846  20391498.3054                   20391494.2624
  -5474558.48847  -3589910.46145  21975599.5704                   21975596.4694
 -22063169.85547 -16478251.10946  20214151.9924   20214148.6604   20772716.50446
  16208828.42642                  24257949.8834                   24257954.2274
  -6730218.94547  -5200585.19545  21511392.5394                   21511388.5204
  12467077.97346   9744499.78943  24090372.3524                   24090369.8984
  27871254.75446                  21851570.25843  23049507.8444   23049505.8324
 11  8  1 20  4 30.0000000  0  9G17G24G07G28G08G13G11G19G26
  20552139.48447  16060875.65644  22580030.6024                   22580028.6954
  13323049.55947  10748482.11744  22168377.5864                   22168377.4414
 -12667682.67247  -9836258.07046  20373546.4304                   20373542.8674
  -5619654.05547  -3702971.93445  21947989.0004                   21947985.5044
 -22218072.15648 -16598954.19946  20184675.2274   20184671.2544   20763976.91446
  16202017.89542                  24256286.3984                   24256290.9144
  -6846500.43447  -5291194.13345  21489264.5314                   21489260.5514
  12451799.88746   9732594.68843  24087466.4774                   24087462.7154
  27704410.76246                  21721561.97743  23017758.4144   23017755.9654
 11  8  1 20  5  0.0000000  0  9G17G24G07G28G08G13G11G19G26
  20349463.55547  15902946.43444  22541462.3284                   22541460.5664
  13161019.44547  10622224.91044  22137544.8834                   22137543.5864
 -12761551.62147  -9909402.72346  20355684.2504                   20355680.3014
  -5764710.99247  -3816003.30945  21920385.8754                   21920381.8164
 -22372570.71948 -16719342.68746  20155274.3594   20155271.3874   20755178.80946
  16195161.77342                  24254614.2814                   24254617.7584
  -6962216.93047  -5381362.83645  21467244.7034                   21467240.1764
  12436587.87146   9720741.08243  24084571.4614                   24084567.8164
  27538123.41446                  21591987.44943  22986114.9304   22986112.8484
 11  8  1 20  5 30.0000000  0  8G17G24G07G28G08G11G19G26
  20147060.20747  15745229.61345  22502945.5784                   22502944.5434
  12999401.19147  10496288.64144  22106790.3364                   22106788.6054
 -12854963.84047  -9982191.47746  20337908.0784                   20337904.5394
  -5909739.70347  -3929012.69145  21892787.4304                   21892783.5004
 -22526673.52348 -16839422.80146  20125949.3674   20125946.0554
  -7077378.21147  -5471098.89545  21445330.3054                   21445325.9804
  12421429.30946   9708929.17243  24081686.3134                   24081682.8714
  27372383.89146                  21462839.78943  22954576.0234   22954574.6564
 11  8  1 20  6  0.0000000  0  8G17G24G07G28G08G11G19G26
  19944933.18047  15587728.10944  22464482.7584                   22464480.9534
  12838199.65647  10370677.10244  22076113.9454                   22076112.6644
 -12947916.66447 -10054622.26646  20320219.9064                   20320215.9964
  -6054738.19947  -4041998.52045  21865195.3444                   21865191.4884
 -22680375.95348 -16959190.91446  20096700.9304   20096697.7934
  -7191981.80147  -5560400.37544  21423522.2034                   21423517.4884
  12406324.27346   9697158.93043  24078813.1174                   24078809.2504
  27207196.10546                  21334122.07443  22923141.8754   22923140.0984
 11  8  1 20  6 30.0000000  0  8G17G24G07G28G08G11G19G26
  21318507.41847  16658045.77345  22725864.8984                   22725862.9304
  14252839.77047  11472994.10544  22345311.0704                   22345308.9224
 -11464989.55147  -8899094.66446  20602411.6884                   20602407.6374
  -4624285.16847  -2927359.79345  22137402.0474                   22137397.6174
 -21258253.45347 -15851043.52046  20367321.8594   20367318.6094
  -5730606.57847  -4421666.43745  21701612.5944                   21701607.9304
  13966688.28946  10913026.95343  24375740.4144                   24375735.8794
  28617983.96946                  22433437.30943  23191605.1884   23191603.7114
 11  8  1 20  7  0.0000000  0  8G17G24G07G28G08G11G19G26
  21116944.40247  16500983.75044  22687508.8134                   22687507.2304
  14092486.05147  11348043.18844  22314796.6644                   22314795.6134
 -11557015.01247  -8970802.82446  20584899.7034                   20584895.9694
  -4769217.46547  -3040294.03545  22109822.0784                   22109817.9654
 -21411140.78548 -15970176.49646  20338228.2344   20338225.2424
  -5844086.31247  -4510092.18445  21680017.6414                   21680013.6094
  13951691.18046  10901340.85543  24372886.4454                   24372882.0864
  28453911.09846                  22305588.35943  23160383.8204   23160381.6414
 11  8  1 20  7 30.0000000  0  8G17G24G07G28G08G11G19G26
  20915665.95347  16344143.46544  22649206.0634                   22649204.9144
  13932560.34447  11223425.78144  22284363.5944                   22284362.6024
 -11648575.55147  -9042148.71146  20567476.3364                   20567472.9024
  -4914116.84447  -3153202.63345  22082248.1334                   22082244.4144
 -21563616.41848 -16088988.67246  20309213.2274   20309210.1024
  -5957003.00847  -4598079.20345  21658530.9224                   21658526.0594
  13936744.56346  10889694.11343  24370041.9384                   24370037.9264
  28290398.15246                  22178175.67243  23129267.9924   23129266.3834
 11  8  1 20  8  0.0000000  0  8G17G24G07G28G08G11G19G26
  20714674.91047  16187527.14544  22610959.3594                   22610957.4774
  13773066.72747  11099145.06644  22254013.4384                   22254011.8054
 -11739669.44947  -9113130.98046  20550142.0314                   20550138.1914
  -5058982.14547  -3266084.67645  22054681.3834                   22054677.5394
 -21715676.72348 -16207477.22346  20280277.1254   20280273.9344
  -6069355.19947  -4685626.36745  21637150.1804                   21637146.6134
  13921847.94146  10878086.28943  24367206.6024                   24367202.8794
  28127448.12146                  22051201.64143  23098259.7584   23098257.6954
 11  8  1 20  8 30.0000000  0  8G17G24G07G28G08G11G19G26
  20513966.10947  16031130.73444  22572765.7584                   22572763.6844
  13614000.92247  10975197.70344  22223744.2114                   22223743.0904
 -11830303.23847  -9183754.73846  20532894.4064                   20532891.3554
  -5203820.39547  -3378945.63745  22027119.4144                   22027115.7584
 -21867326.00447 -16325645.48846  20251419.5554   20251416.1334
  -6181148.94147  -4772738.37145  21615877.0394                   21615872.9454
  13906992.40246  10866510.46543  24364380.0394                   24364376.2584
  27965055.19946                  21924661.71943  23067357.6334   23067355.7544
 11  8  1 20  9  0.0000000  0  8G17G24G07G28G08G11G19G26
  20313543.90247  15874957.64544  22534626.8984                   22534624.5554
  13455368.10947  10851587.76244  22193557.6174                   22193556.0084
 -11920473.51247  -9254017.30546  20515735.5394                   20515732.1414
  -5348629.02047  -3491783.51245  21999563.2974                   21999559.8914
 -22018558.87547 -16443489.28546  20222640.6484   20222637.4844
  -6292381.14147  -4859412.82445  21594710.3674                   21594706.2034
  13892178.64846  10854967.23043  24361561.0314                   24361557.5554
  27803224.10546                  21798559.56643  23036561.3984   23036559.6054
 11  8  1 20  9 30.0000000  0  8G17G24G07G28G08G11G19G26
  20113392.92647  15718995.91444  22496539.4924                   22496536.8204
  13297154.11747  10728304.14144  22163450.5084                   22163448.8404
 -12010196.13747  -9323931.05146  20498661.8834                   20498658.4654
  -5493425.03147  -3604611.55145  21972009.4454                   21972005.8484
 -22169389.52347 -16561019.66046  20193938.2894   20193935.0554
  -6403068.37547  -4945662.60545  21573647.2584                   21573642.7974
  13877387.78146  10843441.79743  24358746.7424                   24358743.0274
  27641939.33646                  21672883.11743  23005869.4614   23005867.7774
 11  8  1 20 10  0.0000000  0  8G17G24G07G28G08G11G19G26
  19913529.62947  15563258.34044  22458506.3284                   22458503.7384
  13139376.09847  10605360.25844  22133425.7344                   22133424.7034
 -12099456.08247  -9393484.26246  20481676.5164                   20481672.7424
  -5638193.75047  -3717418.33245  21944460.7734                   21944456.8984
 -22319800.84047 -16678223.28546  20165316.1414   20165313.1054
  -6513195.24247  -5031475.74245  21552690.5314                   21552686.7814
  13862632.52046  10831944.09443  24355939.4534                   24355935.7074
  27481217.13346                  21547645.07043  22975286.1024   22975284.0234
 11  8  1 20 10 30.0000000  0  8G17G24G07G28G08G11G19G26
  19713934.28147  15407729.55944  22420523.9534                   22420522.3634
  12982015.61347  10482741.71944  22103481.2974                   22103479.4804
 -12188273.68447  -9462692.80146  20464775.3134                   20464771.2814
  -5782956.21147  -3830220.23445  21916914.0394                   21916909.8594
 -22469811.39548 -16795114.62946  20136769.9224   20136766.9574
  -6622782.35547  -5116868.28945  21531836.5004                   21531832.9734
  13847889.61346  10820456.03543  24353133.5164                   24353129.7584
  27321037.99646                  21422830.20343  22944804.4384   22944802.9574
